Wetterdaten: Samstag, 10.06.2017
Datum Zeit Temp. A. Pool Temp. Feuchte A. Luftdruck Regen Wind Richtung Richtung Sonnenschein ET UV Solar Taupunkt Windchill Windben Empfang
10.06.2017 00:00 19,7 C 22,8 C 62 % 1014,9 hPa 0,0 l/m 6,9 km/h (2 Bft) W-SW 244 0 min 0,000 mm 0,0 UV-I 0 W/m 12,2 C 19,5 C 12,9 km/h (3 Bft) 98,21 %
10.06.2017 00:02 19,7 C 22,8 C 62 % 1015,0 hPa 0,0 l/m 10,8 km/h (2 Bft) W-SW 250 0 min 0,000 mm 0,0 UV-I 0 W/m 12,2 C 18,0 C 16,1 km/h (3 Bft) 97,22 %
10.06.2017 00:04 19,7 C 22,8 C 62 % 1015,0 hPa 0,0 l/m 10,3 km/h (2 Bft) SW 236 0 min 0,000 mm 0,0 UV-I 0 W/m 12,2 C 18,2 C 16,1 km/h (3 Bft) 98,11 %
10.06.2017 00:06 19,6 C 22,8 C 62 % 1015,0 hPa 0,0 l/m 11,1 km/h (2 Bft) W-SW 240 0 min 0,000 mm 0,0 UV-I 0 W/m 12,1 C 17,8 C 17,7 km/h (3 Bft) 95,74 %
10.06.2017 00:08 19,6 C 22,8 C 62 % 1015,0 hPa 0,0 l/m 9,2 km/h (2 Bft) W-SW 244 0 min 0,000 mm 0,0 UV-I 0 W/m 12,1 C 18,5 C 16,1 km/h (3 Bft) 94,00 %
10.06.2017 00:10 19,6 C 22,2 C 62 % 1015,0 hPa 0,0 l/m 11,0 km/h (2 Bft) W-SW 242 0 min 0,000 mm 0,0 UV-I 0 W/m 12,1 C 17,9 C 16,1 km/h (3 Bft) 97,87 %
10.06.2017 00:12 19,6 C 22,8 C 62 % 1015,0 hPa 0,0 l/m 14,6 km/h (3 Bft) SW 219 0 min 0,000 mm 0,0 UV-I 0 W/m 12,1 C 16,9 C 20,9 km/h (4 Bft) 95,12 %
10.06.2017 00:14 19,6 C 22,8 C 62 % 1015,0 hPa 0,0 l/m 13,1 km/h (3 Bft) SW 231 0 min 0,000 mm 0,0 UV-I 0 W/m 12,1 C 17,3 C 20,9 km/h (4 Bft) 98,00 %
10.06.2017 00:16 19,6 C 22,2 C 62 % 1015,0 hPa 0,0 l/m 12,2 km/h (2 Bft) S-SW 200 0 min 0,000 mm 0,0 UV-I 0 W/m 12,1 C 17,5 C 17,7 km/h (3 Bft) 95,12 %
10.06.2017 00:18 19,6 C 22,2 C 61 % 1015,1 hPa 0,0 l/m 14,0 km/h (3 Bft) W 259 0 min 0,000 mm 0,0 UV-I 0 W/m 11,9 C 17,0 C 20,9 km/h (4 Bft) 95,74 %
10.06.2017 00:20 19,6 C 22,2 C 61 % 1015,0 hPa 0,0 l/m 12,0 km/h (2 Bft) SW 227 0 min 0,000 mm 0,0 UV-I 0 W/m 11,9 C 17,6 C 16,1 km/h (3 Bft) 98,21 %
10.06.2017 00:22 19,7 C 22,2 C 61 % 1015,1 hPa 0,0 l/m 14,0 km/h (3 Bft) S-SW 211 0 min 0,000 mm 0,0 UV-I 0 W/m 12,0 C 17,1 C 20,9 km/h (4 Bft) 95,12 %
10.06.2017 00:24 19,7 C 22,2 C 60 % 1015,1 hPa 0,0 l/m 11,3 km/h (2 Bft) W-SW 238 0 min 0,000 mm 0,0 UV-I 0 W/m 11,7 C 17,9 C 20,9 km/h (4 Bft) 98,00 %
10.06.2017 00:26 19,7 C 22,2 C 60 % 1015,1 hPa 0,0 l/m 10,2 km/h (2 Bft) W-SW 240 0 min 0,000 mm 0,0 UV-I 0 W/m 11,7 C 18,2 C 14,5 km/h (3 Bft) 98,00 %
10.06.2017 00:28 19,7 C 22,2 C 60 % 1015,1 hPa 0,0 l/m 10,1 km/h (2 Bft) W-SW 244 0 min 0,000 mm 0,0 UV-I 0 W/m 11,7 C 18,3 C 14,5 km/h (3 Bft) 97,37 %
10.06.2017 00:30 19,7 C 22,2 C 60 % 1015,0 hPa 0,0 l/m 8,5 km/h (2 Bft) W-SW 242 0 min 0,000 mm 0,0 UV-I 0 W/m 11,7 C 18,8 C 12,9 km/h (3 Bft) 95,45 %
10.06.2017 00:32 19,7 C 22,2 C 60 % 1015,0 hPa 0,0 l/m 8,1 km/h (2 Bft) W-SW 247 0 min 0,000 mm 0,0 UV-I 0 W/m 11,7 C 19,0 C 12,9 km/h (3 Bft) 96,00 %
10.06.2017 00:34 19,7 C 22,2 C 60 % 1014,9 hPa 0,0 l/m 8,3 km/h (2 Bft) SW 223 0 min 0,000 mm 0,0 UV-I 0 W/m 11,7 C 18,9 C 12,9 km/h (3 Bft) 100,00 %
10.06.2017 00:36 19,7 C 22,2 C 60 % 1014,8 hPa 0,0 l/m 6,5 km/h (2 Bft) SW 221 0 min 0,000 mm 0,0 UV-I 0 W/m 11,7 C 19,7 C 12,9 km/h (3 Bft) 98,00 %
10.06.2017 00:38 19,6 C 22,2 C 60 % 1015,0 hPa 0,0 l/m 7,6 km/h (2 Bft) W-SW 241 0 min 0,000 mm 0,0 UV-I 0 W/m 11,6 C 19,1 C 16,1 km/h (3 Bft) 100,00 %
10.06.2017 00:40 19,6 C 22,2 C 59 % 1015,1 hPa 0,0 l/m 11,9 km/h (2 Bft) SW 235 0 min 0,000 mm 0,0 UV-I 0 W/m 11,4 C 17,6 C 16,1 km/h (3 Bft) 96,23 %
10.06.2017 00:42 19,6 C 22,2 C 60 % 1015,2 hPa 0,0 l/m 8,7 km/h (2 Bft) W-SW 244 0 min 0,000 mm 0,0 UV-I 0 W/m 11,6 C 18,7 C 12,9 km/h (3 Bft) 98,11 %
10.06.2017 00:44 19,6 C 22,2 C 60 % 1015,3 hPa 0,0 l/m 10,1 km/h (2 Bft) SW 232 0 min 0,000 mm 0,0 UV-I 0 W/m 11,6 C 18,2 C 17,7 km/h (3 Bft) 100,00 %
10.06.2017 00:46 19,6 C 22,2 C 60 % 1015,3 hPa 0,0 l/m 9,5 km/h (2 Bft) SW 227 0 min 0,000 mm 0,0 UV-I 0 W/m 11,6 C 18,4 C 14,5 km/h (3 Bft) 97,62 %
10.06.2017 00:48 19,6 C 22,8 C 60 % 1015,3 hPa 0,0 l/m 9,8 km/h (2 Bft) W-SW 238 0 min 0,000 mm 0,0 UV-I 0 W/m 11,6 C 18,3 C 16,1 km/h (3 Bft) 97,73 %
10.06.2017 00:50 19,5 C 22,2 C 60 % 1015,3 hPa 0,0 l/m 9,3 km/h (2 Bft) W-SW 248 0 min 0,000 mm 0,0 UV-I 0 W/m 11,5 C 18,3 C 16,1 km/h (3 Bft) 98,11 %
10.06.2017 00:52 19,4 C 22,2 C 60 % 1015,3 hPa 0,0 l/m 7,8 km/h (2 Bft) W 269 0 min 0,000 mm 0,0 UV-I 0 W/m 11,4 C 18,8 C 12,9 km/h (3 Bft) 97,73 %
10.06.2017 00:54 19,4 C 22,2 C 60 % 1015,3 hPa 0,0 l/m 7,1 km/h (2 Bft) W 266 0 min 0,000 mm 0,0 UV-I 0 W/m 11,4 C 19,1 C 11,3 km/h (2 Bft) 97,56 %
10.06.2017 00:56 19,3 C 22,2 C 61 % 1015,3 hPa 0,0 l/m 7,1 km/h (2 Bft) W 266 0 min 0,000 mm 0,0 UV-I 0 W/m 11,6 C 19,0 C 12,9 km/h (3 Bft) 98,11 %
10.06.2017 00:58 19,3 C 22,2 C 61 % 1015,3 hPa 0,0 l/m 5,5 km/h (1 Bft) W-SW 253 0 min 0,000 mm 0,0 UV-I 0 W/m 11,6 C 19,3 C 12,9 km/h (3 Bft) 97,87 %
10.06.2017 01:00 19,3 C 22,2 C 60 % 1015,3 hPa 0,0 l/m 8,3 km/h (2 Bft) W-SW 250 0 min 0,051 mm 0,0 UV-I 0 W/m 11,3 C 18,5 C 12,9 km/h (3 Bft) 100,00 %
10.06.2017 01:02 19,2 C 22,8 C 61 % 1015,4 hPa 0,0 l/m 4,5 km/h (1 Bft) W-SW 240 0 min 0,000 mm 0,0 UV-I 0 W/m 11,5 C 19,2 C 6,4 km/h (2 Bft) 95,74 %
10.06.2017 01:04 19,2 C 22,8 C 61 % 1015,4 hPa 0,0 l/m 4,8 km/h (1 Bft) W-SW 252 0 min 0,000 mm 0,0 UV-I 0 W/m 11,5 C 19,2 C 6,4 km/h (2 Bft) 100,00 %
10.06.2017 01:06 19,2 C 22,8 C 61 % 1015,5 hPa 0,0 l/m 5,0 km/h (1 Bft) W-SW 255 0 min 0,000 mm 0,0 UV-I 0 W/m 11,5 C 19,2 C 9,7 km/h (2 Bft) 97,56 %
10.06.2017 01:08 19,2 C 22,8 C 61 % 1015,5 hPa 0,0 l/m 5,1 km/h (1 Bft) W-SW 255 0 min 0,000 mm 0,0 UV-I 0 W/m 11,5 C 19,2 C 8,0 km/h (2 Bft) 98,21 %
10.06.2017 01:10 19,1 C 22,8 C 62 % 1015,5 hPa 0,0 l/m 3,7 km/h (1 Bft) W-SW 243 0 min 0,000 mm 0,0 UV-I 0 W/m 11,6 C 19,1 C 9,7 km/h (2 Bft) 100,00 %
10.06.2017 01:12 19,1 C 22,8 C 62 % 1015,5 hPa 0,0 l/m 4,9 km/h (1 Bft) W-SW 248 0 min 0,000 mm 0,0 UV-I 0 W/m 11,6 C 19,1 C 8,0 km/h (2 Bft) 97,73 %
10.06.2017 01:14 19,1 C 22,2 C 62 % 1015,5 hPa 0,0 l/m 3,8 km/h (1 Bft) W 281 0 min 0,000 mm 0,0 UV-I 0 W/m 11,6 C 19,1 C 6,4 km/h (2 Bft) 100,00 %
10.06.2017 01:16 19,0 C 22,8 C 62 % 1015,4 hPa 0,0 l/m 3,5 km/h (1 Bft) W-SW 254 0 min 0,000 mm 0,0 UV-I 0 W/m 11,6 C 19,0 C 6,4 km/h (2 Bft) 94,00 %
10.06.2017 01:18 18,9 C 22,2 C 62 % 1015,5 hPa 0,0 l/m 4,1 km/h (1 Bft) W 259 0 min 0,000 mm 0,0 UV-I 0 W/m 11,5 C 18,9 C 6,4 km/h (2 Bft) 97,87 %
10.06.2017 01:20 18,9 C 22,2 C 63 % 1015,6 hPa 0,0 l/m 5,9 km/h (2 Bft) W-SW 250 0 min 0,000 mm 0,0 UV-I 0 W/m 11,7 C 18,9 C 11,3 km/h (2 Bft) 100,00 %
10.06.2017 01:22 18,9 C 22,2 C 63 % 1015,6 hPa 0,0 l/m 2,4 km/h (1 Bft) W 259 0 min 0,000 mm 0,0 UV-I 0 W/m 11,7 C 18,9 C 4,8 km/h (1 Bft) 97,44 %
10.06.2017 01:24 18,9 C 22,2 C 63 % 1015,6 hPa 0,0 l/m 3,5 km/h (1 Bft) W 261 0 min 0,000 mm 0,0 UV-I 0 W/m 11,7 C 18,9 C 12,9 km/h (3 Bft) 97,87 %
10.06.2017 01:26 18,8 C 22,2 C 63 % 1015,6 hPa 0,0 l/m 4,6 km/h (1 Bft) W 264 0 min 0,000 mm 0,0 UV-I 0 W/m 11,6 C 18,8 C 11,3 km/h (2 Bft) 94,00 %
10.06.2017 01:28 18,8 C 22,2 C 65 % 1015,5 hPa 0,0 l/m 2,7 km/h (1 Bft) W 273 0 min 0,000 mm 0,0 UV-I 0 W/m 12,1 C 18,8 C 4,8 km/h (1 Bft) 96,23 %
10.06.2017 01:30 18,7 C 22,2 C 65 % 1015,5 hPa 0,0 l/m 3,5 km/h (1 Bft) W 265 0 min 0,000 mm 0,0 UV-I 0 W/m 12,0 C 18,7 C 8,0 km/h (2 Bft) 95,74 %
10.06.2017 01:32 18,6 C 22,2 C 65 % 1015,5 hPa 0,0 l/m 3,2 km/h (1 Bft) W 279 0 min 0,000 mm 0,0 UV-I 0 W/m 11,9 C 18,6 C 6,4 km/h (2 Bft) 97,37 %
10.06.2017 01:34 18,6 C 22,2 C 65 % 1015,6 hPa 0,0 l/m 4,6 km/h (1 Bft) W 259 0 min 0,000 mm 0,0 UV-I 0 W/m 11,9 C 18,6 C 11,3 km/h (2 Bft) 98,00 %
10.06.2017 01:36 18,5 C 22,2 C 65 % 1015,6 hPa 0,0 l/m 4,4 km/h (1 Bft) W-SW 243 0 min 0,000 mm 0,0 UV-I 0 W/m 11,8 C 18,5 C 9,7 km/h (2 Bft) 96,00 %
10.06.2017 01:38 18,6 C 22,2 C 65 % 1015,7 hPa 0,0 l/m 5,4 km/h (1 Bft) W 266 0 min 0,000 mm 0,0 UV-I 0 W/m 11,9 C 18,6 C 11,3 km/h (2 Bft) 92,11 %
10.06.2017 01:40 18,6 C 22,2 C 65 % 1015,7 hPa 0,0 l/m 5,2 km/h (1 Bft) NW 313 0 min 0,000 mm 0,0 UV-I 0 W/m 11,9 C 18,6 C 9,7 km/h (2 Bft) 98,21 %
10.06.2017 01:42 18,5 C 22,2 C 65 % 1015,8 hPa 0,0 l/m 5,1 km/h (1 Bft) SW 227 0 min 0,000 mm 0,0 UV-I 0 W/m 11,8 C 18,5 C 9,7 km/h (2 Bft) 94,74 %
10.06.2017 01:44 18,5 C 22,2 C 65 % 1015,8 hPa 0,0 l/m 5,0 km/h (1 Bft) W 270 0 min 0,000 mm 0,0 UV-I 0 W/m 11,8 C 18,5 C 12,9 km/h (3 Bft) 95,83 %
10.06.2017 01:46 18,4 C 22,2 C 68 % 1015,8 hPa 0,0 l/m 4,5 km/h (1 Bft) W-SW 243 0 min 0,000 mm 0,0 UV-I 0 W/m 12,4 C 18,4 C 12,9 km/h (3 Bft) 96,23 %
10.06.2017 01:48 18,3 C 22,2 C 68 % 1015,8 hPa 0,0 l/m 7,4 km/h (2 Bft) W-SW 258 0 min 0,000 mm 0,0 UV-I 0 W/m 12,3 C 17,8 C 14,5 km/h (3 Bft) 95,12 %
10.06.2017 01:50 18,3 C 22,2 C 69 % 1015,8 hPa 0,0 l/m 6,5 km/h (2 Bft) W 277 0 min 0,000 mm 0,0 UV-I 0 W/m 12,5 C 18,3 C 14,5 km/h (3 Bft) 96,23 %
10.06.2017 01:52 18,1 C 22,8 C 71 % 1015,9 hPa 0,0 l/m 5,5 km/h (1 Bft) W-NW 302 0 min 0,000 mm 0,0 UV-I 0 W/m 12,8 C 18,1 C 14,5 km/h (3 Bft) 93,55 %
10.06.2017 01:54 17,9 C 22,2 C 71 % 1015,9 hPa 0,0 l/m 5,7 km/h (1 Bft) SW 217 0 min 0,000 mm 0,0 UV-I 0 W/m 12,6 C 17,9 C 12,9 km/h (3 Bft) 93,44 %
10.06.2017 01:56 17,7 C 23,3 C 73 % 1016,0 hPa 0,0 l/m 6,2 km/h (2 Bft) W-SW 252 0 min 0,000 mm 0,0 UV-I 0 W/m 12,8 C 17,7 C 11,3 km/h (2 Bft) 100,00 %
10.06.2017 01:58 17,6 C 22,2 C 75 % 1016,1 hPa 0,0 l/m 5,8 km/h (2 Bft) W-SW 247 0 min 0,000 mm 0,0 UV-I 0 W/m 13,1 C 17,6 C 11,3 km/h (2 Bft) 94,87 %
10.06.2017 02:00 17,4 C 22,2 C 75 % 1016,2 hPa 0,0 l/m 4,2 km/h (1 Bft) W 267 0 min 0,025 mm 0,0 UV-I 0 W/m 12,9 C 17,4 C 6,4 km/h (2 Bft) 98,11 %
10.06.2017 02:02 17,3 C 22,8 C 76 % 1016,2 hPa 0,0 l/m 3,4 km/h (1 Bft) W 262 0 min 0,000 mm 0,0 UV-I 0 W/m 13,0 C 17,3 C 4,8 km/h (1 Bft) 98,00 %
10.06.2017 02:04 17,2 C 22,8 C 77 % 1016,3 hPa 0,0 l/m 5,6 km/h (1 Bft) W-SW 250 0 min 0,000 mm 0,0 UV-I 0 W/m 13,1 C 17,2 C 9,7 km/h (2 Bft) 97,87 %
10.06.2017 02:06 17,1 C 22,8 C 78 % 1016,4 hPa 0,2 l/m 6,6 km/h (2 Bft) W 279 0 min 0,000 mm 0,0 UV-I 0 W/m 13,2 C 17,0 C 12,9 km/h (3 Bft) 95,12 %
10.06.2017 02:08 17,0 C 22,2 C 79 % 1016,4 hPa 0,0 l/m 8,5 km/h (2 Bft) W-SW 248 0 min 0,000 mm 0,0 UV-I 0 W/m 13,3 C 16,0 C 12,9 km/h (3 Bft) 98,21 %
10.06.2017 02:10 16,9 C 22,8 C 79 % 1016,4 hPa 0,2 l/m 7,0 km/h (2 Bft) W-SW 255 0 min 0,000 mm 0,0 UV-I 0 W/m 13,2 C 16,6 C 14,5 km/h (3 Bft) 100,00 %
10.06.2017 02:12 16,7 C 22,8 C 80 % 1016,4 hPa 0,0 l/m 5,9 km/h (2 Bft) W-SW 257 0 min 0,000 mm 0,0 UV-I 0 W/m 13,2 C 16,7 C 9,7 km/h (2 Bft) 96,00 %
10.06.2017 02:14 16,6 C 22,8 C 83 % 1016,5 hPa 0,0 l/m 6,3 km/h (2 Bft) W-SW 250 0 min 0,000 mm 0,0 UV-I 0 W/m 13,7 C 16,6 C 9,7 km/h (2 Bft) 98,00 %
10.06.2017 02:16 16,4 C 22,8 C 83 % 1016,5 hPa 0,0 l/m 5,5 km/h (1 Bft) W 261 0 min 0,000 mm 0,0 UV-I 0 W/m 13,5 C 16,4 C 9,7 km/h (2 Bft) 100,00 %
10.06.2017 02:18 16,3 C 23,3 C 84 % 1016,5 hPa 0,2 l/m 6,4 km/h (2 Bft) W-SW 254 0 min 0,000 mm 0,0 UV-I 0 W/m 13,6 C 16,3 C 11,3 km/h (2 Bft) 98,11 %
10.06.2017 02:20 16,1 C 23,9 C 85 % 1016,5 hPa 0,0 l/m 5,6 km/h (1 Bft) W 271 0 min 0,000 mm 0,0 UV-I 0 W/m 13,6 C 16,1 C 8,0 km/h (2 Bft) 100,00 %
10.06.2017 02:22 16,0 C 23,9 C 85 % 1016,5 hPa 0,0 l/m 3,7 km/h (1 Bft) W 269 0 min 0,000 mm 0,0 UV-I 0 W/m 13,5 C 16,0 C 6,4 km/h (2 Bft) 96,23 %
10.06.2017 02:24 15,9 C 23,9 C 86 % 1016,5 hPa 0,2 l/m 4,0 km/h (1 Bft) W-NW 300 0 min 0,000 mm 0,0 UV-I 0 W/m 13,6 C 15,9 C 8,0 km/h (2 Bft) 100,00 %
10.06.2017 02:26 15,8 C 23,9 C 87 % 1016,5 hPa 0,0 l/m 5,2 km/h (1 Bft) W-SW 247 0 min 0,000 mm 0,0 UV-I 0 W/m 13,6 C 15,8 C 9,7 km/h (2 Bft) 97,87 %
10.06.2017 02:28 15,7 C 23,3 C 87 % 1016,5 hPa 0,0 l/m 6,7 km/h (2 Bft) W-SW 257 0 min 0,000 mm 0,0 UV-I 0 W/m 13,5 C 15,5 C 11,3 km/h (2 Bft) 97,87 %
10.06.2017 02:30 15,6 C 23,3 C 87 % 1016,4 hPa 0,2 l/m 5,3 km/h (1 Bft) NW 317 0 min 0,000 mm 0,0 UV-I 0 W/m 13,4 C 15,6 C 12,9 km/h (3 Bft) 100,00 %
10.06.2017 02:32 15,6 C 23,3 C 88 % 1016,3 hPa 0,0 l/m 2,0 km/h (1 Bft) NW 309 0 min 0,000 mm 0,0 UV-I 0 W/m 13,6 C 15,6 C 3,2 km/h (1 Bft) 97,87 %
10.06.2017 02:34 15,4 C 23,3 C 87 % 1016,1 hPa 0,2 l/m 1,6 km/h (1 Bft) NW 319 0 min 0,000 mm 0,0 UV-I 0 W/m 13,2 C 15,4 C 4,8 km/h (1 Bft) 100,00 %
10.06.2017 02:36 15,3 C 23,3 C 88 % 1016,1 hPa 0,0 l/m 1,0 km/h (0 Bft) NW 319 0 min 0,000 mm 0,0 UV-I 0 W/m 13,3 C 15,3 C 3,2 km/h (1 Bft) 98,11 %
10.06.2017 02:38 15,3 C 23,3 C 89 % 1016,1 hPa 0,0 l/m 2,1 km/h (1 Bft) NW 319 0 min 0,000 mm 0,0 UV-I 0 W/m 13,5 C 15,3 C 4,8 km/h (1 Bft) 97,87 %
10.06.2017 02:40 15,2 C 23,3 C 89 % 1016,2 hPa 0,2 l/m 0,7 km/h (0 Bft) NW 319 0 min 0,000 mm 0,0 UV-I 0 W/m 13,4 C 15,2 C 3,2 km/h (1 Bft) 100,00 %
10.06.2017 02:42 15,2 C 23,3 C 90 % 1016,3 hPa 0,0 l/m 1,0 km/h (0 Bft) NW 319 0 min 0,000 mm 0,0 UV-I 0 W/m 13,6 C 15,2 C 4,8 km/h (1 Bft) 100,00 %
10.06.2017 02:44 15,1 C 23,3 C 90 % 1016,4 hPa 0,2 l/m 1,8 km/h (1 Bft) NW 316 0 min 0,000 mm 0,0 UV-I 0 W/m 13,5 C 15,1 C 3,2 km/h (1 Bft) 97,37 %
10.06.2017 02:46 15,1 C 23,3 C 91 % 1016,5 hPa 0,0 l/m 3,7 km/h (1 Bft) W 269 0 min 0,000 mm 0,0 UV-I 0 W/m 13,6 C 15,1 C 4,8 km/h (1 Bft) 98,11 %
10.06.2017 02:48 15,1 C 23,3 C 91 % 1016,5 hPa 0,0 l/m 3,0 km/h (1 Bft) W 269 0 min 0,000 mm 0,0 UV-I 0 W/m 13,6 C 15,1 C 4,8 km/h (1 Bft) 97,14 %
10.06.2017 02:50 15,1 C 23,3 C 91 % 1016,5 hPa 0,0 l/m 1,3 km/h (1 Bft) W 269 0 min 0,000 mm 0,0 UV-I 0 W/m 13,6 C 15,1 C 3,2 km/h (1 Bft) 98,11 %
10.06.2017 02:52 15,1 C 23,3 C 92 % 1016,5 hPa 0,2 l/m 0,6 km/h (0 Bft) W 269 0 min 0,000 mm 0,0 UV-I 0 W/m 13,8 C 15,1 C 3,2 km/h (1 Bft) 100,00 %
10.06.2017 02:54 15,1 C 23,3 C 92 % 1016,5 hPa 0,0 l/m 0,0 km/h (0 Bft) W 269 0 min 0,000 mm 0,0 UV-I 0 W/m 13,8 C 15,1 C 0,0 km/h (0 Bft) 96,00 %
10.06.2017 02:56 15,0 C 23,3 C 92 % 1016,5 hPa 0,0 l/m 1,8 km/h (1 Bft) W 269 0 min 0,000 mm 0,0 UV-I 0 W/m 13,7 C 15,0 C 4,8 km/h (1 Bft) 95,74 %
10.06.2017 02:58 15,1 C 23,3 C 92 % 1016,5 hPa 0,2 l/m 0,5 km/h (0 Bft) W 269 0 min 0,000 mm 0,0 UV-I 0 W/m 13,8 C 15,1 C 3,2 km/h (1 Bft) 100,00 %
10.06.2017 03:00 15,1 C 23,3 C 92 % 1016,6 hPa 0,0 l/m 0,6 km/h (0 Bft) W 269 0 min 0,000 mm 0,0 UV-I 0 W/m 13,8 C 15,1 C 1,6 km/h (1 Bft) 97,56 %
10.06.2017 03:02 15,1 C 23,3 C 92 % 1016,7 hPa 0,0 l/m 2,0 km/h (1 Bft) W 269 0 min 0,000 mm 0,0 UV-I 0 W/m 13,8 C 15,1 C 3,2 km/h (1 Bft) 100,00 %
10.06.2017 03:04 15,1 C 23,3 C 92 % 1016,8 hPa 0,0 l/m 3,1 km/h (1 Bft) W 269 0 min 0,000 mm 0,0 UV-I 0 W/m 13,8 C 15,1 C 4,8 km/h (1 Bft) 98,51 %
10.06.2017 03:06 15,1 C 23,3 C 92 % 1016,8 hPa 0,0 l/m 2,4 km/h (1 Bft) W 269 0 min 0,000 mm 0,0 UV-I 0 W/m 13,8 C 15,1 C 4,8 km/h (1 Bft) 98,11 %
10.06.2017 03:08 15,1 C 23,3 C 92 % 1016,8 hPa 0,2 l/m 0,9 km/h (0 Bft) W 269 0 min 0,000 mm 0,0 UV-I 0 W/m 13,8 C 15,1 C 3,2 km/h (1 Bft) 100,00 %
10.06.2017 03:10 15,1 C 23,3 C 92 % 1016,8 hPa 0,0 l/m 1,2 km/h (1 Bft) W 269 0 min 0,000 mm 0,0 UV-I 0 W/m 13,8 C 15,1 C 3,2 km/h (1 Bft) 92,11 %
10.06.2017 03:12 15,1 C 23,3 C 92 % 1016,8 hPa 0,0 l/m 0,4 km/h (0 Bft) W 269 0 min 0,000 mm 0,0 UV-I 0 W/m 13,8 C 15,1 C 1,6 km/h (1 Bft) 95,83 %
10.06.2017 03:14 15,1 C 23,3 C 92 % 1016,7 hPa 0,0 l/m 2,8 km/h (1 Bft) S-SW 211 0 min 0,000 mm 0,0 UV-I 0 W/m 13,8 C 15,1 C 4,8 km/h (1 Bft) 95,92 %
10.06.2017 03:16 15,1 C 23,3 C 93 % 1016,8 hPa 0,2 l/m 4,9 km/h (1 Bft) S-SO 162 0 min 0,000 mm 0,0 UV-I 0 W/m 14,0 C 15,1 C 6,4 km/h (2 Bft) 94,87 %
10.06.2017 03:18 15,1 C 23,3 C 93 % 1016,8 hPa 0,0 l/m 1,9 km/h (1 Bft) S-SO 162 0 min 0,000 mm 0,0 UV-I 0 W/m 14,0 C 15,1 C 6,4 km/h (2 Bft) 98,00 %
10.06.2017 03:20 15,1 C 23,3 C 93 % 1016,9 hPa 0,0 l/m 1,6 km/h (1 Bft) S-SO 162 0 min 0,000 mm 0,0 UV-I 0 W/m 14,0 C 15,1 C 3,2 km/h (1 Bft) 96,23 %
10.06.2017 03:22 15,1 C 23,3 C 93 % 1017,0 hPa 0,0 l/m 2,9 km/h (1 Bft) S-SO 163 0 min 0,000 mm 0,0 UV-I 0 W/m 14,0 C 15,1 C 6,4 km/h (2 Bft) 92,68 %
10.06.2017 03:24 15,1 C 23,3 C 93 % 1017,0 hPa 0,0 l/m 2,9 km/h (1 Bft) S-SO 163 0 min 0,000 mm 0,0 UV-I 0 W/m 14,0 C 15,1 C 6,4 km/h (2 Bft) 94,34 %
10.06.2017 03:26 15,1 C 23,3 C 93 % 1016,9 hPa 0,0 l/m 1,0 km/h (0 Bft) S-SO 163 0 min 0,000 mm 0,0 UV-I 0 W/m 14,0 C 15,1 C 3,2 km/h (1 Bft) 92,68 %
10.06.2017 03:28 15,1 C 23,3 C 93 % 1017,0 hPa 0,0 l/m 0,5 km/h (0 Bft) S-SO 163 0 min 0,000 mm 0,0 UV-I 0 W/m 14,0 C 15,1 C 3,2 km/h (1 Bft) 96,00 %
10.06.2017 03:30 15,0 C 23,3 C 93 % 1017,0 hPa 0,0 l/m 2,1 km/h (1 Bft) S-SO 163 0 min 0,000 mm 0,0 UV-I 0 W/m 13,9 C 15,0 C 3,2 km/h (1 Bft) 92,00 %
10.06.2017 03:32 15,1 C 23,3 C 93 % 1017,0 hPa 0,2 l/m 2,8 km/h (1 Bft) S-SW 199 0 min 0,000 mm 0,0 UV-I 0 W/m 14,0 C 15,1 C 4,8 km/h (1 Bft) 91,49 %
10.06.2017 03:34 15,1 C 23,3 C 93 % 1017,0 hPa 0,0 l/m 3,7 km/h (1 Bft) W-SW 248 0 min 0,000 mm 0,0 UV-I 0 W/m 14,0 C 15,1 C 4,8 km/h (1 Bft) 94,74 %
10.06.2017 03:36 15,1 C 23,3 C 94 % 1017,1 hPa 0,0 l/m 3,3 km/h (1 Bft) W-NW 294 0 min 0,000 mm 0,0 UV-I 0 W/m 14,1 C 15,1 C 4,8 km/h (1 Bft) 94,00 %
10.06.2017 03:38 15,1 C 23,3 C 94 % 1017,1 hPa 0,0 l/m 2,1 km/h (1 Bft) W-NW 294 0 min 0,000 mm 0,0 UV-I 0 W/m 14,1 C 15,1 C 3,2 km/h (1 Bft) 96,00 %
10.06.2017 03:40 15,1 C 23,3 C 94 % 1017,2 hPa 0,0 l/m 2,6 km/h (1 Bft) W-NW 292 0 min 0,000 mm 0,0 UV-I 0 W/m 14,1 C 15,1 C 4,8 km/h (1 Bft) 92,00 %
10.06.2017 03:42 15,1 C 23,3 C 94 % 1017,1 hPa 0,0 l/m 5,2 km/h (1 Bft) W-SW 256 0 min 0,000 mm 0,0 UV-I 0 W/m 14,1 C 15,1 C 9,7 km/h (2 Bft) 94,74 %
10.06.2017 03:44 15,0 C 23,3 C 94 % 1017,2 hPa 0,0 l/m 5,2 km/h (1 Bft) W 273 0 min 0,000 mm 0,0 UV-I 0 W/m 14,0 C 15,0 C 11,3 km/h (2 Bft) 94,00 %
10.06.2017 03:46 15,0 C 23,3 C 94 % 1017,2 hPa 0,0 l/m 5,4 km/h (1 Bft) W 268 0 min 0,000 mm 0,0 UV-I 0 W/m 14,0 C 15,0 C 11,3 km/h (2 Bft) 88,68 %
10.06.2017 03:48 15,0 C 23,3 C 94 % 1017,2 hPa 0,0 l/m 5,8 km/h (2 Bft) W-SW 256 0 min 0,000 mm 0,0 UV-I 0 W/m 14,0 C 15,0 C 11,3 km/h (2 Bft) 97,37 %
10.06.2017 03:50 14,9 C 23,3 C 94 % 1017,2 hPa 0,0 l/m 4,2 km/h (1 Bft) W-SW 251 0 min 0,000 mm 0,0 UV-I 0 W/m 13,9 C 14,9 C 6,4 km/h (2 Bft) 92,00 %
10.06.2017 03:52 15,0 C 23,3 C 94 % 1017,2 hPa 0,0 l/m 4,6 km/h (1 Bft) W 265 0 min 0,000 mm 0,0 UV-I 0 W/m 14,0 C 15,0 C 9,7 km/h (2 Bft) 96,23 %
10.06.2017 03:54 15,0 C 23,3 C 94 % 1017,2 hPa 0,2 l/m 4,9 km/h (1 Bft) W-SW 248 0 min 0,000 mm 0,0 UV-I 0 W/m 14,0 C 15,0 C 8,0 km/h (2 Bft) 92,86 %
10.06.2017 03:56 15,0 C 23,3 C 94 % 1017,2 hPa 0,0 l/m 5,5 km/h (1 Bft) W-SW 248 0 min 0,000 mm 0,0 UV-I 0 W/m 14,0 C 15,0 C 8,0 km/h (2 Bft) 95,74 %
10.06.2017 03:58 15,0 C 23,3 C 94 % 1017,2 hPa 0,0 l/m 5,3 km/h (1 Bft) W-SW 242 0 min 0,000 mm 0,0 UV-I 0 W/m 14,0 C 15,0 C 8,0 km/h (2 Bft) 98,08 %
10.06.2017 04:00 15,0 C 23,3 C 94 % 1017,3 hPa 0,0 l/m 5,3 km/h (1 Bft) W-SW 248 0 min 0,000 mm 0,0 UV-I 0 W/m 14,0 C 15,0 C 9,7 km/h (2 Bft) 94,87 %
10.06.2017 04:02 15,0 C 23,3 C 94 % 1017,3 hPa 0,0 l/m 5,8 km/h (2 Bft) W 261 0 min 0,000 mm 0,0 UV-I 0 W/m 14,0 C 15,0 C 9,7 km/h (2 Bft) 100,00 %
10.06.2017 04:04 15,1 C 23,3 C 94 % 1017,3 hPa 0,0 l/m 5,5 km/h (1 Bft) W 261 0 min 0,000 mm 0,0 UV-I 0 W/m 14,1 C 15,1 C 8,0 km/h (2 Bft) 97,56 %
10.06.2017 04:06 15,1 C 23,3 C 94 % 1017,4 hPa 0,0 l/m 6,4 km/h (2 Bft) W-SW 257 0 min 0,000 mm 0,0 UV-I 0 W/m 14,1 C 15,1 C 11,3 km/h (2 Bft) 96,23 %
10.06.2017 04:08 15,0 C 23,3 C 94 % 1017,5 hPa 0,0 l/m 7,5 km/h (2 Bft) W-SW 257 0 min 0,000 mm 0,0 UV-I 0 W/m 14,0 C 14,4 C 12,9 km/h (3 Bft) 96,00 %
10.06.2017 04:10 15,0 C 23,3 C 94 % 1017,5 hPa 0,0 l/m 6,3 km/h (2 Bft) W 263 0 min 0,000 mm 0,0 UV-I 0 W/m 14,0 C 15,0 C 9,7 km/h (2 Bft) 95,12 %
10.06.2017 04:12 15,0 C 23,3 C 94 % 1017,5 hPa 0,0 l/m 7,8 km/h (2 Bft) W 273 0 min 0,000 mm 0,0 UV-I 0 W/m 14,0 C 14,2 C 12,9 km/h (3 Bft) 97,87 %
10.06.2017 04:14 14,9 C 23,3 C 94 % 1017,4 hPa 0,0 l/m 8,4 km/h (2 Bft) W-NW 287 0 min 0,000 mm 0,0 UV-I 0 W/m 13,9 C 13,8 C 19,3 km/h (3 Bft) 96,00 %
10.06.2017 04:16 14,8 C 23,3 C 94 % 1017,5 hPa 0,0 l/m 7,6 km/h (2 Bft) W 260 0 min 0,000 mm 0,0 UV-I 0 W/m 13,8 C 14,1 C 12,9 km/h (3 Bft) 98,11 %
10.06.2017 04:18 14,8 C 23,3 C 94 % 1017,6 hPa 0,2 l/m 5,9 km/h (2 Bft) W 265 0 min 0,000 mm 0,0 UV-I 0 W/m 13,8 C 14,8 C 11,3 km/h (2 Bft) 100,00 %
10.06.2017 04:20 14,8 C 23,3 C 94 % 1017,6 hPa 0,0 l/m 6,4 km/h (2 Bft) W-NW 286 0 min 0,000 mm 0,0 UV-I 0 W/m 13,8 C 14,8 C 12,9 km/h (3 Bft) 96,30 %
10.06.2017 04:22 14,7 C 23,3 C 93 % 1017,4 hPa 0,0 l/m 2,0 km/h (1 Bft) W 278 0 min 0,000 mm 0,0 UV-I 0 W/m 13,6 C 14,7 C 4,8 km/h (1 Bft) 98,57 %
10.06.2017 04:24 14,7 C 23,3 C 93 % 1017,2 hPa 0,0 l/m 1,3 km/h (1 Bft) W 279 0 min 0,000 mm 0,0 UV-I 0 W/m 13,6 C 14,7 C 4,8 km/h (1 Bft) 100,00 %
10.06.2017 04:26 14,7 C 23,3 C 93 % 1017,1 hPa 0,0 l/m 0,0 km/h (0 Bft) W 279 0 min 0,000 mm 0,0 UV-I 0 W/m 13,6 C 14,7 C 0,0 km/h (0 Bft) 94,00 %
10.06.2017 04:28 14,7 C 23,3 C 93 % 1017,1 hPa 0,0 l/m 0,1 km/h (0 Bft) W 279 0 min 0,000 mm 0,0 UV-I 0 W/m 13,6 C 14,7 C 1,6 km/h (1 Bft) 100,00 %
10.06.2017 04:30 14,6 C 23,3 C 94 % 1017,1 hPa 0,0 l/m 0,0 km/h (0 Bft) W 279 0 min 0,000 mm 0,0 UV-I 0 W/m 13,6 C 14,6 C 0,0 km/h (0 Bft) 98,39 %
10.06.2017 04:32 14,6 C 23,3 C 94 % 1017,1 hPa 0,2 l/m 0,0 km/h (0 Bft) W 279 0 min 0,000 mm 0,0 UV-I 0 W/m 13,6 C 14,6 C 0,0 km/h (0 Bft) 100,00 %
10.06.2017 04:34 14,7 C 23,3 C 94 % 1017,2 hPa 0,0 l/m 0,8 km/h (0 Bft) W 279 0 min 0,000 mm 0,0 UV-I 0 W/m 13,7 C 14,7 C 3,2 km/h (1 Bft) 95,24 %
10.06.2017 04:36 14,7 C 23,3 C 94 % 1017,1 hPa 0,0 l/m 0,0 km/h (0 Bft) W 279 0 min 0,000 mm 0,0 UV-I 0 W/m 13,7 C 14,7 C 0,0 km/h (0 Bft) 98,00 %
10.06.2017 04:38 14,7 C 23,3 C 94 % 1017,0 hPa 0,0 l/m 1,4 km/h (1 Bft) W 279 0 min 0,000 mm 0,0 UV-I 0 W/m 13,7 C 14,7 C 4,8 km/h (1 Bft) 98,00 %
10.06.2017 04:40 14,7 C 23,3 C 94 % 1017,0 hPa 0,0 l/m 0,9 km/h (0 Bft) S 178 0 min 0,000 mm 0,0 UV-I 0 W/m 13,7 C 14,7 C 3,2 km/h (1 Bft) 97,87 %
10.06.2017 04:42 14,7 C 23,3 C 94 % 1017,1 hPa 0,0 l/m 4,2 km/h (1 Bft) S-SW 210 0 min 0,000 mm 0,0 UV-I 0 W/m 13,7 C 14,7 C 6,4 km/h (2 Bft) 100,00 %
10.06.2017 04:44 14,7 C 23,3 C 94 % 1017,0 hPa 0,0 l/m 2,7 km/h (1 Bft) S-SW 196 0 min 0,000 mm 0,0 UV-I 0 W/m 13,7 C 14,7 C 6,4 km/h (2 Bft) 97,87 %
10.06.2017 04:46 14,7 C 23,3 C 94 % 1017,1 hPa 0,0 l/m 3,9 km/h (1 Bft) S 190 0 min 0,000 mm 0,0 UV-I 0 W/m 13,7 C 14,7 C 11,3 km/h (2 Bft) 96,00 %
10.06.2017 04:48 14,7 C 23,3 C 94 % 1017,0 hPa 0,0 l/m 2,2 km/h (1 Bft) S 175 0 min 0,000 mm 0,0 UV-I 0 W/m 13,7 C 14,7 C 8,0 km/h (2 Bft) 97,87 %
10.06.2017 04:50 14,7 C 23,3 C 94 % 1017,0 hPa 0,0 l/m 2,5 km/h (1 Bft) S-SW 202 0 min 0,000 mm 0,0 UV-I 0 W/m 13,7 C 14,7 C 6,4 km/h (2 Bft) 100,00 %
10.06.2017 04:52 14,7 C 23,3 C 94 % 1016,9 hPa 0,0 l/m 2,4 km/h (1 Bft) SW 216 0 min 0,000 mm 0,0 UV-I 0 W/m 13,7 C 14,7 C 4,8 km/h (1 Bft) 98,11 %
10.06.2017 04:54 14,7 C 23,3 C 94 % 1017,0 hPa 0,0 l/m 2,4 km/h (1 Bft) SW 216 0 min 0,000 mm 0,0 UV-I 0 W/m 13,7 C 14,7 C 4,8 km/h (1 Bft) 100,00 %
10.06.2017 04:56 14,7 C 23,3 C 94 % 1017,0 hPa 0,0 l/m 3,6 km/h (1 Bft) S 181 0 min 0,000 mm 0,0 UV-I 0 W/m 13,7 C 14,7 C 6,4 km/h (2 Bft) 97,87 %
10.06.2017 04:58 14,7 C 23,3 C 94 % 1017,0 hPa 0,2 l/m 1,5 km/h (1 Bft) S 181 0 min 0,000 mm 0,0 UV-I 0 W/m 13,7 C 14,7 C 3,2 km/h (1 Bft) 100,00 %
10.06.2017 05:00 14,7 C 23,3 C 94 % 1016,9 hPa 0,0 l/m 1,0 km/h (0 Bft) S 181 0 min 0,000 mm 0,0 UV-I 0 W/m 13,7 C 14,7 C 3,2 km/h (1 Bft) 97,01 %
10.06.2017 05:02 14,7 C 23,3 C 94 % 1016,8 hPa 0,0 l/m 0,9 km/h (0 Bft) S 181 0 min 0,000 mm 0,0 UV-I 0 W/m 13,7 C 14,7 C 3,2 km/h (1 Bft) 100,00 %
10.06.2017 05:04 14,7 C 23,3 C 94 % 1016,8 hPa 0,0 l/m 1,6 km/h (1 Bft) S 181 0 min 0,000 mm 0,0 UV-I 0 W/m 13,7 C 14,7 C 4,8 km/h (1 Bft) 100,00 %
10.06.2017 05:06 14,7 C 23,3 C 94 % 1016,7 hPa 0,0 l/m 1,8 km/h (1 Bft) S 180 0 min 0,000 mm 0,0 UV-I 0 W/m 13,7 C 14,7 C 4,8 km/h (1 Bft) 93,02 %
10.06.2017 05:08 14,6 C 23,3 C 94 % 1016,7 hPa 0,0 l/m 1,2 km/h (1 Bft) S 179 0 min 0,000 mm 0,0 UV-I 0 W/m 13,6 C 14,6 C 3,2 km/h (1 Bft) 98,00 %
10.06.2017 05:10 14,7 C 23,3 C 94 % 1016,8 hPa 0,0 l/m 1,1 km/h (1 Bft) S 180 0 min 0,000 mm 0,0 UV-I 0 W/m 13,7 C 14,7 C 4,8 km/h (1 Bft) 100,00 %
10.06.2017 05:12 14,7 C 23,3 C 94 % 1016,8 hPa 0,0 l/m 0,8 km/h (0 Bft) S 180 0 min 0,000 mm 0,0 UV-I 2 W/m 13,7 C 14,7 C 3,2 km/h (1 Bft) 98,57 %
10.06.2017 05:14 14,7 C 23,3 C 94 % 1016,9 hPa 0,0 l/m 1,2 km/h (1 Bft) S 180 0 min 0,000 mm 0,0 UV-I 5 W/m 13,7 C 14,7 C 4,8 km/h (1 Bft) 97,22 %
10.06.2017 05:16 14,7 C 23,3 C 94 % 1017,0 hPa 0,0 l/m 3,3 km/h (1 Bft) S-SW 208 0 min 0,000 mm 0,0 UV-I 5 W/m 13,7 C 14,7 C 4,8 km/h (1 Bft) 96,43 %
10.06.2017 05:18 14,6 C 23,3 C 94 % 1017,1 hPa 0,0 l/m 3,2 km/h (1 Bft) SW 227 0 min 0,000 mm 0,0 UV-I 5 W/m 13,6 C 14,6 C 4,8 km/h (1 Bft) 100,00 %
10.06.2017 05:20 14,7 C 23,3 C 94 % 1017,1 hPa 0,2 l/m 4,2 km/h (1 Bft) N-NW 329 0 min 0,000 mm 0,0 UV-I 5 W/m 13,7 C 14,7 C 6,4 km/h (2 Bft) 98,04 %
10.06.2017 05:22 14,7 C 23,3 C 95 % 1016,9 hPa 0,0 l/m 1,7 km/h (1 Bft) S 178 0 min 0,000 mm 0,0 UV-I 7 W/m 13,9 C 14,7 C 4,8 km/h (1 Bft) 100,00 %
10.06.2017 05:24 14,6 C 23,3 C 95 % 1016,8 hPa 0,0 l/m 0,7 km/h (0 Bft) S 178 0 min 0,000 mm 0,0 UV-I 7 W/m 13,8 C 14,6 C 3,2 km/h (1 Bft) 96,00 %
10.06.2017 05:26 14,6 C 23,3 C 95 % 1016,9 hPa 0,0 l/m 1,6 km/h (1 Bft) S 178 0 min 0,000 mm 0,0 UV-I 9 W/m 13,8 C 14,6 C 3,2 km/h (1 Bft) 97,14 %
10.06.2017 05:28 14,6 C 23,3 C 95 % 1016,9 hPa 0,0 l/m 2,0 km/h (1 Bft) S 178 0 min 0,000 mm 0,0 UV-I 9 W/m 13,8 C 14,6 C 4,8 km/h (1 Bft) 96,23 %
10.06.2017 05:30 14,6 C 23,3 C 95 % 1016,9 hPa 0,0 l/m 4,1 km/h (1 Bft) SW 229 0 min 0,000 mm 0,0 UV-I 9 W/m 13,8 C 14,6 C 8,0 km/h (2 Bft) 95,45 %
10.06.2017 05:32 14,6 C 23,3 C 95 % 1017,0 hPa 0,0 l/m 4,0 km/h (1 Bft) S-SW 196 0 min 0,000 mm 0,0 UV-I 9 W/m 13,8 C 14,6 C 6,4 km/h (2 Bft) 91,49 %
10.06.2017 05:34 14,6 C 23,3 C 95 % 1017,0 hPa 0,0 l/m 2,8 km/h (1 Bft) S-SW 196 0 min 0,000 mm 0,0 UV-I 11 W/m 13,8 C 14,6 C 4,8 km/h (1 Bft) 96,23 %
10.06.2017 05:36 14,6 C 23,3 C 95 % 1017,0 hPa 0,0 l/m 4,7 km/h (1 Bft) SW 217 0 min 0,000 mm 0,0 UV-I 11 W/m 13,8 C 14,6 C 6,4 km/h (2 Bft) 97,87 %
10.06.2017 05:38 14,6 C 23,3 C 95 % 1017,0 hPa 0,0 l/m 3,3 km/h (1 Bft) SW 217 0 min 0,000 mm 0,0 UV-I 11 W/m 13,8 C 14,6 C 4,8 km/h (1 Bft) 95,12 %
10.06.2017 05:40 14,6 C 23,3 C 95 % 1017,1 hPa 0,0 l/m 2,1 km/h (1 Bft) SW 217 0 min 0,000 mm 0,0 UV-I 11 W/m 13,8 C 14,6 C 3,2 km/h (1 Bft) 98,00 %
10.06.2017 05:42 14,6 C 23,3 C 95 % 1017,1 hPa 0,0 l/m 2,8 km/h (1 Bft) W-SW 257 0 min 0,000 mm 0,0 UV-I 12 W/m 13,8 C 14,6 C 4,8 km/h (1 Bft) 96,00 %
10.06.2017 05:44 14,6 C 23,3 C 95 % 1017,1 hPa 0,0 l/m 2,2 km/h (1 Bft) W 273 0 min 0,000 mm 0,0 UV-I 15 W/m 13,8 C 14,6 C 3,2 km/h (1 Bft) 97,14 %
10.06.2017 05:46 14,6 C 23,3 C 95 % 1017,2 hPa 0,0 l/m 2,5 km/h (1 Bft) W 273 0 min 0,000 mm 0,0 UV-I 16 W/m 13,8 C 14,6 C 4,8 km/h (1 Bft) 93,22 %
10.06.2017 05:48 14,6 C 23,3 C 95 % 1017,1 hPa 0,0 l/m 0,9 km/h (0 Bft) W 273 0 min 0,000 mm 0,0 UV-I 18 W/m 13,8 C 14,6 C 3,2 km/h (1 Bft) 94,44 %
10.06.2017 05:50 14,6 C 23,3 C 95 % 1017,2 hPa 0,0 l/m 2,7 km/h (1 Bft) W 273 0 min 0,000 mm 0,0 UV-I 19 W/m 13,8 C 14,6 C 4,8 km/h (1 Bft) 94,23 %
10.06.2017 05:52 14,6 C 23,3 C 95 % 1017,2 hPa 0,0 l/m 3,1 km/h (1 Bft) W 267 0 min 0,000 mm 0,0 UV-I 19 W/m 13,8 C 14,6 C 4,8 km/h (1 Bft) 98,00 %
10.06.2017 05:54 14,7 C 23,3 C 95 % 1017,2 hPa 0,0 l/m 0,2 km/h (0 Bft) W 267 0 min 0,000 mm 0,0 UV-I 20 W/m 13,9 C 14,7 C 1,6 km/h (1 Bft) 94,44 %
10.06.2017 05:56 14,7 C 23,3 C 95 % 1017,2 hPa 0,0 l/m 0,0 km/h (0 Bft) W 267 0 min 0,000 mm 0,0 UV-I 22 W/m 13,9 C 14,7 C 0,0 km/h (0 Bft) 98,36 %
10.06.2017 05:58 14,6 C 23,3 C 95 % 1017,2 hPa 0,0 l/m 0,0 km/h (0 Bft) W 267 0 min 0,000 mm 0,0 UV-I 23 W/m 13,8 C 14,6 C 0,0 km/h (0 Bft) 94,87 %
10.06.2017 06:00 14,7 C 23,3 C 95 % 1017,3 hPa 0,0 l/m 1,8 km/h (1 Bft) W 267 0 min 0,000 mm 0,0 UV-I 23 W/m 13,9 C 14,7 C 4,8 km/h (1 Bft) 100,00 %
10.06.2017 06:03 14,7 C 23,3 C 95 % 1017,3 hPa 0,0 l/m 0,2 km/h (0 Bft) W 267 0 min 0,000 mm 0,0 UV-I 25 W/m 13,9 C 14,7 C 1,6 km/h (1 Bft) 98,44 %
10.06.2017 06:04 14,7 C 23,3 C 95 % 1017,3 hPa 0,0 l/m 1,0 km/h (0 Bft) W 267 0 min 0,000 mm 0,0 UV-I 23 W/m 13,9 C 14,7 C 3,2 km/h (1 Bft) 100,00 %
10.06.2017 06:06 14,7 C 23,3 C 95 % 1017,3 hPa 0,0 l/m 2,3 km/h (1 Bft) W 267 0 min 0,000 mm 0,0 UV-I 21 W/m 13,9 C 14,7 C 4,8 km/h (1 Bft) 100,00 %
10.06.2017 06:08 14,7 C 23,3 C 95 % 1017,4 hPa 0,0 l/m 2,6 km/h (1 Bft) W 267 0 min 0,000 mm 0,0 UV-I 25 W/m 13,9 C 14,7 C 4,8 km/h (1 Bft) 100,00 %
10.06.2017 06:10 14,8 C 23,3 C 95 % 1017,4 hPa 0,2 l/m 1,9 km/h (1 Bft) W 267 0 min 0,000 mm 0,0 UV-I 29 W/m 14,0 C 14,8 C 3,2 km/h (1 Bft) 97,37 %
10.06.2017 06:12 14,8 C 23,3 C 95 % 1017,4 hPa 0,0 l/m 1,9 km/h (1 Bft) W 267 0 min 0,000 mm 0,0 UV-I 34 W/m 14,0 C 14,8 C 3,2 km/h (1 Bft) 95,83 %
10.06.2017 06:14 14,8 C 23,3 C 95 % 1017,5 hPa 0,0 l/m 3,3 km/h (1 Bft) W 267 0 min 0,000 mm 0,0 UV-I 37 W/m 14,0 C 14,8 C 4,8 km/h (1 Bft) 96,43 %
10.06.2017 06:16 14,8 C 23,3 C 95 % 1017,5 hPa 0,0 l/m 5,4 km/h (1 Bft) W-NW 290 0 min 0,000 mm 0,0 UV-I 42 W/m 14,0 C 14,8 C 9,7 km/h (2 Bft) 97,73 %
10.06.2017 06:18 14,8 C 23,3 C 95 % 1017,6 hPa 0,0 l/m 2,2 km/h (1 Bft) W-NW 292 0 min 0,000 mm 0,0 UV-I 47 W/m 14,0 C 14,8 C 3,2 km/h (1 Bft) 100,00 %
10.06.2017 06:20 14,8 C 23,3 C 95 % 1017,6 hPa 0,0 l/m 3,9 km/h (1 Bft) W 259 0 min 0,000 mm 0,0 UV-I 47 W/m 14,0 C 14,8 C 6,4 km/h (2 Bft) 95,45 %
10.06.2017 06:22 14,8 C 23,3 C 95 % 1017,6 hPa 0,0 l/m 3,7 km/h (1 Bft) W 259 0 min 0,000 mm 0,0 UV-I 44 W/m 14,0 C 14,8 C 6,4 km/h (2 Bft) 100,00 %
10.06.2017 06:24 14,8 C 23,3 C 95 % 1017,6 hPa 0,0 l/m 3,6 km/h (1 Bft) W-SW 251 0 min 0,000 mm 0,0 UV-I 40 W/m 14,0 C 14,8 C 6,4 km/h (2 Bft) 98,00 %
10.06.2017 06:26 14,8 C 23,3 C 95 % 1017,6 hPa 0,0 l/m 3,6 km/h (1 Bft) W-SW 252 0 min 0,000 mm 0,0 UV-I 39 W/m 14,0 C 14,8 C 6,4 km/h (2 Bft) 97,37 %
10.06.2017 06:28 14,8 C 23,3 C 95 % 1017,6 hPa 0,0 l/m 4,5 km/h (1 Bft) W-SW 244 0 min 0,000 mm 0,0 UV-I 36 W/m 14,0 C 14,8 C 9,7 km/h (2 Bft) 100,00 %
10.06.2017 06:30 14,8 C 23,3 C 95 % 1017,7 hPa 0,0 l/m 5,2 km/h (1 Bft) W-NW 287 0 min 0,000 mm 0,0 UV-I 36 W/m 14,0 C 14,8 C 8,0 km/h (2 Bft) 97,62 %
10.06.2017 06:32 14,8 C 23,3 C 95 % 1017,8 hPa 0,0 l/m 4,7 km/h (1 Bft) W 267 0 min 0,000 mm 0,0 UV-I 35 W/m 14,0 C 14,8 C 9,7 km/h (2 Bft) 100,00 %
10.06.2017 06:34 14,8 C 23,3 C 95 % 1017,8 hPa 0,0 l/m 5,6 km/h (1 Bft) W-SW 258 0 min 0,000 mm 0,0 UV-I 34 W/m 14,0 C 14,8 C 9,7 km/h (2 Bft) 97,56 %
10.06.2017 06:36 14,8 C 23,3 C 95 % 1017,8 hPa 0,0 l/m 9,1 km/h (2 Bft) W-SW 250 0 min 0,000 mm 0,0 UV-I 33 W/m 14,0 C 13,3 C 12,9 km/h (3 Bft) 100,00 %
10.06.2017 06:38 14,7 C 23,3 C 95 % 1017,8 hPa 0,0 l/m 5,9 km/h (2 Bft) W-SW 248 0 min 0,000 mm 0,0 UV-I 34 W/m 13,9 C 14,7 C 8,0 km/h (2 Bft) 97,87 %
10.06.2017 06:40 14,7 C 23,3 C 95 % 1017,9 hPa 0,0 l/m 9,2 km/h (2 Bft) W-SW 243 0 min 0,000 mm 0,0 UV-I 38 W/m 13,9 C 13,2 C 14,5 km/h (3 Bft) 98,00 %
10.06.2017 06:42 14,7 C 23,3 C 95 % 1017,9 hPa 0,0 l/m 10,2 km/h (2 Bft) W 259 0 min 0,000 mm 0,0 UV-I 47 W/m 13,9 C 12,7 C 14,5 km/h (3 Bft) 97,73 %
10.06.2017 06:44 14,7 C 23,3 C 95 % 1017,9 hPa 0,0 l/m 9,6 km/h (2 Bft) W-SW 241 0 min 0,000 mm 0,0 UV-I 55 W/m 13,9 C 13,0 C 19,3 km/h (3 Bft) 98,21 %
10.06.2017 06:46 14,7 C 23,3 C 95 % 1018,0 hPa 0,0 l/m 9,8 km/h (2 Bft) W-SW 253 2 min 0,000 mm 0,0 UV-I 150 W/m 13,9 C 12,9 C 16,1 km/h (3 Bft) 100,00 %
10.06.2017 06:48 14,7 C 23,3 C 95 % 1018,0 hPa 0,0 l/m 7,8 km/h (2 Bft) W-SW 246 2 min 0,000 mm 0,0 UV-I 145 W/m 13,9 C 13,9 C 12,9 km/h (3 Bft) 100,00 %
10.06.2017 06:50 14,7 C 23,3 C 95 % 1018,1 hPa 0,0 l/m 6,4 km/h (2 Bft) W 273 2 min 0,000 mm 0,0 UV-I 170 W/m 13,9 C 14,7 C 11,3 km/h (2 Bft) 98,11 %
10.06.2017 06:52 14,8 C 23,3 C 95 % 1018,1 hPa 0,0 l/m 5,7 km/h (1 Bft) W-SW 257 2 min 0,000 mm 0,0 UV-I 199 W/m 14,0 C 14,8 C 11,3 km/h (2 Bft) 98,00 %
10.06.2017 06:54 14,8 C 23,3 C 95 % 1018,0 hPa 0,0 l/m 6,4 km/h (2 Bft) W 260 2 min 0,000 mm 0,0 UV-I 213 W/m 14,0 C 14,8 C 11,3 km/h (2 Bft) 97,50 %
10.06.2017 06:56 14,9 C 23,3 C 95 % 1018,1 hPa 0,0 l/m 7,4 km/h (2 Bft) W-SW 238 2 min 0,000 mm 0,0 UV-I 225 W/m 14,1 C 14,3 C 11,3 km/h (2 Bft) 94,64 %
10.06.2017 06:58 15,1 C 22,2 C 95 % 1018,1 hPa 0,2 l/m 6,2 km/h (2 Bft) W-SW 258 2 min 0,000 mm 0,0 UV-I 252 W/m 14,3 C 15,1 C 11,3 km/h (2 Bft) 97,87 %
10.06.2017 07:00 15,2 C 22,2 C 95 % 1018,1 hPa 0,0 l/m 5,3 km/h (1 Bft) SW 232 2 min 0,051 mm 0,0 UV-I 290 W/m 14,4 C 15,2 C 9,7 km/h (2 Bft) 95,12 %
10.06.2017 07:02 15,3 C 22,2 C 95 % 1018,2 hPa 0,0 l/m 6,9 km/h (2 Bft) W-SW 258 2 min 0,000 mm 0,0 UV-I 329 W/m 14,5 C 15,0 C 12,9 km/h (3 Bft) 96,23 %
10.06.2017 07:04 15,3 C 22,2 C 95 % 1018,2 hPa 0,0 l/m 7,9 km/h (2 Bft) W-NW 294 2 min 0,000 mm 0,0 UV-I 362 W/m 14,5 C 14,5 C 14,5 km/h (3 Bft) 100,00 %
10.06.2017 07:06 15,4 C 22,2 C 95 % 1018,2 hPa 0,0 l/m 5,3 km/h (1 Bft) W 281 2 min 0,000 mm 0,0 UV-I 371 W/m 14,6 C 15,4 C 11,3 km/h (2 Bft) 94,44 %
10.06.2017 07:08 15,6 C 22,2 C 95 % 1018,2 hPa 0,0 l/m 1,9 km/h (1 Bft) W 265 2 min 0,000 mm 0,0 UV-I 366 W/m 14,8 C 15,6 C 4,8 km/h (1 Bft) 98,44 %
10.06.2017 07:10 15,7 C 22,2 C 95 % 1018,2 hPa 0,0 l/m 5,4 km/h (1 Bft) W-NW 292 2 min 0,000 mm 0,0 UV-I 386 W/m 14,9 C 15,7 C 11,3 km/h (2 Bft) 96,08 %
10.06.2017 07:12 15,7 C 22,2 C 94 % 1018,3 hPa 0,0 l/m 7,2 km/h (2 Bft) W 264 2 min 0,000 mm 0,0 UV-I 375 W/m 14,7 C 15,3 C 12,9 km/h (3 Bft) 97,56 %
10.06.2017 07:14 15,7 C 22,2 C 94 % 1018,2 hPa 0,0 l/m 6,4 km/h (2 Bft) W-NW 293 2 min 0,000 mm 0,0 UV-I 239 W/m 14,7 C 15,7 C 11,3 km/h (2 Bft) 94,74 %
10.06.2017 07:16 15,7 C 22,2 C 93 % 1018,1 hPa 0,0 l/m 8,1 km/h (2 Bft) W-SW 252 2 min 0,000 mm 0,0 UV-I 314 W/m 14,6 C 14,8 C 12,9 km/h (3 Bft) 96,43 %
10.06.2017 07:18 15,6 C 21,7 C 92 % 1018,2 hPa 0,0 l/m 7,9 km/h (2 Bft) W 274 2 min 0,000 mm 0,0 UV-I 259 W/m 14,3 C 14,8 C 12,9 km/h (3 Bft) 97,56 %
10.06.2017 07:20 15,5 C 21,7 C 92 % 1018,2 hPa 0,0 l/m 5,8 km/h (2 Bft) W-NW 296 0 min 0,000 mm 0,0 UV-I 95 W/m 14,2 C 15,5 C 11,3 km/h (2 Bft) 92,45 %
10.06.2017 07:22 15,4 C 21,7 C 91 % 1018,3 hPa 0,0 l/m 7,7 km/h (2 Bft) W-SW 258 0 min 0,000 mm 0,0 UV-I 82 W/m 13,9 C 14,7 C 16,1 km/h (3 Bft) 96,00 %
10.06.2017 07:24 15,3 C 21,7 C 92 % 1018,3 hPa 0,0 l/m 4,3 km/h (1 Bft) W-SW 254 0 min 0,000 mm 0,0 UV-I 66 W/m 14,0 C 15,3 C 8,0 km/h (2 Bft) 93,62 %
10.06.2017 07:26 15,1 C 22,2 C 91 % 1018,4 hPa 0,0 l/m 5,5 km/h (1 Bft) S-SW 209 0 min 0,000 mm 0,1 UV-I 64 W/m 13,6 C 15,1 C 9,7 km/h (2 Bft) 94,29 %
10.06.2017 07:28 15,0 C 22,2 C 92 % 1018,5 hPa 0,0 l/m 2,8 km/h (1 Bft) NW 312 0 min 0,000 mm 0,6 UV-I 102 W/m 13,7 C 15,0 C 4,8 km/h (1 Bft) 94,34 %
10.06.2017 07:30 15,0 C 22,2 C 92 % 1018,5 hPa 0,0 l/m 3,9 km/h (1 Bft) W 272 2 min 0,000 mm 0,6 UV-I 283 W/m 13,7 C 15,0 C 11,3 km/h (2 Bft) 90,57 %
10.06.2017 07:32 15,0 C 22,2 C 92 % 1018,5 hPa 0,0 l/m 2,8 km/h (1 Bft) W-NW 301 0 min 0,000 mm 0,6 UV-I 184 W/m 13,7 C 15,0 C 6,4 km/h (2 Bft) 95,74 %
10.06.2017 07:34 15,0 C 22,2 C 92 % 1018,5 hPa 0,0 l/m 5,8 km/h (2 Bft) W 269 0 min 0,000 mm 0,6 UV-I 136 W/m 13,7 C 15,0 C 11,3 km/h (2 Bft) 92,68 %
10.06.2017 07:36 15,1 C 22,2 C 92 % 1018,5 hPa 0,0 l/m 4,4 km/h (1 Bft) W-SW 246 2 min 0,000 mm 0,7 UV-I 330 W/m 13,8 C 15,1 C 9,7 km/h (2 Bft) 94,34 %
10.06.2017 07:38 15,2 C 22,2 C 91 % 1018,6 hPa 0,0 l/m 4,6 km/h (1 Bft) W 263 2 min 0,000 mm 0,7 UV-I 345 W/m 13,7 C 15,2 C 8,0 km/h (2 Bft) 91,43 %
10.06.2017 07:40 15,3 C 22,2 C 92 % 1018,6 hPa 0,0 l/m 4,0 km/h (1 Bft) W-NW 283 2 min 0,000 mm 0,7 UV-I 350 W/m 14,0 C 15,3 C 6,4 km/h (2 Bft) 94,64 %
10.06.2017 07:42 15,4 C 22,2 C 91 % 1018,7 hPa 0,0 l/m 6,7 km/h (2 Bft) W-SW 248 2 min 0,000 mm 0,7 UV-I 357 W/m 13,9 C 15,2 C 12,9 km/h (3 Bft) 94,00 %
10.06.2017 07:44 15,5 C 22,2 C 91 % 1018,6 hPa 0,0 l/m 8,4 km/h (2 Bft) W-SW 243 2 min 0,000 mm 0,8 UV-I 391 W/m 14,0 C 14,4 C 14,5 km/h (3 Bft) 95,12 %
10.06.2017 07:46 15,7 C 22,2 C 91 % 1018,5 hPa 0,0 l/m 6,0 km/h (2 Bft) N-NW 344 2 min 0,000 mm 0,8 UV-I 382 W/m 14,2 C 15,7 C 14,5 km/h (3 Bft) 97,62 %
10.06.2017 07:48 15,7 C 22,8 C 89 % 1018,6 hPa 0,0 l/m 8,9 km/h (2 Bft) W 269 2 min 0,000 mm 0,9 UV-I 396 W/m 13,9 C 14,4 C 16,1 km/h (3 Bft) 98,00 %
10.06.2017 07:50 15,8 C 23,3 C 89 % 1018,6 hPa 0,0 l/m 4,9 km/h (1 Bft) W-NW 292 2 min 0,000 mm 0,9 UV-I 411 W/m 14,0 C 15,8 C 9,7 km/h (2 Bft) 93,62 %
10.06.2017 07:52 15,8 C 22,8 C 88 % 1018,6 hPa 0,0 l/m 6,8 km/h (2 Bft) W 265 2 min 0,000 mm 0,8 UV-I 383 W/m 13,8 C 15,6 C 16,1 km/h (3 Bft) 100,00 %
10.06.2017 07:54 15,7 C 22,8 C 89 % 1018,6 hPa 0,0 l/m 6,4 km/h (2 Bft) NW 319 2 min 0,000 mm 0,8 UV-I 249 W/m 13,9 C 15,7 C 14,5 km/h (3 Bft) 98,15 %
10.06.2017 07:56 15,8 C 22,8 C 89 % 1018,7 hPa 0,0 l/m 5,7 km/h (1 Bft) NW 317 2 min 0,000 mm 0,9 UV-I 473 W/m 14,0 C 15,8 C 12,9 km/h (3 Bft) 98,11 %
10.06.2017 07:58 15,8 C 22,8 C 89 % 1018,8 hPa 0,0 l/m 5,0 km/h (1 Bft) W-NW 296 2 min 0,000 mm 1,0 UV-I 460 W/m 14,0 C 15,8 C 11,3 km/h (2 Bft) 97,73 %
10.06.2017 08:00 15,9 C 22,8 C 87 % 1018,7 hPa 0,0 l/m 6,4 km/h (2 Bft) S-SW 192 2 min 0,152 mm 0,9 UV-I 426 W/m 13,7 C 15,9 C 11,3 km/h (2 Bft) 97,56 %
10.06.2017 08:02 15,8 C 22,8 C 87 % 1018,7 hPa 0,0 l/m 3,0 km/h (1 Bft) W 260 2 min 0,000 mm 1,0 UV-I 420 W/m 13,6 C 15,8 C 8,0 km/h (2 Bft) 100,00 %
10.06.2017 08:04 15,8 C 22,8 C 87 % 1018,8 hPa 0,0 l/m 4,3 km/h (1 Bft) W 263 2 min 0,000 mm 1,1 UV-I 426 W/m 13,6 C 15,8 C 11,3 km/h (2 Bft) 94,29 %
10.06.2017 08:06 15,9 C 23,3 C 87 % 1018,8 hPa 0,0 l/m 5,3 km/h (1 Bft) W-NW 284 2 min 0,000 mm 1,1 UV-I 448 W/m 13,7 C 15,9 C 16,1 km/h (3 Bft) 96,23 %
10.06.2017 08:08 15,9 C 22,8 C 87 % 1018,8 hPa 0,0 l/m 3,2 km/h (1 Bft) SW 231 2 min 0,000 mm 1,2 UV-I 456 W/m 13,7 C 15,9 C 6,4 km/h (2 Bft) 97,56 %
10.06.2017 08:10 16,1 C 22,8 C 87 % 1018,9 hPa 0,0 l/m 7,7 km/h (2 Bft) W 275 2 min 0,000 mm 1,2 UV-I 457 W/m 13,9 C 15,4 C 12,9 km/h (3 Bft) 96,23 %
10.06.2017 08:12 16,1 C 22,8 C 86 % 1018,8 hPa 0,0 l/m 6,6 km/h (2 Bft) W-SW 246 2 min 0,000 mm 1,1 UV-I 454 W/m 13,8 C 16,0 C 12,9 km/h (3 Bft) 92,68 %
10.06.2017 08:14 16,1 C 23,3 C 86 % 1018,9 hPa 0,0 l/m 6,5 km/h (2 Bft) NW 310 2 min 0,000 mm 1,1 UV-I 489 W/m 13,8 C 16,1 C 12,9 km/h (3 Bft) 97,56 %
10.06.2017 08:16 16,0 C 22,8 C 85 % 1018,9 hPa 0,0 l/m 6,1 km/h (2 Bft) W-SW 253 2 min 0,000 mm 1,1 UV-I 506 W/m 13,5 C 16,0 C 12,9 km/h (3 Bft) 98,21 %
10.06.2017 08:18 16,1 C 22,8 C 86 % 1018,9 hPa 0,0 l/m 5,0 km/h (1 Bft) W 281 2 min 0,000 mm 1,3 UV-I 499 W/m 13,8 C 16,1 C 12,9 km/h (3 Bft) 98,00 %
10.06.2017 08:20 16,1 C 22,8 C 85 % 1019,0 hPa 0,0 l/m 7,3 km/h (2 Bft) W 263 2 min 0,000 mm 1,3 UV-I 502 W/m 13,6 C 15,6 C 11,3 km/h (2 Bft) 97,56 %
10.06.2017 08:22 16,2 C 22,8 C 86 % 1018,9 hPa 0,0 l/m 6,8 km/h (2 Bft) N-NW 328 2 min 0,000 mm 1,4 UV-I 515 W/m 13,9 C 16,0 C 12,9 km/h (3 Bft) 100,00 %
10.06.2017 08:24 16,4 C 22,8 C 86 % 1019,0 hPa 0,0 l/m 6,4 km/h (2 Bft) W-SW 242 2 min 0,000 mm 1,4 UV-I 507 W/m 14,1 C 16,4 C 12,9 km/h (3 Bft) 97,87 %
10.06.2017 08:26 16,6 C 22,8 C 86 % 1019,0 hPa 0,0 l/m 3,0 km/h (1 Bft) SW 230 2 min 0,000 mm 1,4 UV-I 499 W/m 14,2 C 16,6 C 6,4 km/h (2 Bft) 98,11 %
10.06.2017 08:28 16,6 C 22,8 C 83 % 1019,0 hPa 0,0 l/m 5,3 km/h (1 Bft) W 273 2 min 0,000 mm 1,5 UV-I 507 W/m 13,7 C 16,6 C 12,9 km/h (3 Bft) 100,00 %
10.06.2017 08:30 16,6 C 22,8 C 83 % 1019,0 hPa 0,0 l/m 3,1 km/h (1 Bft) W 279 2 min 0,000 mm 1,5 UV-I 514 W/m 13,7 C 16,6 C 12,9 km/h (3 Bft) 96,92 %
10.06.2017 08:32 16,6 C 22,8 C 83 % 1019,0 hPa 0,0 l/m 3,4 km/h (1 Bft) W-NW 301 2 min 0,000 mm 1,5 UV-I 521 W/m 13,7 C 16,6 C 9,7 km/h (2 Bft) 100,00 %
10.06.2017 08:34 16,6 C 22,8 C 82 % 1019,0 hPa 0,0 l/m 6,2 km/h (2 Bft) NW 313 2 min 0,000 mm 1,6 UV-I 543 W/m 13,5 C 16,6 C 14,5 km/h (3 Bft) 100,00 %
10.06.2017 08:36 16,6 C 23,3 C 81 % 1019,0 hPa 0,0 l/m 5,8 km/h (2 Bft) NW 312 2 min 0,000 mm 1,7 UV-I 581 W/m 13,3 C 16,6 C 12,9 km/h (3 Bft) 97,87 %
10.06.2017 08:38 16,7 C 23,3 C 82 % 1019,0 hPa 0,0 l/m 8,8 km/h (2 Bft) W 265 2 min 0,000 mm 1,7 UV-I 637 W/m 13,6 C 15,5 C 12,9 km/h (3 Bft) 96,00 %
10.06.2017 08:40 16,8 C 22,8 C 82 % 1019,0 hPa 0,0 l/m 6,5 km/h (2 Bft) SW 229 2 min 0,000 mm 1,5 UV-I 686 W/m 13,7 C 16,8 C 12,9 km/h (3 Bft) 98,00 %
10.06.2017 08:42 16,9 C 23,3 C 81 % 1019,1 hPa 0,0 l/m 7,0 km/h (2 Bft) W 279 2 min 0,000 mm 1,4 UV-I 377 W/m 13,6 C 16,6 C 12,9 km/h (3 Bft) 100,00 %
10.06.2017 08:44 16,8 C 22,8 C 81 % 1019,0 hPa 0,0 l/m 6,4 km/h (2 Bft) S-SW 198 0 min 0,000 mm 1,2 UV-I 255 W/m 13,5 C 16,8 C 11,3 km/h (2 Bft) 96,23 %
10.06.2017 08:46 16,7 C 22,2 C 80 % 1019,1 hPa 0,0 l/m 7,4 km/h (2 Bft) W-SW 239 0 min 0,000 mm 1,2 UV-I 262 W/m 13,2 C 16,2 C 12,9 km/h (3 Bft) 100,00 %
10.06.2017 08:48 16,6 C 22,2 C 80 % 1019,1 hPa 0,0 l/m 4,6 km/h (1 Bft) W-SW 244 0 min 0,000 mm 1,5 UV-I 218 W/m 13,1 C 16,6 C 9,7 km/h (2 Bft) 100,00 %
10.06.2017 08:50 16,6 C 22,2 C 81 % 1019,2 hPa 0,0 l/m 5,3 km/h (1 Bft) W-NW 296 0 min 0,000 mm 1,2 UV-I 207 W/m 13,3 C 16,6 C 11,3 km/h (2 Bft) 100,00 %
10.06.2017 08:52 16,6 C 22,2 C 81 % 1019,2 hPa 0,0 l/m 9,8 km/h (2 Bft) W-SW 250 0 min 0,000 mm 1,5 UV-I 214 W/m 13,3 C 15,0 C 17,7 km/h (3 Bft) 100,00 %
10.06.2017 08:54 16,7 C 22,2 C 81 % 1019,2 hPa 0,0 l/m 6,6 km/h (2 Bft) W-NW 285 2 min 0,000 mm 1,9 UV-I 664 W/m 13,4 C 16,6 C 12,9 km/h (3 Bft) 97,37 %
10.06.2017 08:56 16,9 C 22,2 C 80 % 1019,2 hPa 0,0 l/m 6,9 km/h (2 Bft) W-SW 238 2 min 0,000 mm 1,5 UV-I 700 W/m 13,4 C 16,7 C 11,3 km/h (2 Bft) 98,11 %
10.06.2017 08:58 16,9 C 22,2 C 80 % 1019,2 hPa 0,0 l/m 9,1 km/h (2 Bft) SW 231 0 min 0,000 mm 1,3 UV-I 282 W/m 13,4 C 15,6 C 14,5 km/h (3 Bft) 95,45 %
10.06.2017 09:00 16,8 C 22,2 C 78 % 1019,2 hPa 0,0 l/m 7,7 km/h (2 Bft) W-SW 256 0 min 0,000 mm 1,3 UV-I 261 W/m 12,9 C 16,1 C 14,5 km/h (3 Bft) 94,00 %
10.06.2017 09:02 16,7 C 22,8 C 81 % 1019,3 hPa 0,0 l/m 7,8 km/h (2 Bft) W-NW 296 0 min 0,254 mm 1,3 UV-I 232 W/m 13,4 C 16,0 C 16,1 km/h (3 Bft) 97,37 %
10.06.2017 09:04 16,6 C 22,2 C 80 % 1019,3 hPa 0,0 l/m 7,6 km/h (2 Bft) W-SW 254 0 min 0,000 mm 1,4 UV-I 250 W/m 13,1 C 16,0 C 14,5 km/h (3 Bft) 95,83 %
10.06.2017 09:06 16,6 C 22,2 C 82 % 1019,3 hPa 0,0 l/m 4,7 km/h (1 Bft) W 279 0 min 0,000 mm 1,8 UV-I 291 W/m 13,5 C 16,6 C 16,1 km/h (3 Bft) 100,00 %
10.06.2017 09:08 16,7 C 22,2 C 82 % 1019,3 hPa 0,0 l/m 7,2 km/h (2 Bft) W 261 2 min 0,000 mm 2,0 UV-I 387 W/m 13,6 C 16,3 C 12,9 km/h (3 Bft) 100,00 %
10.06.2017 09:10 16,8 C 22,2 C 82 % 1019,3 hPa 0,0 l/m 6,8 km/h (2 Bft) SW 232 2 min 0,000 mm 2,2 UV-I 672 W/m 13,7 C 16,6 C 16,1 km/h (3 Bft) 97,44 %
10.06.2017 09:12 16,9 C 22,2 C 81 % 1019,3 hPa 0,0 l/m 7,8 km/h (2 Bft) W-SW 258 2 min 0,000 mm 2,2 UV-I 717 W/m 13,6 C 16,2 C 14,5 km/h (3 Bft) 95,45 %
10.06.2017 09:14 17,1 C 23,3 C 81 % 1019,3 hPa 0,0 l/m 6,8 km/h (2 Bft) W-SW 240 2 min 0,000 mm 2,4 UV-I 674 W/m 13,8 C 16,9 C 14,5 km/h (3 Bft) 96,43 %
10.06.2017 09:16 17,3 C 23,3 C 82 % 1019,4 hPa 0,0 l/m 9,6 km/h (2 Bft) W-SW 255 2 min 0,000 mm 2,4 UV-I 641 W/m 14,2 C 15,8 C 17,7 km/h (3 Bft) 88,46 %
10.06.2017 09:18 17,5 C 23,3 C 81 % 1019,3 hPa 0,0 l/m 8,8 km/h (2 Bft) W 265 2 min 0,000 mm 2,5 UV-I 655 W/m 14,2 C 16,4 C 16,1 km/h (3 Bft) 94,64 %
10.06.2017 09:20 17,6 C 23,3 C 80 % 1019,4 hPa 0,0 l/m 9,3 km/h (2 Bft) W 265 2 min 0,000 mm 2,5 UV-I 655 W/m 14,1 C 16,3 C 16,1 km/h (3 Bft) 94,64 %
10.06.2017 09:22 17,6 C 23,3 C 82 % 1019,4 hPa 0,0 l/m 6,3 km/h (2 Bft) W-SW 242 2 min 0,000 mm 2,6 UV-I 664 W/m 14,5 C 17,6 C 11,3 km/h (2 Bft) 95,12 %
10.06.2017 09:24 17,6 C 22,2 C 79 % 1019,3 hPa 0,0 l/m 8,8 km/h (2 Bft) O 88 2 min 0,000 mm 2,7 UV-I 702 W/m 13,9 C 16,5 C 14,5 km/h (3 Bft) 98,21 %
10.06.2017 09:26 17,5 C 23,3 C 77 % 1019,3 hPa 0,0 l/m 11,8 km/h (2 Bft) SW 228 2 min 0,000 mm 2,7 UV-I 712 W/m 13,4 C 15,2 C 17,7 km/h (3 Bft) 94,74 %
10.06.2017 09:28 17,4 C 22,2 C 79 % 1019,3 hPa 0,0 l/m 10,2 km/h (2 Bft) SW 231 2 min 0,000 mm 2,7 UV-I 736 W/m 13,7 C 15,7 C 16,1 km/h (3 Bft) 96,61 %
10.06.2017 09:30 17,6 C 23,3 C 79 % 1019,4 hPa 0,0 l/m 5,9 km/h (2 Bft) SO 136 2 min 0,000 mm 2,7 UV-I 776 W/m 13,9 C 17,6 C 17,7 km/h (3 Bft) 94,74 %
10.06.2017 09:32 17,7 C 22,2 C 78 % 1019,4 hPa 0,0 l/m 5,7 km/h (1 Bft) W-NW 290 2 min 0,000 mm 2,7 UV-I 768 W/m 13,8 C 17,7 C 14,5 km/h (3 Bft) 98,00 %
10.06.2017 09:34 17,7 C 22,2 C 78 % 1019,3 hPa 0,0 l/m 5,6 km/h (1 Bft) W-SW 244 2 min 0,000 mm 2,1 UV-I 761 W/m 13,8 C 17,7 C 12,9 km/h (3 Bft) 93,62 %
10.06.2017 09:36 17,6 C 22,2 C 79 % 1019,3 hPa 0,0 l/m 3,7 km/h (1 Bft) SW 231 2 min 0,000 mm 2,9 UV-I 734 W/m 13,9 C 17,6 C 11,3 km/h (2 Bft) 98,00 %
10.06.2017 09:38 17,7 C 22,8 C 78 % 1019,4 hPa 0,0 l/m 8,2 km/h (2 Bft) NW 321 2 min 0,000 mm 3,0 UV-I 717 W/m 13,8 C 16,8 C 19,3 km/h (3 Bft) 92,11 %
10.06.2017 09:40 17,8 C 22,2 C 79 % 1019,4 hPa 0,0 l/m 9,1 km/h (2 Bft) NW 311 2 min 0,000 mm 3,0 UV-I 729 W/m 14,1 C 16,6 C 14,5 km/h (3 Bft) 96,00 %
10.06.2017 09:42 17,9 C 23,3 C 77 % 1019,4 hPa 0,0 l/m 8,2 km/h (2 Bft) W 261 2 min 0,000 mm 3,1 UV-I 736 W/m 13,8 C 17,1 C 14,5 km/h (3 Bft) 97,44 %
10.06.2017 09:44 17,9 C 23,3 C 75 % 1019,4 hPa 0,0 l/m 9,7 km/h (2 Bft) SW 222 2 min 0,000 mm 3,1 UV-I 785 W/m 13,4 C 16,4 C 20,9 km/h (4 Bft) 96,55 %
10.06.2017 09:46 17,9 C 22,8 C 74 % 1019,4 hPa 0,0 l/m 4,0 km/h (1 Bft) W 264 2 min 0,000 mm 2,3 UV-I 807 W/m 13,2 C 17,9 C 11,3 km/h (2 Bft) 98,00 %
10.06.2017 09:48 17,8 C 22,2 C 75 % 1019,4 hPa 0,0 l/m 2,4 km/h (1 Bft) N-NW 336 0 min 0,000 mm 2,2 UV-I 270 W/m 13,3 C 17,8 C 6,4 km/h (2 Bft) 94,44 %
10.06.2017 09:50 17,6 C 22,2 C 74 % 1019,4 hPa 0,0 l/m 10,3 km/h (2 Bft) SW 236 0 min 0,000 mm 2,4 UV-I 229 W/m 12,9 C 15,9 C 19,3 km/h (3 Bft) 96,23 %
10.06.2017 09:52 17,4 C 22,2 C 75 % 1019,4 hPa 0,0 l/m 4,2 km/h (1 Bft) W-NW 289 0 min 0,000 mm 2,6 UV-I 278 W/m 12,9 C 17,4 C 14,5 km/h (3 Bft) 100,00 %
10.06.2017 09:54 17,4 C 23,3 C 77 % 1019,4 hPa 0,0 l/m 3,3 km/h (1 Bft) W-SW 240 2 min 0,000 mm 3,3 UV-I 727 W/m 13,3 C 17,4 C 8,0 km/h (2 Bft) 100,00 %
10.06.2017 09:56 17,8 C 22,8 C 80 % 1019,4 hPa 0,0 l/m 5,7 km/h (1 Bft) SW 229 2 min 0,000 mm 3,5 UV-I 758 W/m 14,3 C 17,8 C 14,5 km/h (3 Bft) 97,56 %
10.06.2017 09:58 17,9 C 23,3 C 75 % 1019,4 hPa 0,0 l/m 6,8 km/h (2 Bft) W-SW 239 2 min 0,000 mm 3,2 UV-I 754 W/m 13,4 C 17,7 C 11,3 km/h (2 Bft) 98,11 %
10.06.2017 10:00 18,0 C 22,8 C 77 % 1019,4 hPa 0,0 l/m 3,9 km/h (1 Bft) NW 306 2 min 0,331 mm 3,4 UV-I 758 W/m 13,9 C 18,0 C 8,0 km/h (2 Bft) 95,12 %
10.06.2017 10:02 18,2 C 23,3 C 76 % 1019,3 hPa 0,0 l/m 7,7 km/h (2 Bft) W 265 2 min 0,000 mm 3,6 UV-I 787 W/m 13,9 C 17,6 C 14,5 km/h (3 Bft) 98,11 %
10.06.2017 10:04 18,3 C 22,8 C 72 % 1019,4 hPa 0,0 l/m 6,5 km/h (2 Bft) W 277 2 min 0,000 mm 3,6 UV-I 793 W/m 13,2 C 18,3 C 16,1 km/h (3 Bft) 95,45 %
10.06.2017 10:06 18,3 C 22,8 C 72 % 1019,3 hPa 0,0 l/m 6,7 km/h (2 Bft) W-SW 253 2 min 0,000 mm 3,0 UV-I 798 W/m 13,2 C 18,2 C 14,5 km/h (3 Bft) 92,00 %
10.06.2017 10:08 18,4 C 22,8 C 75 % 1019,4 hPa 0,0 l/m 5,6 km/h (1 Bft) NW 325 2 min 0,000 mm 3,7 UV-I 782 W/m 13,9 C 18,4 C 12,9 km/h (3 Bft) 97,56 %
10.06.2017 10:10 18,3 C 23,3 C 72 % 1019,4 hPa 0,0 l/m 3,5 km/h (1 Bft) W-SW 250 2 min 0,000 mm 3,8 UV-I 785 W/m 13,2 C 18,3 C 6,4 km/h (2 Bft) 95,74 %
10.06.2017 10:12 18,4 C 22,8 C 72 % 1019,4 hPa 0,0 l/m 7,5 km/h (2 Bft) S-SO 161 2 min 0,000 mm 3,4 UV-I 779 W/m 13,3 C 17,9 C 12,9 km/h (3 Bft) 97,56 %
10.06.2017 10:14 18,5 C 22,2 C 75 % 1019,4 hPa 0,0 l/m 3,6 km/h (1 Bft) W-NW 302 2 min 0,000 mm 3,3 UV-I 862 W/m 14,0 C 18,5 C 6,4 km/h (2 Bft) 96,61 %
10.06.2017 10:16 18,5 C 22,2 C 74 % 1019,4 hPa 0,0 l/m 3,2 km/h (1 Bft) N-NW 332 2 min 0,000 mm 2,9 UV-I 886 W/m 13,8 C 18,5 C 8,0 km/h (2 Bft) 97,73 %
10.06.2017 10:18 18,3 C 22,2 C 72 % 1019,4 hPa 0,0 l/m 6,6 km/h (2 Bft) NW 319 0 min 0,000 mm 2,1 UV-I 159 W/m 13,2 C 18,2 C 12,9 km/h (3 Bft) 97,37 %
10.06.2017 10:20 18,0 C 22,2 C 73 % 1019,4 hPa 0,0 l/m 4,0 km/h (1 Bft) W-NW 294 0 min 0,000 mm 3,2 UV-I 163 W/m 13,1 C 18,0 C 12,9 km/h (3 Bft) 96,00 %
10.06.2017 10:22 18,1 C 22,2 C 75 % 1019,4 hPa 0,0 l/m 5,8 km/h (2 Bft) W-NW 291 2 min 0,000 mm 4,0 UV-I 771 W/m 13,6 C 18,1 C 12,9 km/h (3 Bft) 96,00 %
10.06.2017 10:24 18,1 C 22,2 C 74 % 1019,4 hPa 0,0 l/m 8,4 km/h (2 Bft) W-NW 289 2 min 0,000 mm 2,9 UV-I 526 W/m 13,4 C 17,2 C 16,1 km/h (3 Bft) 98,11 %
10.06.2017 10:26 17,9 C 23,3 C 73 % 1019,5 hPa 0,0 l/m 6,2 km/h (2 Bft) W 271 0 min 0,000 mm 2,8 UV-I 234 W/m 13,0 C 17,9 C 14,5 km/h (3 Bft) 94,87 %
10.06.2017 10:28 18,1 C 23,3 C 75 % 1019,5 hPa 0,0 l/m 5,7 km/h (1 Bft) SW 228 2 min 0,000 mm 4,0 UV-I 726 W/m 13,6 C 18,1 C 12,9 km/h (3 Bft) 96,00 %
10.06.2017 10:30 18,4 C 22,8 C 76 % 1019,5 hPa 0,0 l/m 8,7 km/h (2 Bft) W-SW 251 2 min 0,000 mm 3,6 UV-I 844 W/m 14,1 C 17,4 C 16,1 km/h (3 Bft) 96,00 %
10.06.2017 10:32 18,4 C 23,3 C 72 % 1019,4 hPa 0,0 l/m 8,1 km/h (2 Bft) W-SW 248 2 min 0,000 mm 4,2 UV-I 851 W/m 13,3 C 17,6 C 14,5 km/h (3 Bft) 92,68 %
10.06.2017 10:34 18,5 C 23,3 C 72 % 1019,5 hPa 0,0 l/m 7,5 km/h (2 Bft) W-NW 297 2 min 0,000 mm 4,3 UV-I 873 W/m 13,4 C 18,0 C 14,5 km/h (3 Bft) 98,00 %
10.06.2017 10:36 18,6 C 22,8 C 73 % 1019,5 hPa 0,0 l/m 3,8 km/h (1 Bft) S-SW 206 2 min 0,000 mm 4,5 UV-I 908 W/m 13,7 C 18,6 C 12,9 km/h (3 Bft) 96,00 %
10.06.2017 10:38 18,8 C 23,3 C 72 % 1019,5 hPa 0,0 l/m 6,6 km/h (2 Bft) SW 223 2 min 0,000 mm 4,2 UV-I 943 W/m 13,6 C 18,7 C 12,9 km/h (3 Bft) 94,74 %
10.06.2017 10:40 19,0 C 22,2 C 74 % 1019,4 hPa 0,0 l/m 3,8 km/h (1 Bft) NW 305 2 min 0,000 mm 3,7 UV-I 667 W/m 14,3 C 19,0 C 6,4 km/h (2 Bft) 92,86 %
10.06.2017 10:42 19,0 C 22,8 C 72 % 1019,5 hPa 0,0 l/m 4,5 km/h (1 Bft) NW 310 2 min 0,000 mm 4,5 UV-I 649 W/m 13,8 C 19,0 C 9,7 km/h (2 Bft) 95,00 %
10.06.2017 10:44 19,2 C 22,2 C 73 % 1019,5 hPa 0,0 l/m 5,2 km/h (1 Bft) W-SW 240 2 min 0,000 mm 4,6 UV-I 842 W/m 14,2 C 19,2 C 12,9 km/h (3 Bft) 98,00 %
10.06.2017 10:46 19,1 C 22,2 C 68 % 1019,4 hPa 0,0 l/m 12,0 km/h (2 Bft) W-SW 257 2 min 0,000 mm 4,6 UV-I 850 W/m 13,1 C 17,0 C 20,9 km/h (4 Bft) 95,45 %
10.06.2017 10:48 19,2 C 22,2 C 70 % 1019,5 hPa 0,0 l/m 7,7 km/h (2 Bft) W-SW 248 2 min 0,000 mm 4,7 UV-I 852 W/m 13,6 C 18,6 C 20,9 km/h (4 Bft) 97,87 %
10.06.2017 10:50 19,2 C 22,8 C 67 % 1019,5 hPa 0,0 l/m 8,9 km/h (2 Bft) W-NW 300 2 min 0,000 mm 4,8 UV-I 852 W/m 12,9 C 18,2 C 19,3 km/h (3 Bft) 96,00 %
10.06.2017 10:52 19,1 C 22,8 C 69 % 1019,5 hPa 0,0 l/m 4,8 km/h (1 Bft) W-NW 293 2 min 0,000 mm 4,8 UV-I 863 W/m 13,3 C 19,1 C 17,7 km/h (3 Bft) 95,45 %
10.06.2017 10:54 19,1 C 22,2 C 67 % 1019,5 hPa 0,0 l/m 8,4 km/h (2 Bft) W 262 2 min 0,000 mm 4,9 UV-I 896 W/m 12,8 C 18,2 C 14,5 km/h (3 Bft) 97,73 %
10.06.2017 10:56 19,2 C 22,2 C 68 % 1019,5 hPa 0,0 l/m 8,0 km/h (2 Bft) W-SW 242 2 min 0,000 mm 5,1 UV-I 975 W/m 13,1 C 18,5 C 12,9 km/h (3 Bft) 98,11 %
10.06.2017 10:58 19,4 C 22,2 C 68 % 1019,5 hPa 0,0 l/m 4,6 km/h (1 Bft) NW 320 2 min 0,000 mm 5,1 UV-I 1041 W/m 13,3 C 19,4 C 11,3 km/h (2 Bft) 98,00 %
10.06.2017 11:00 19,4 C 22,2 C 67 % 1019,4 hPa 0,0 l/m 5,8 km/h (2 Bft) W-SW 250 2 min 0,431 mm 2,7 UV-I 673 W/m 13,1 C 19,4 C 16,1 km/h (3 Bft) 97,87 %
10.06.2017 11:02 19,3 C 22,2 C 68 % 1019,4 hPa 0,0 l/m 7,7 km/h (2 Bft) W 266 0 min 0,000 mm 2,3 UV-I 313 W/m 13,2 C 18,7 C 14,5 km/h (3 Bft) 100,00 %
10.06.2017 11:04 19,1 C 22,2 C 68 % 1019,5 hPa 0,0 l/m 5,1 km/h (1 Bft) NW 311 0 min 0,000 mm 2,3 UV-I 273 W/m 13,1 C 19,1 C 11,3 km/h (2 Bft) 96,30 %
10.06.2017 11:06 18,9 C 22,2 C 71 % 1019,5 hPa 0,0 l/m 1,9 km/h (1 Bft) N-NW 338 0 min 0,000 mm 2,4 UV-I 255 W/m 13,5 C 18,9 C 6,4 km/h (2 Bft) 98,53 %
10.06.2017 11:08 18,7 C 22,8 C 70 % 1019,5 hPa 0,0 l/m 4,5 km/h (1 Bft) NO 37 0 min 0,000 mm 3,7 UV-I 308 W/m 13,1 C 18,7 C 11,3 km/h (2 Bft) 97,56 %
10.06.2017 11:10 18,8 C 23,3 C 74 % 1019,5 hPa 0,0 l/m 1,4 km/h (1 Bft) NW 323 0 min 0,000 mm 5,1 UV-I 384 W/m 14,1 C 18,8 C 3,2 km/h (1 Bft) 94,34 %
10.06.2017 11:12 19,2 C 22,8 C 71 % 1019,5 hPa 0,0 l/m 4,8 km/h (1 Bft) NW 311 2 min 0,000 mm 5,4 UV-I 971 W/m 13,8 C 19,2 C 11,3 km/h (2 Bft) 98,00 %
10.06.2017 11:14 19,4 C 22,8 C 70 % 1019,5 hPa 0,0 l/m 5,0 km/h (1 Bft) W-SW 250 2 min 0,000 mm 4,4 UV-I 970 W/m 13,8 C 19,4 C 11,3 km/h (2 Bft) 100,00 %
10.06.2017 11:16 19,5 C 23,3 C 69 % 1019,5 hPa 0,0 l/m 9,9 km/h (2 Bft) SW 232 2 min 0,000 mm 5,4 UV-I 923 W/m 13,7 C 18,1 C 16,1 km/h (3 Bft) 95,12 %
10.06.2017 11:18 19,6 C 23,3 C 65 % 1019,5 hPa 0,0 l/m 11,7 km/h (2 Bft) NW 305 2 min 0,000 mm 5,5 UV-I 932 W/m 12,8 C 17,7 C 17,7 km/h (3 Bft) 88,64 %
10.06.2017 11:20 19,7 C 23,3 C 66 % 1019,5 hPa 0,0 l/m 4,2 km/h (1 Bft) SW 217 2 min 0,000 mm 5,5 UV-I 943 W/m 13,2 C 19,7 C 12,9 km/h (3 Bft) 94,00 %
10.06.2017 11:22 19,8 C 23,3 C 67 % 1019,4 hPa 0,0 l/m 4,1 km/h (1 Bft) W-SW 252 2 min 0,000 mm 5,6 UV-I 953 W/m 13,5 C 19,8 C 8,0 km/h (2 Bft) 97,56 %
10.06.2017 11:24 19,9 C 22,8 C 65 % 1019,5 hPa 0,0 l/m 2,4 km/h (1 Bft) W 274 2 min 0,000 mm 5,6 UV-I 1024 W/m 13,1 C 19,9 C 11,3 km/h (2 Bft) 98,11 %
10.06.2017 11:26 20,1 C 22,8 C 68 % 1019,6 hPa 0,0 l/m 4,9 km/h (1 Bft) N-NO 20 2 min 0,000 mm 3,6 UV-I 753 W/m 14,0 C 20,1 C 12,9 km/h (3 Bft) 92,00 %
10.06.2017 11:28 19,9 C 22,8 C 70 % 1019,6 hPa 0,0 l/m 6,0 km/h (2 Bft) NW 306 0 min 0,000 mm 4,4 UV-I 401 W/m 14,3 C 19,9 C 16,1 km/h (3 Bft) 92,68 %
10.06.2017 11:30 19,8 C 22,8 C 68 % 1019,6 hPa 0,0 l/m 4,8 km/h (1 Bft) N-NW 330 2 min 0,000 mm 4,6 UV-I 1088 W/m 13,7 C 19,8 C 8,0 km/h (2 Bft) 95,45 %
10.06.2017 11:32 19,5 C 22,8 C 68 % 1019,6 hPa 0,0 l/m 3,3 km/h (1 Bft) W 260 0 min 0,000 mm 2,6 UV-I 333 W/m 13,4 C 19,5 C 8,0 km/h (2 Bft) 91,53 %
10.06.2017 11:34 19,2 C 22,8 C 67 % 1019,7 hPa 0,0 l/m 4,0 km/h (1 Bft) W 261 0 min 0,000 mm 4,0 UV-I 227 W/m 12,9 C 19,2 C 9,7 km/h (2 Bft) 90,91 %
10.06.2017 11:36 19,2 C 22,8 C 69 % 1019,6 hPa 0,0 l/m 4,3 km/h (1 Bft) W-NW 288 0 min 0,000 mm 5,8 UV-I 432 W/m 13,4 C 19,2 C 11,3 km/h (2 Bft) 92,68 %
10.06.2017 11:38 19,4 C 23,3 C 69 % 1019,6 hPa 0,0 l/m 2,6 km/h (1 Bft) N-NO 17 2 min 0,000 mm 6,0 UV-I 996 W/m 13,6 C 19,4 C 6,4 km/h (2 Bft) 98,00 %
10.06.2017 11:40 19,9 C 23,3 C 67 % 1019,6 hPa 0,0 l/m 11,0 km/h (2 Bft) W-SW 257 2 min 0,000 mm 6,1 UV-I 1042 W/m 13,6 C 18,2 C 20,9 km/h (4 Bft) 95,45 %
10.06.2017 11:42 20,1 C 23,3 C 63 % 1019,6 hPa 0,0 l/m 9,2 km/h (2 Bft) NW 306 2 min 0,000 mm 5,0 UV-I 1074 W/m 12,8 C 19,0 C 19,3 km/h (3 Bft) 93,75 %
10.06.2017 11:44 20,1 C 23,3 C 63 % 1019,5 hPa 0,0 l/m 6,9 km/h (2 Bft) W 265 2 min 0,000 mm 5,0 UV-I 1133 W/m 12,8 C 19,9 C 12,9 km/h (3 Bft) 92,31 %
10.06.2017 11:46 20,2 C 23,3 C 64 % 1019,5 hPa 0,0 l/m 8,9 km/h (2 Bft) W 270 0 min 0,000 mm 4,8 UV-I 451 W/m 13,2 C 19,2 C 19,3 km/h (3 Bft) 97,87 %
10.06.2017 11:48 20,2 C 23,9 C 64 % 1019,5 hPa 0,0 l/m 8,2 km/h (2 Bft) W-NW 292 0 min 0,000 mm 5,1 UV-I 436 W/m 13,2 C 19,5 C 16,1 km/h (3 Bft) 94,87 %
10.06.2017 11:50 20,0 C 23,3 C 64 % 1019,6 hPa 0,0 l/m 6,0 km/h (2 Bft) NW 320 0 min 0,000 mm 3,4 UV-I 361 W/m 13,0 C 20,0 C 14,5 km/h (3 Bft) 92,45 %
10.06.2017 11:52 19,7 C 23,3 C 66 % 1019,5 hPa 0,0 l/m 2,9 km/h (1 Bft) W-SW 243 0 min 0,000 mm 2,8 UV-I 217 W/m 13,2 C 19,7 C 6,4 km/h (2 Bft) 90,91 %
10.06.2017 11:54 19,3 C 22,8 C 67 % 1019,5 hPa 0,0 l/m 5,2 km/h (1 Bft) NW 304 0 min 0,000 mm 3,8 UV-I 218 W/m 13,0 C 19,3 C 11,3 km/h (2 Bft) 100,00 %
10.06.2017 11:56 19,3 C 22,8 C 68 % 1019,6 hPa 0,0 l/m 5,8 km/h (2 Bft) W-SW 250 2 min 0,000 mm 5,3 UV-I 536 W/m 13,2 C 19,3 C 12,9 km/h (3 Bft) 100,00 %
10.06.2017 11:58 19,6 C 23,3 C 68 % 1019,6 hPa 0,0 l/m 8,0 km/h (2 Bft) W 261 2 min 0,000 mm 6,0 UV-I 934 W/m 13,5 C 18,9 C 12,9 km/h (3 Bft) 95,74 %
10.06.2017 12:00 19,9 C 23,9 C 64 % 1019,6 hPa 0,0 l/m 7,3 km/h (2 Bft) W 277 2 min 0,000 mm 6,1 UV-I 930 W/m 12,9 C 19,5 C 14,5 km/h (3 Bft) 93,62 %
10.06.2017 12:02 20,0 C 22,8 C 62 % 1019,5 hPa 0,0 l/m 11,1 km/h (2 Bft) W-NW 286 2 min 0,432 mm 6,2 UV-I 931 W/m 12,5 C 18,3 C 19,3 km/h (3 Bft) 97,14 %
10.06.2017 12:04 20,1 C 22,8 C 62 % 1019,5 hPa 0,0 l/m 6,6 km/h (2 Bft) SW 235 2 min 0,000 mm 6,2 UV-I 931 W/m 12,6 C 20,0 C 12,9 km/h (3 Bft) 98,21 %
10.06.2017 12:06 20,2 C 23,3 C 64 % 1019,4 hPa 0,0 l/m 4,1 km/h (1 Bft) W 259 2 min 0,000 mm 6,2 UV-I 935 W/m 13,2 C 20,2 C 6,4 km/h (2 Bft) 100,00 %
10.06.2017 12:08 20,4 C 23,9 C 65 % 1019,4 hPa 0,0 l/m 7,2 km/h (2 Bft) S-SW 209 2 min 0,000 mm 6,3 UV-I 951 W/m 13,6 C 20,1 C 14,5 km/h (3 Bft) 94,92 %
10.06.2017 12:10 20,7 C 23,3 C 62 % 1019,4 hPa 0,0 l/m 3,5 km/h (1 Bft) W-SW 250 2 min 0,000 mm 6,5 UV-I 1005 W/m 13,2 C 20,7 C 11,3 km/h (2 Bft) 97,37 %
10.06.2017 12:12 20,9 C 23,3 C 58 % 1019,5 hPa 0,0 l/m 8,2 km/h (2 Bft) SW 225 2 min 0,000 mm 5,7 UV-I 1083 W/m 12,3 C 20,2 C 14,5 km/h (3 Bft) 100,00 %
10.06.2017 12:14 20,8 C 23,3 C 62 % 1019,5 hPa 0,0 l/m 4,0 km/h (1 Bft) W-NW 289 2 min 0,000 mm 4,5 UV-I 1095 W/m 13,2 C 20,8 C 12,9 km/h (3 Bft) 98,11 %
10.06.2017 12:16 20,7 C 23,3 C 60 % 1019,5 hPa 0,0 l/m 8,8 km/h (2 Bft) SW 228 2 min 0,000 mm 3,7 UV-I 871 W/m 12,7 C 19,8 C 14,5 km/h (3 Bft) 93,62 %
10.06.2017 12:18 20,6 C 23,3 C 61 % 1019,5 hPa 0,0 l/m 10,0 km/h (2 Bft) W 277 0 min 0,000 mm 4,5 UV-I 301 W/m 12,8 C 19,3 C 17,7 km/h (3 Bft) 97,73 %
10.06.2017 12:20 20,8 C 23,3 C 63 % 1019,5 hPa 0,0 l/m 5,8 km/h (2 Bft) NO 53 2 min 0,000 mm 6,6 UV-I 981 W/m 13,5 C 20,8 C 11,3 km/h (2 Bft) 100,00 %
10.06.2017 12:22 20,9 C 23,3 C 65 % 1019,5 hPa 0,0 l/m 5,0 km/h (1 Bft) N 350 2 min 0,000 mm 6,1 UV-I 1051 W/m 14,1 C 20,9 C 12,9 km/h (3 Bft) 97,50 %
10.06.2017 12:24 20,8 C 23,3 C 62 % 1019,4 hPa 0,0 l/m 5,2 km/h (1 Bft) NW 317 2 min 0,000 mm 3,1 UV-I 489 W/m 13,2 C 20,8 C 12,9 km/h (3 Bft) 100,00 %
10.06.2017 12:26 20,6 C 23,3 C 61 % 1019,4 hPa 0,0 l/m 5,6 km/h (1 Bft) W 281 0 min 0,000 mm 5,6 UV-I 288 W/m 12,8 C 20,6 C 11,3 km/h (2 Bft) 98,21 %
10.06.2017 12:28 20,3 C 23,9 C 61 % 1019,5 hPa 0,0 l/m 9,5 km/h (2 Bft) NW 306 0 min 0,000 mm 3,5 UV-I 188 W/m 12,5 C 19,1 C 19,3 km/h (3 Bft) 92,11 %
10.06.2017 12:30 20,2 C 22,8 C 63 % 1019,4 hPa 0,0 l/m 6,1 km/h (2 Bft) W 278 0 min 0,000 mm 4,7 UV-I 222 W/m 12,9 C 20,2 C 14,5 km/h (3 Bft) 100,00 %
10.06.2017 12:32 20,2 C 23,3 C 63 % 1019,4 hPa 0,0 l/m 6,6 km/h (2 Bft) W-NW 287 2 min 0,000 mm 6,1 UV-I 644 W/m 12,9 C 20,1 C 14,5 km/h (3 Bft) 100,00 %
10.06.2017 12:34 20,4 C 23,3 C 62 % 1019,4 hPa 0,0 l/m 6,3 km/h (2 Bft) W-SW 243 2 min 0,000 mm 6,6 UV-I 982 W/m 12,9 C 20,4 C 16,1 km/h (3 Bft) 100,00 %
10.06.2017 12:36 20,6 C 23,3 C 61 % 1019,4 hPa 0,0 l/m 7,5 km/h (2 Bft) W 264 2 min 0,000 mm 6,6 UV-I 965 W/m 12,8 C 20,2 C 14,5 km/h (3 Bft) 94,00 %
10.06.2017 12:38 20,8 C 23,9 C 58 % 1019,4 hPa 0,0 l/m 9,0 km/h (2 Bft) W-SW 250 2 min 0,000 mm 6,6 UV-I 962 W/m 12,2 C 19,8 C 16,1 km/h (3 Bft) 100,00 %
10.06.2017 12:40 20,8 C 23,3 C 57 % 1019,4 hPa 0,0 l/m 10,5 km/h (2 Bft) W-SW 245 2 min 0,000 mm 6,6 UV-I 962 W/m 12,0 C 19,4 C 20,9 km/h (4 Bft) 97,56 %
10.06.2017 12:42 20,8 C 23,3 C 56 % 1019,4 hPa 0,0 l/m 7,6 km/h (2 Bft) SW 224 2 min 0,000 mm 6,7 UV-I 962 W/m 11,7 C 20,3 C 16,1 km/h (3 Bft) 96,23 %
10.06.2017 12:44 21,1 C 23,3 C 59 % 1019,4 hPa 0,0 l/m 11,9 km/h (2 Bft) W 261 2 min 0,000 mm 6,7 UV-I 977 W/m 12,8 C 19,3 C 22,5 km/h (4 Bft) 100,00 %
10.06.2017 12:46 21,3 C 23,3 C 57 % 1019,3 hPa 0,0 l/m 14,2 km/h (3 Bft) W-SW 249 2 min 0,000 mm 6,8 UV-I 1008 W/m 12,4 C 19,0 C 22,5 km/h (4 Bft) 100,00 %
10.06.2017 12:48 21,4 C 23,3 C 55 % 1019,4 hPa 0,0 l/m 15,4 km/h (3 Bft) W-SW 254 2 min 0,000 mm 6,9 UV-I 1059 W/m 12,0 C 18,9 C 24,1 km/h (4 Bft) 98,00 %
10.06.2017 12:50 21,4 C 23,9 C 58 % 1019,4 hPa 0,0 l/m 5,5 km/h (1 Bft) NW 306 2 min 0,000 mm 6,7 UV-I 1082 W/m 12,8 C 21,4 C 17,7 km/h (3 Bft) 96,00 %
10.06.2017 12:52 21,6 C 23,9 C 59 % 1019,4 hPa 0,0 l/m 9,1 km/h (2 Bft) W 267 2 min 0,000 mm 6,7 UV-I 1011 W/m 13,2 C 20,7 C 19,3 km/h (3 Bft) 100,00 %
10.06.2017 12:54 21,5 C 23,3 C 58 % 1019,4 hPa 0,0 l/m 5,1 km/h (1 Bft) W-NW 293 2 min 0,000 mm 6,8 UV-I 993 W/m 12,9 C 21,5 C 9,7 km/h (2 Bft) 98,11 %
10.06.2017 12:56 21,3 C 23,3 C 57 % 1019,4 hPa 0,0 l/m 5,3 km/h (1 Bft) NW 308 2 min 0,000 mm 6,8 UV-I 972 W/m 12,4 C 21,3 C 11,3 km/h (2 Bft) 100,00 %
10.06.2017 12:58 21,2 C 22,8 C 58 % 1019,4 hPa 0,0 l/m 7,5 km/h (2 Bft) W-NW 292 2 min 0,000 mm 6,7 UV-I 957 W/m 12,6 C 20,8 C 16,1 km/h (3 Bft) 98,39 %
10.06.2017 13:00 21,0 C 23,3 C 61 % 1019,3 hPa 0,0 l/m 5,3 km/h (1 Bft) NW 304 2 min 0,534 mm 6,7 UV-I 961 W/m 13,2 C 21,0 C 14,5 km/h (3 Bft) 97,87 %
10.06.2017 13:02 21,2 C 23,9 C 59 % 1019,3 hPa 0,0 l/m 5,6 km/h (1 Bft) W-NW 298 2 min 0,000 mm 6,8 UV-I 980 W/m 12,9 C 21,2 C 22,5 km/h (4 Bft) 98,18 %
10.06.2017 13:04 21,4 C 23,9 C 54 % 1019,4 hPa 0,0 l/m 18,8 km/h (3 Bft) W 267 2 min 0,000 mm 6,8 UV-I 994 W/m 11,7 C 18,2 C 30,6 km/h (5 Bft) 100,00 %
10.06.2017 13:06 21,5 C 23,9 C 52 % 1019,4 hPa 0,0 l/m 15,9 km/h (3 Bft) W 275 2 min 0,000 mm 6,8 UV-I 979 W/m 11,2 C 18,9 C 24,1 km/h (4 Bft) 98,21 %
10.06.2017 13:08 21,6 C 23,9 C 52 % 1019,4 hPa 0,0 l/m 11,5 km/h (2 Bft) W 267 2 min 0,000 mm 6,8 UV-I 1000 W/m 11,3 C 20,0 C 20,9 km/h (4 Bft) 97,56 %
10.06.2017 13:10 21,7 C 23,9 C 57 % 1019,5 hPa 0,0 l/m 5,0 km/h (1 Bft) N-NW 330 2 min 0,000 mm 6,7 UV-I 983 W/m 12,8 C 21,7 C 14,5 km/h (3 Bft) 98,11 %
10.06.2017 13:12 21,8 C 23,3 C 56 % 1019,4 hPa 0,0 l/m 4,8 km/h (1 Bft) W 268 2 min 0,000 mm 6,8 UV-I 1009 W/m 12,6 C 21,8 C 12,9 km/h (3 Bft) 94,74 %
10.06.2017 13:14 21,6 C 23,3 C 55 % 1019,4 hPa 0,0 l/m 9,0 km/h (2 Bft) W 261 2 min 0,000 mm 5,8 UV-I 807 W/m 12,2 C 20,7 C 17,7 km/h (3 Bft) 98,00 %
10.06.2017 13:16 21,7 C 24,4 C 55 % 1019,3 hPa 0,0 l/m 6,7 km/h (2 Bft) W-SW 244 2 min 0,000 mm 6,9 UV-I 922 W/m 12,3 C 21,6 C 12,9 km/h (3 Bft) 97,73 %
10.06.2017 13:18 21,8 C 23,9 C 56 % 1019,3 hPa 0,0 l/m 7,6 km/h (2 Bft) W-NW 296 2 min 0,000 mm 6,8 UV-I 980 W/m 12,6 C 21,4 C 14,5 km/h (3 Bft) 94,34 %
10.06.2017 13:20 21,9 C 23,3 C 56 % 1019,3 hPa 0,0 l/m 6,1 km/h (2 Bft) W-NW 299 2 min 0,000 mm 5,6 UV-I 985 W/m 12,7 C 21,9 C 14,5 km/h (3 Bft) 95,45 %
10.06.2017 13:23 21,8 C 23,9 C 59 % 1019,4 hPa 0,0 l/m 4,2 km/h (1 Bft) W-SW 251 3 min 0,000 mm 6,9 UV-I 1035 W/m 13,4 C 21,8 C 16,1 km/h (3 Bft) 97,18 %
10.06.2017 13:24 21,9 C 23,9 C 55 % 1019,4 hPa 0,0 l/m 8,4 km/h (2 Bft) W-SW 241 1 min 0,000 mm 5,0 UV-I 1051 W/m 12,4 C 21,2 C 16,1 km/h (3 Bft) 95,65 %
10.06.2017 13:26 21,8 C 23,3 C 52 % 1019,4 hPa 0,0 l/m 9,4 km/h (2 Bft) W-SW 257 2 min 0,000 mm 5,3 UV-I 1071 W/m 11,5 C 20,8 C 16,1 km/h (3 Bft) 94,74 %
10.06.2017 13:28 21,8 C 23,3 C 54 % 1019,3 hPa 0,0 l/m 8,5 km/h (2 Bft) S-SW 211 2 min 0,000 mm 6,8 UV-I 1031 W/m 12,1 C 21,1 C 16,1 km/h (3 Bft) 98,15 %
10.06.2017 13:30 21,8 C 23,3 C 55 % 1019,3 hPa 0,0 l/m 9,6 km/h (2 Bft) SW 236 2 min 0,000 mm 6,8 UV-I 1017 W/m 12,4 C 20,7 C 19,3 km/h (3 Bft) 97,56 %
10.06.2017 13:32 21,9 C 23,3 C 52 % 1019,3 hPa 0,0 l/m 12,3 km/h (3 Bft) W-SW 245 2 min 0,000 mm 6,7 UV-I 992 W/m 11,6 C 20,1 C 19,3 km/h (3 Bft) 94,00 %
10.06.2017 13:34 22,1 C 23,9 C 53 % 1019,4 hPa 0,0 l/m 11,0 km/h (2 Bft) W-SW 257 2 min 0,000 mm 6,7 UV-I 972 W/m 12,1 C 20,7 C 20,9 km/h (4 Bft) 96,23 %
10.06.2017 13:36 21,8 C 24,4 C 52 % 1019,3 hPa 0,0 l/m 7,7 km/h (2 Bft) W 273 2 min 0,000 mm 6,7 UV-I 965 W/m 11,5 C 21,3 C 19,3 km/h (3 Bft) 97,56 %
10.06.2017 13:38 21,7 C 23,9 C 54 % 1019,3 hPa 0,0 l/m 5,6 km/h (1 Bft) SW 219 2 min 0,000 mm 6,6 UV-I 958 W/m 12,0 C 21,7 C 12,9 km/h (3 Bft) 92,45 %
10.06.2017 13:40 21,9 C 23,9 C 54 % 1019,4 hPa 0,0 l/m 5,2 km/h (1 Bft) W 263 2 min 0,000 mm 6,7 UV-I 948 W/m 12,2 C 21,9 C 14,5 km/h (3 Bft) 95,24 %
10.06.2017 13:42 21,8 C 23,9 C 51 % 1019,4 hPa 0,0 l/m 12,7 km/h (3 Bft) W 276 2 min 0,000 mm 5,5 UV-I 953 W/m 11,2 C 19,9 C 22,5 km/h (4 Bft) 100,00 %
10.06.2017 13:44 21,7 C 23,9 C 52 % 1019,3 hPa 0,0 l/m 13,4 km/h (3 Bft) W-NW 287 2 min 0,000 mm 6,4 UV-I 949 W/m 11,4 C 19,7 C 20,9 km/h (4 Bft) 97,18 %
10.06.2017 13:46 21,7 C 23,9 C 51 % 1019,3 hPa 0,0 l/m 6,8 km/h (2 Bft) NW 306 2 min 0,000 mm 6,5 UV-I 928 W/m 11,1 C 21,6 C 14,5 km/h (3 Bft) 100,00 %
10.06.2017 13:48 21,7 C 24,4 C 51 % 1019,3 hPa 0,0 l/m 11,1 km/h (2 Bft) W 267 2 min 0,000 mm 6,5 UV-I 926 W/m 11,1 C 20,2 C 17,7 km/h (3 Bft) 98,21 %
10.06.2017 13:50 21,6 C 23,3 C 50 % 1019,3 hPa 0,0 l/m 11,1 km/h (2 Bft) W-NW 284 2 min 0,000 mm 6,5 UV-I 924 W/m 10,7 C 20,1 C 16,1 km/h (3 Bft) 100,00 %
10.06.2017 13:53 21,8 C 23,3 C 53 % 1019,4 hPa 0,0 l/m 6,1 km/h (2 Bft) W 276 3 min 0,000 mm 6,5 UV-I 938 W/m 11,8 C 21,8 C 12,9 km/h (3 Bft) 92,19 %
10.06.2017 13:54 21,8 C 23,3 C 50 % 1019,4 hPa 0,0 l/m 12,6 km/h (3 Bft) W-SW 237 1 min 0,000 mm 6,6 UV-I 963 W/m 10,9 C 20,0 C 24,1 km/h (4 Bft) 100,00 %
10.06.2017 13:56 22,0 C 23,3 C 49 % 1019,3 hPa 0,0 l/m 15,2 km/h (3 Bft) W 267 2 min 0,000 mm 6,6 UV-I 972 W/m 10,8 C 19,6 C 24,1 km/h (4 Bft) 94,00 %
10.06.2017 13:58 22,1 C 23,3 C 49 % 1019,3 hPa 0,0 l/m 7,4 km/h (2 Bft) W-SW 240 2 min 0,000 mm 6,6 UV-I 988 W/m 10,9 C 21,8 C 12,9 km/h (3 Bft) 95,00 %
10.06.2017 14:00 22,3 C 23,3 C 50 % 1019,4 hPa 0,0 l/m 6,1 km/h (2 Bft) W-NW 284 2 min 0,000 mm 6,5 UV-I 997 W/m 11,4 C 22,3 C 14,5 km/h (3 Bft) 94,87 %
10.06.2017 14:02 22,3 C 23,3 C 56 % 1019,2 hPa 0,0 l/m 5,1 km/h (1 Bft) N-NW 343 2 min 0,609 mm 4,9 UV-I 995 W/m 13,1 C 22,3 C 14,5 km/h (3 Bft) 98,00 %
10.06.2017 14:04 22,1 C 23,3 C 54 % 1019,4 hPa 0,0 l/m 7,7 km/h (2 Bft) W-NW 286 2 min 0,000 mm 6,5 UV-I 964 W/m 12,3 C 21,7 C 16,1 km/h (3 Bft) 95,74 %
10.06.2017 14:06 21,9 C 23,3 C 54 % 1019,4 hPa 0,0 l/m 7,7 km/h (2 Bft) W-SW 246 2 min 0,000 mm 6,3 UV-I 931 W/m 12,2 C 21,4 C 19,3 km/h (3 Bft) 92,00 %
10.06.2017 14:08 21,9 C 23,3 C 57 % 1019,4 hPa 0,0 l/m 7,2 km/h (2 Bft) N-NW 340 2 min 0,000 mm 6,2 UV-I 916 W/m 13,0 C 21,6 C 19,3 km/h (3 Bft) 95,74 %
10.06.2017 14:10 22,0 C 23,3 C 51 % 1019,4 hPa 0,0 l/m 7,0 km/h (2 Bft) W 273 2 min 0,000 mm 6,2 UV-I 916 W/m 11,4 C 21,8 C 16,1 km/h (3 Bft) 94,00 %
10.06.2017 14:12 22,0 C 23,3 C 50 % 1019,4 hPa 0,0 l/m 7,8 km/h (2 Bft) W-NW 292 2 min 0,000 mm 6,3 UV-I 923 W/m 11,1 C 21,5 C 19,3 km/h (3 Bft) 93,62 %
10.06.2017 14:14 22,0 C 23,3 C 51 % 1019,4 hPa 0,0 l/m 2,4 km/h (1 Bft) O-SO 117 2 min 0,000 mm 6,2 UV-I 923 W/m 11,4 C 22,0 C 4,8 km/h (1 Bft) 95,12 %
10.06.2017 14:16 22,1 C 23,3 C 50 % 1019,4 hPa 0,0 l/m 3,8 km/h (1 Bft) W 263 2 min 0,000 mm 6,2 UV-I 931 W/m 11,2 C 22,1 C 8,0 km/h (2 Bft) 94,34 %
10.06.2017 14:18 22,1 C 23,3 C 52 % 1019,4 hPa 0,0 l/m 10,7 km/h (2 Bft) SW 232 2 min 0,000 mm 6,2 UV-I 975 W/m 11,8 C 20,8 C 19,3 km/h (3 Bft) 95,56 %
10.06.2017 14:20 22,1 C 23,3 C 50 % 1019,4 hPa 0,0 l/m 7,9 km/h (2 Bft) NW 314 2 min 0,000 mm 6,1 UV-I 972 W/m 11,2 C 21,6 C 12,9 km/h (3 Bft) 98,08 %
10.06.2017 14:22 22,2 C 24,4 C 53 % 1019,4 hPa 0,0 l/m 6,2 km/h (2 Bft) W-NW 284 2 min 0,000 mm 6,1 UV-I 974 W/m 12,2 C 22,2 C 14,5 km/h (3 Bft) 97,22 %
10.06.2017 14:24 22,1 C 23,9 C 53 % 1019,4 hPa 0,0 l/m 7,0 km/h (2 Bft) W 275 2 min 0,000 mm 3,8 UV-I 974 W/m 12,1 C 21,9 C 17,7 km/h (3 Bft) 98,00 %
10.06.2017 14:26 21,7 C 24,4 C 50 % 1019,4 hPa 0,0 l/m 8,3 km/h (2 Bft) NW 326 2 min 0,000 mm 5,0 UV-I 969 W/m 10,8 C 21,0 C 16,1 km/h (3 Bft) 94,00 %
10.06.2017 14:28 21,6 C 23,9 C 52 % 1019,4 hPa 0,0 l/m 3,8 km/h (1 Bft) NW 309 2 min 0,000 mm 5,2 UV-I 956 W/m 11,3 C 21,6 C 8,0 km/h (2 Bft) 97,87 %
10.06.2017 14:30 21,6 C 23,9 C 53 % 1019,3 hPa 0,0 l/m 4,6 km/h (1 Bft) W-SW 249 2 min 0,000 mm 5,7 UV-I 940 W/m 11,6 C 21,6 C 9,7 km/h (2 Bft) 95,12 %
10.06.2017 14:32 21,7 C 23,9 C 51 % 1019,3 hPa 0,0 l/m 10,4 km/h (2 Bft) N 360 2 min 0,000 mm 6,0 UV-I 911 W/m 11,1 C 20,4 C 19,3 km/h (3 Bft) 97,73 %
10.06.2017 14:34 21,8 C 23,3 C 52 % 1019,4 hPa 0,0 l/m 5,5 km/h (1 Bft) W-NW 296 2 min 0,000 mm 5,9 UV-I 894 W/m 11,5 C 21,8 C 8,0 km/h (2 Bft) 97,73 %
10.06.2017 14:36 22,0 C 23,3 C 51 % 1019,3 hPa 0,0 l/m 7,3 km/h (2 Bft) W-NW 284 2 min 0,000 mm 5,9 UV-I 886 W/m 11,4 C 21,7 C 12,9 km/h (3 Bft) 98,31 %
10.06.2017 14:38 22,1 C 23,3 C 49 % 1019,4 hPa 0,0 l/m 6,0 km/h (2 Bft) NW 309 2 min 0,000 mm 5,9 UV-I 888 W/m 10,9 C 22,1 C 16,1 km/h (3 Bft) 98,00 %
10.06.2017 14:40 22,1 C 23,3 C 46 % 1019,4 hPa 0,0 l/m 8,8 km/h (2 Bft) W 273 2 min 0,000 mm 5,8 UV-I 882 W/m 9,9 C 21,3 C 16,1 km/h (3 Bft) 96,15 %
10.06.2017 14:42 21,9 C 23,3 C 48 % 1019,4 hPa 0,0 l/m 7,1 km/h (2 Bft) N-NO 24 2 min 0,000 mm 5,8 UV-I 879 W/m 10,4 C 21,7 C 19,3 km/h (3 Bft) 97,06 %
10.06.2017 14:44 22,1 C 23,3 C 50 % 1019,3 hPa 0,0 l/m 4,0 km/h (1 Bft) W 261 2 min 0,000 mm 5,7 UV-I 879 W/m 11,2 C 22,1 C 12,9 km/h (3 Bft) 97,37 %
10.06.2017 14:46 22,2 C 23,3 C 46 % 1019,3 hPa 0,0 l/m 9,7 km/h (2 Bft) N-NW 329 2 min 0,000 mm 5,7 UV-I 871 W/m 10,0 C 21,2 C 22,5 km/h (4 Bft) 94,64 %
10.06.2017 14:48 22,3 C 23,3 C 48 % 1019,3 hPa 0,0 l/m 4,5 km/h (1 Bft) W-NW 288 2 min 0,000 mm 5,6 UV-I 859 W/m 10,8 C 22,3 C 14,5 km/h (3 Bft) 97,56 %
10.06.2017 14:50 22,6 C 23,3 C 48 % 1019,3 hPa 0,0 l/m 4,0 km/h (1 Bft) W-NW 294 2 min 0,000 mm 5,6 UV-I 857 W/m 11,0 C 22,6 C 12,9 km/h (3 Bft) 98,00 %
10.06.2017 14:52 22,7 C 23,3 C 47 % 1019,3 hPa 0,0 l/m 10,0 km/h (2 Bft) W 263 2 min 0,000 mm 5,6 UV-I 857 W/m 10,8 C 21,6 C 17,7 km/h (3 Bft) 97,37 %
10.06.2017 14:54 22,7 C 25,0 C 48 % 1019,2 hPa 0,0 l/m 9,0 km/h (2 Bft) W 267 2 min 0,000 mm 5,6 UV-I 855 W/m 11,1 C 21,9 C 17,7 km/h (3 Bft) 97,92 %
10.06.2017 14:56 22,7 C 25,0 C 44 % 1019,3 hPa 0,0 l/m 10,4 km/h (2 Bft) W-NW 292 2 min 0,000 mm 5,5 UV-I 854 W/m 9,8 C 21,5 C 22,5 km/h (4 Bft) 96,00 %
10.06.2017 14:58 22,7 C 25,0 C 46 % 1019,3 hPa 0,0 l/m 9,0 km/h (2 Bft) NW 323 2 min 0,000 mm 5,5 UV-I 853 W/m 10,5 C 21,9 C 19,3 km/h (3 Bft) 98,00 %
10.06.2017 15:00 22,6 C 25,0 C 48 % 1019,2 hPa 0,0 l/m 4,0 km/h (1 Bft) N-NW 339 2 min 0,000 mm 5,5 UV-I 870 W/m 11,0 C 22,6 C 8,0 km/h (2 Bft) 98,00 %
10.06.2017 15:02 22,6 C 25,0 C 47 % 1019,3 hPa 0,0 l/m 4,5 km/h (1 Bft) NW 304 2 min 0,559 mm 5,4 UV-I 884 W/m 10,7 C 22,6 C 8,0 km/h (2 Bft) 97,37 %
10.06.2017 15:04 22,6 C 25,0 C 52 % 1019,3 hPa 0,0 l/m 8,0 km/h (2 Bft) W-NW 302 2 min 0,000 mm 5,4 UV-I 879 W/m 12,2 C 22,1 C 16,1 km/h (3 Bft) 96,43 %
10.06.2017 15:06 22,6 C 25,0 C 49 % 1019,3 hPa 0,0 l/m 5,8 km/h (2 Bft) N 11 2 min 0,000 mm 5,0 UV-I 870 W/m 11,3 C 22,6 C 16,1 km/h (3 Bft) 97,37 %
10.06.2017 15:08 22,4 C 25,0 C 51 % 1019,2 hPa 0,0 l/m 5,4 km/h (1 Bft) W-NW 290 2 min 0,000 mm 4,2 UV-I 881 W/m 11,8 C 22,4 C 12,9 km/h (3 Bft) 98,00 %
10.06.2017 15:10 22,3 C 25,0 C 49 % 1019,3 hPa 0,0 l/m 7,7 km/h (2 Bft) W-SW 252 2 min 0,000 mm 5,2 UV-I 871 W/m 11,1 C 21,9 C 16,1 km/h (3 Bft) 92,00 %
10.06.2017 15:12 22,4 C 25,0 C 49 % 1019,2 hPa 0,0 l/m 6,3 km/h (2 Bft) N 355 2 min 0,000 mm 5,1 UV-I 840 W/m 11,2 C 22,4 C 12,9 km/h (3 Bft) 97,73 %
10.06.2017 15:14 22,4 C 25,0 C 48 % 1019,2 hPa 0,0 l/m 6,7 km/h (2 Bft) NW 319 2 min 0,000 mm 5,1 UV-I 830 W/m 10,8 C 22,3 C 12,9 km/h (3 Bft) 98,11 %
10.06.2017 15:16 22,4 C 25,0 C 50 % 1019,2 hPa 0,0 l/m 5,9 km/h (2 Bft) N-NW 338 2 min 0,000 mm 5,1 UV-I 822 W/m 11,5 C 22,4 C 17,7 km/h (3 Bft) 97,73 %
10.06.2017 15:18 22,4 C 25,0 C 45 % 1019,2 hPa 0,0 l/m 10,3 km/h (2 Bft) SW 236 2 min 0,000 mm 4,9 UV-I 815 W/m 9,9 C 21,2 C 19,3 km/h (3 Bft) 97,37 %
10.06.2017 15:20 22,4 C 25,0 C 44 % 1019,3 hPa 0,0 l/m 11,3 km/h (2 Bft) W-SW 247 2 min 0,000 mm 4,9 UV-I 812 W/m 9,5 C 21,0 C 19,3 km/h (3 Bft) 96,23 %
10.06.2017 15:22 22,5 C 25,0 C 47 % 1019,2 hPa 0,0 l/m 9,2 km/h (2 Bft) W-SW 246 2 min 0,000 mm 4,9 UV-I 815 W/m 10,6 C 21,6 C 17,7 km/h (3 Bft) 97,87 %
10.06.2017 15:24 22,6 C 25,0 C 46 % 1019,2 hPa 0,0 l/m 11,9 km/h (2 Bft) W-SW 253 2 min 0,000 mm 4,9 UV-I 808 W/m 10,4 C 21,0 C 17,7 km/h (3 Bft) 98,00 %
10.06.2017 15:26 22,7 C 25,0 C 49 % 1019,2 hPa 0,0 l/m 9,7 km/h (2 Bft) W 275 2 min 0,000 mm 4,8 UV-I 791 W/m 11,4 C 21,7 C 19,3 km/h (3 Bft) 97,56 %
10.06.2017 15:28 22,7 C 25,0 C 51 % 1019,4 hPa 0,0 l/m 6,3 km/h (2 Bft) W-NW 300 2 min 0,000 mm 4,8 UV-I 791 W/m 12,0 C 22,7 C 16,1 km/h (3 Bft) 95,45 %
10.06.2017 15:30 22,6 C 25,0 C 48 % 1019,3 hPa 0,0 l/m 5,0 km/h (1 Bft) NW 319 2 min 0,000 mm 4,7 UV-I 785 W/m 11,0 C 22,6 C 9,7 km/h (2 Bft) 97,87 %
10.06.2017 15:32 22,4 C 25,0 C 49 % 1019,3 hPa 0,0 l/m 3,8 km/h (1 Bft) W-SW 250 2 min 0,000 mm 4,6 UV-I 780 W/m 11,2 C 22,4 C 8,0 km/h (2 Bft) 97,78 %
10.06.2017 15:34 22,4 C 25,0 C 48 % 1019,3 hPa 0,0 l/m 4,9 km/h (1 Bft) NW 313 2 min 0,000 mm 4,6 UV-I 789 W/m 10,8 C 22,4 C 11,3 km/h (2 Bft) 98,08 %
10.06.2017 15:36 22,4 C 25,0 C 49 % 1019,3 hPa 0,0 l/m 3,9 km/h (1 Bft) W-NW 296 2 min 0,000 mm 4,7 UV-I 809 W/m 11,2 C 22,4 C 12,9 km/h (3 Bft) 92,00 %
10.06.2017 15:38 22,4 C 25,0 C 49 % 1019,3 hPa 0,0 l/m 3,3 km/h (1 Bft) SW 229 2 min 0,000 mm 4,6 UV-I 806 W/m 11,2 C 22,4 C 11,3 km/h (2 Bft) 97,44 %
10.06.2017 15:40 22,5 C 25,0 C 48 % 1019,3 hPa 0,0 l/m 5,3 km/h (1 Bft) W-NW 294 2 min 0,000 mm 4,6 UV-I 792 W/m 10,9 C 22,5 C 8,0 km/h (2 Bft) 100,00 %
10.06.2017 15:42 22,7 C 25,0 C 49 % 1019,2 hPa 0,0 l/m 6,4 km/h (2 Bft) N-NW 333 2 min 0,000 mm 4,4 UV-I 770 W/m 11,4 C 22,7 C 12,9 km/h (3 Bft) 97,73 %
10.06.2017 15:44 22,6 C 25,0 C 48 % 1019,2 hPa 0,0 l/m 5,8 km/h (2 Bft) W-NW 291 2 min 0,000 mm 4,3 UV-I 768 W/m 11,0 C 22,6 C 16,1 km/h (3 Bft) 94,64 %
10.06.2017 15:46 22,4 C 25,0 C 50 % 1019,2 hPa 0,0 l/m 7,3 km/h (2 Bft) NW 309 2 min 0,000 mm 3,6 UV-I 669 W/m 11,5 C 22,1 C 14,5 km/h (3 Bft) 100,00 %
10.06.2017 15:48 22,2 C 25,0 C 48 % 1019,1 hPa 0,0 l/m 3,3 km/h (1 Bft) W-NW 299 2 min 0,000 mm 4,0 UV-I 655 W/m 10,7 C 22,2 C 9,7 km/h (2 Bft) 98,11 %
10.06.2017 15:50 22,2 C 25,0 C 50 % 1019,1 hPa 0,0 l/m 3,9 km/h (1 Bft) SW 219 2 min 0,000 mm 4,3 UV-I 785 W/m 11,3 C 22,2 C 9,7 km/h (2 Bft) 97,56 %
10.06.2017 15:52 22,3 C 25,0 C 50 % 1019,1 hPa 0,0 l/m 7,6 km/h (2 Bft) NW 309 2 min 0,000 mm 4,2 UV-I 759 W/m 11,4 C 21,9 C 17,7 km/h (3 Bft) 100,00 %
10.06.2017 15:54 22,4 C 25,0 C 48 % 1019,2 hPa 0,0 l/m 8,8 km/h (2 Bft) W 275 2 min 0,000 mm 4,1 UV-I 747 W/m 10,8 C 21,6 C 19,3 km/h (3 Bft) 95,74 %
10.06.2017 15:56 22,4 C 25,0 C 48 % 1019,1 hPa 0,0 l/m 5,5 km/h (1 Bft) N-NW 328 2 min 0,000 mm 4,1 UV-I 747 W/m 10,8 C 22,4 C 12,9 km/h (3 Bft) 100,00 %
10.06.2017 15:58 22,6 C 25,0 C 48 % 1019,1 hPa 0,0 l/m 5,3 km/h (1 Bft) SW 234 2 min 0,000 mm 4,1 UV-I 747 W/m 11,0 C 22,6 C 9,7 km/h (2 Bft) 96,23 %
10.06.2017 16:00 22,8 C 25,0 C 48 % 1019,1 hPa 0,0 l/m 1,7 km/h (1 Bft) W-SW 252 2 min 0,508 mm 3,9 UV-I 713 W/m 11,2 C 22,8 C 6,4 km/h (2 Bft) 100,00 %
10.06.2017 16:02 22,8 C 25,0 C 46 % 1019,0 hPa 0,0 l/m 7,2 km/h (2 Bft) SW 226 2 min 0,000 mm 3,9 UV-I 721 W/m 10,6 C 22,5 C 16,1 km/h (3 Bft) 98,00 %
10.06.2017 16:04 22,8 C 25,0 C 44 % 1019,0 hPa 0,0 l/m 8,5 km/h (2 Bft) W-SW 244 2 min 0,000 mm 3,9 UV-I 716 W/m 9,9 C 22,1 C 17,7 km/h (3 Bft) 98,11 %
10.06.2017 16:06 22,7 C 25,0 C 50 % 1019,0 hPa 0,0 l/m 4,8 km/h (1 Bft) N 10 2 min 0,000 mm 3,8 UV-I 717 W/m 11,7 C 22,7 C 11,3 km/h (2 Bft) 97,37 %
10.06.2017 16:08 22,6 C 25,0 C 49 % 1018,9 hPa 0,0 l/m 5,9 km/h (2 Bft) NW 315 2 min 0,000 mm 3,8 UV-I 715 W/m 11,3 C 22,6 C 12,9 km/h (3 Bft) 98,00 %
10.06.2017 16:10 22,4 C 25,0 C 47 % 1019,0 hPa 0,0 l/m 4,2 km/h (1 Bft) W 273 2 min 0,000 mm 3,8 UV-I 715 W/m 10,5 C 22,4 C 11,3 km/h (2 Bft) 98,11 %
10.06.2017 16:12 22,6 C 25,0 C 44 % 1018,9 hPa 0,0 l/m 14,9 km/h (3 Bft) W-SW 243 2 min 0,000 mm 3,7 UV-I 710 W/m 9,7 C 20,4 C 22,5 km/h (4 Bft) 100,00 %
10.06.2017 16:14 22,7 C 25,0 C 44 % 1018,8 hPa 0,0 l/m 13,9 km/h (3 Bft) W-NW 286 2 min 0,000 mm 3,6 UV-I 689 W/m 9,8 C 20,7 C 20,9 km/h (4 Bft) 97,22 %
10.06.2017 16:16 22,7 C 25,0 C 44 % 1018,8 hPa 0,0 l/m 10,9 km/h (2 Bft) S-SW 196 2 min 0,000 mm 3,5 UV-I 683 W/m 9,8 C 21,4 C 22,5 km/h (4 Bft) 96,23 %
10.06.2017 16:18 22,8 C 25,0 C 46 % 1018,8 hPa 0,0 l/m 6,5 km/h (2 Bft) W-NW 294 2 min 0,000 mm 3,5 UV-I 676 W/m 10,6 C 22,8 C 12,9 km/h (3 Bft) 98,00 %
10.06.2017 16:20 22,8 C 25,0 C 44 % 1018,8 hPa 0,0 l/m 4,0 km/h (1 Bft) W-NW 288 2 min 0,000 mm 3,5 UV-I 672 W/m 9,9 C 22,8 C 8,0 km/h (2 Bft) 97,56 %
10.06.2017 16:22 22,7 C 25,0 C 47 % 1018,8 hPa 0,0 l/m 2,7 km/h (1 Bft) W 274 2 min 0,000 mm 3,4 UV-I 670 W/m 10,8 C 22,7 C 6,4 km/h (2 Bft) 98,21 %
10.06.2017 16:24 22,8 C 25,0 C 50 % 1018,8 hPa 0,0 l/m 3,1 km/h (1 Bft) NW 325 2 min 0,000 mm 3,4 UV-I 666 W/m 11,8 C 22,8 C 9,7 km/h (2 Bft) 97,56 %
10.06.2017 16:26 22,8 C 25,0 C 47 % 1018,8 hPa 0,0 l/m 3,4 km/h (1 Bft) W-SW 240 2 min 0,000 mm 3,3 UV-I 659 W/m 10,9 C 22,8 C 9,7 km/h (2 Bft) 98,00 %
10.06.2017 16:28 22,8 C 25,0 C 47 % 1018,7 hPa 0,0 l/m 6,2 km/h (2 Bft) SW 236 2 min 0,000 mm 3,3 UV-I 653 W/m 10,9 C 22,8 C 11,3 km/h (2 Bft) 97,56 %
10.06.2017 16:30 22,8 C 25,0 C 48 % 1018,7 hPa 0,0 l/m 4,7 km/h (1 Bft) NO 36 2 min 0,000 mm 3,2 UV-I 649 W/m 11,2 C 22,8 C 9,7 km/h (2 Bft) 98,11 %
10.06.2017 16:32 22,8 C 25,0 C 48 % 1018,7 hPa 0,0 l/m 4,6 km/h (1 Bft) N 5 2 min 0,000 mm 3,1 UV-I 654 W/m 11,2 C 22,8 C 9,7 km/h (2 Bft) 97,37 %
10.06.2017 16:34 22,7 C 25,0 C 48 % 1018,7 hPa 0,0 l/m 2,3 km/h (1 Bft) W 277 2 min 0,000 mm 3,1 UV-I 640 W/m 11,1 C 22,7 C 8,0 km/h (2 Bft) 96,00 %
10.06.2017 16:36 22,7 C 25,0 C 47 % 1018,7 hPa 0,0 l/m 4,5 km/h (1 Bft) W 281 2 min 0,000 mm 3,1 UV-I 639 W/m 10,8 C 22,7 C 12,9 km/h (3 Bft) 100,00 %
10.06.2017 16:38 22,6 C 25,0 C 46 % 1018,7 hPa 0,0 l/m 6,5 km/h (2 Bft) S-SW 203 2 min 0,000 mm 3,1 UV-I 638 W/m 10,4 C 22,6 C 11,3 km/h (2 Bft) 98,11 %
10.06.2017 16:40 22,6 C 25,0 C 47 % 1018,7 hPa 0,0 l/m 3,7 km/h (1 Bft) N-NW 335 2 min 0,000 mm 3,0 UV-I 631 W/m 10,7 C 22,6 C 8,0 km/h (2 Bft) 100,00 %
10.06.2017 16:42 22,6 C 25,0 C 52 % 1018,6 hPa 0,0 l/m 2,6 km/h (1 Bft) NW 326 2 min 0,000 mm 3,0 UV-I 622 W/m 12,2 C 22,6 C 4,8 km/h (1 Bft) 100,00 %
10.06.2017 16:44 22,5 C 25,0 C 48 % 1018,6 hPa 0,0 l/m 5,7 km/h (1 Bft) N-NW 348 2 min 0,000 mm 2,9 UV-I 615 W/m 10,9 C 22,5 C 9,7 km/h (2 Bft) 98,21 %
10.06.2017 16:46 22,4 C 25,0 C 51 % 1018,6 hPa 0,0 l/m 4,2 km/h (1 Bft) W-NW 286 2 min 0,000 mm 2,8 UV-I 607 W/m 11,8 C 22,4 C 8,0 km/h (2 Bft) 97,73 %
10.06.2017 16:48 22,5 C 25,0 C 49 % 1018,5 hPa 0,0 l/m 6,8 km/h (2 Bft) W-SW 257 2 min 0,000 mm 2,8 UV-I 602 W/m 11,2 C 22,4 C 14,5 km/h (3 Bft) 97,87 %
10.06.2017 16:50 22,5 C 25,0 C 49 % 1018,6 hPa 0,0 l/m 3,9 km/h (1 Bft) W 267 2 min 0,000 mm 2,7 UV-I 596 W/m 11,2 C 22,5 C 11,3 km/h (2 Bft) 98,00 %
10.06.2017 16:52 22,5 C 25,0 C 45 % 1018,6 hPa 0,0 l/m 3,9 km/h (1 Bft) W-SW 243 2 min 0,000 mm 2,7 UV-I 591 W/m 10,0 C 22,5 C 11,3 km/h (2 Bft) 100,00 %
10.06.2017 16:54 22,6 C 25,0 C 49 % 1018,6 hPa 0,0 l/m 5,2 km/h (1 Bft) W-SW 248 2 min 0,000 mm 2,6 UV-I 583 W/m 11,3 C 22,6 C 12,9 km/h (3 Bft) 100,00 %
10.06.2017 16:56 22,6 C 25,0 C 49 % 1018,6 hPa 0,0 l/m 4,4 km/h (1 Bft) N-NO 29 2 min 0,000 mm 2,6 UV-I 580 W/m 11,3 C 22,6 C 12,9 km/h (3 Bft) 100,00 %
10.06.2017 16:58 22,6 C 25,0 C 48 % 1018,6 hPa 0,0 l/m 4,9 km/h (1 Bft) N-NW 328 2 min 0,000 mm 2,5 UV-I 574 W/m 11,0 C 22,6 C 12,9 km/h (3 Bft) 100,00 %
10.06.2017 17:00 22,4 C 25,0 C 48 % 1018,6 hPa 0,0 l/m 4,1 km/h (1 Bft) NW 306 2 min 0,000 mm 2,5 UV-I 568 W/m 10,8 C 22,4 C 11,3 km/h (2 Bft) 95,45 %
10.06.2017 17:02 22,3 C 25,0 C 49 % 1018,5 hPa 0,0 l/m 4,2 km/h (1 Bft) N-NW 342 2 min 0,432 mm 2,5 UV-I 563 W/m 11,1 C 22,3 C 8,0 km/h (2 Bft) 94,74 %
10.06.2017 17:04 22,3 C 25,0 C 49 % 1018,5 hPa 0,0 l/m 4,6 km/h (1 Bft) N 11 2 min 0,000 mm 2,4 UV-I 562 W/m 11,1 C 22,3 C 11,3 km/h (2 Bft) 96,15 %
10.06.2017 17:06 22,3 C 25,0 C 49 % 1018,5 hPa 0,0 l/m 4,5 km/h (1 Bft) N-NW 327 2 min 0,000 mm 2,4 UV-I 556 W/m 11,1 C 22,3 C 11,3 km/h (2 Bft) 93,62 %
10.06.2017 17:08 22,3 C 25,0 C 49 % 1018,4 hPa 0,0 l/m 4,3 km/h (1 Bft) NW 311 2 min 0,000 mm 2,3 UV-I 551 W/m 11,1 C 22,3 C 9,7 km/h (2 Bft) 97,87 %
10.06.2017 17:10 22,2 C 25,0 C 49 % 1018,5 hPa 0,0 l/m 7,1 km/h (2 Bft) N-NW 337 2 min 0,000 mm 2,3 UV-I 549 W/m 11,0 C 22,0 C 19,3 km/h (3 Bft) 94,34 %
10.06.2017 17:12 22,2 C 25,0 C 48 % 1018,5 hPa 0,0 l/m 6,5 km/h (2 Bft) W-NW 291 2 min 0,000 mm 2,2 UV-I 557 W/m 10,7 C 22,2 C 12,9 km/h (3 Bft) 97,56 %
10.06.2017 17:14 22,1 C 25,0 C 49 % 1018,5 hPa 0,0 l/m 4,4 km/h (1 Bft) W-NW 292 2 min 0,000 mm 2,1 UV-I 497 W/m 10,9 C 22,1 C 9,7 km/h (2 Bft) 96,00 %
10.06.2017 17:16 22,2 C 25,0 C 50 % 1018,5 hPa 0,0 l/m 6,3 km/h (2 Bft) N 355 2 min 0,000 mm 2,2 UV-I 518 W/m 11,3 C 22,2 C 16,1 km/h (3 Bft) 97,73 %
10.06.2017 17:18 22,2 C 25,0 C 50 % 1018,5 hPa 0,0 l/m 2,4 km/h (1 Bft) NW 304 2 min 0,000 mm 2,1 UV-I 535 W/m 11,3 C 22,2 C 4,8 km/h (1 Bft) 94,34 %
10.06.2017 17:20 22,2 C 25,0 C 52 % 1018,5 hPa 0,0 l/m 2,2 km/h (1 Bft) N 355 2 min 0,000 mm 2,0 UV-I 470 W/m 11,9 C 22,2 C 6,4 km/h (2 Bft) 97,14 %
10.06.2017 17:22 22,2 C 25,0 C 51 % 1018,4 hPa 0,0 l/m 2,5 km/h (1 Bft) N-NW 340 2 min 0,000 mm 2,0 UV-I 511 W/m 11,6 C 22,2 C 6,4 km/h (2 Bft) 98,00 %
10.06.2017 17:24 22,3 C 25,0 C 50 % 1018,4 hPa 0,0 l/m 3,2 km/h (1 Bft) SW 228 2 min 0,000 mm 2,0 UV-I 487 W/m 11,4 C 22,3 C 8,0 km/h (2 Bft) 89,36 %
10.06.2017 17:26 22,4 C 25,0 C 51 % 1018,4 hPa 0,0 l/m 4,4 km/h (1 Bft) SW 225 2 min 0,000 mm 1,9 UV-I 513 W/m 11,8 C 22,4 C 9,7 km/h (2 Bft) 94,64 %
10.06.2017 17:28 22,6 C 25,0 C 46 % 1018,4 hPa 0,0 l/m 8,5 km/h (2 Bft) W 263 2 min 0,000 mm 1,8 UV-I 521 W/m 10,4 C 21,9 C 16,1 km/h (3 Bft) 95,12 %
10.06.2017 17:30 22,6 C 25,0 C 50 % 1018,5 hPa 0,0 l/m 2,9 km/h (1 Bft) W 274 2 min 0,000 mm 1,7 UV-I 467 W/m 11,6 C 22,6 C 9,7 km/h (2 Bft) 96,23 %
10.06.2017 17:32 22,6 C 25,0 C 47 % 1018,4 hPa 0,0 l/m 2,1 km/h (1 Bft) W-NW 288 2 min 0,000 mm 1,8 UV-I 446 W/m 10,7 C 22,6 C 9,7 km/h (2 Bft) 97,44 %
10.06.2017 17:34 22,5 C 25,0 C 49 % 1018,4 hPa 0,0 l/m 3,0 km/h (1 Bft) NW 311 2 min 0,000 mm 1,8 UV-I 518 W/m 11,2 C 22,5 C 8,0 km/h (2 Bft) 100,00 %
10.06.2017 17:36 22,6 C 25,0 C 46 % 1018,4 hPa 0,0 l/m 1,8 km/h (1 Bft) W-SW 248 2 min 0,000 mm 1,8 UV-I 497 W/m 10,4 C 22,6 C 4,8 km/h (1 Bft) 100,00 %
10.06.2017 17:38 22,4 C 25,0 C 46 % 1018,4 hPa 0,0 l/m 4,4 km/h (1 Bft) W-NW 289 2 min 0,000 mm 1,6 UV-I 446 W/m 10,2 C 22,4 C 8,0 km/h (2 Bft) 97,14 %
10.06.2017 17:40 22,4 C 25,0 C 48 % 1018,3 hPa 0,0 l/m 3,2 km/h (1 Bft) N-NW 340 2 min 0,000 mm 1,5 UV-I 334 W/m 10,8 C 22,4 C 6,4 km/h (2 Bft) 100,00 %
10.06.2017 17:42 22,2 C 25,0 C 49 % 1018,4 hPa 0,0 l/m 4,2 km/h (1 Bft) NW 319 2 min 0,000 mm 1,6 UV-I 419 W/m 11,0 C 22,2 C 9,7 km/h (2 Bft) 100,00 %
10.06.2017 17:44 21,9 C 25,0 C 49 % 1018,4 hPa 0,0 l/m 5,3 km/h (1 Bft) N-NW 340 2 min 0,000 mm 1,4 UV-I 390 W/m 10,7 C 21,9 C 14,5 km/h (3 Bft) 100,00 %
10.06.2017 17:46 21,8 C 25,0 C 50 % 1018,3 hPa 0,0 l/m 1,8 km/h (1 Bft) N-NW 339 2 min 0,000 mm 1,5 UV-I 443 W/m 10,9 C 21,8 C 4,8 km/h (1 Bft) 97,56 %
10.06.2017 17:48 21,8 C 25,0 C 47 % 1018,4 hPa 0,0 l/m 3,2 km/h (1 Bft) N 355 2 min 0,000 mm 1,4 UV-I 452 W/m 10,0 C 21,8 C 8,0 km/h (2 Bft) 100,00 %
10.06.2017 17:50 21,9 C 25,0 C 50 % 1018,3 hPa 0,0 l/m 2,5 km/h (1 Bft) NW 317 2 min 0,000 mm 1,4 UV-I 440 W/m 11,0 C 21,9 C 9,7 km/h (2 Bft) 98,00 %
10.06.2017 17:52 21,9 C 25,0 C 49 % 1018,3 hPa 0,0 l/m 4,2 km/h (1 Bft) N-NO 26 2 min 0,000 mm 1,3 UV-I 389 W/m 10,7 C 21,9 C 8,0 km/h (2 Bft) 95,74 %
10.06.2017 17:54 21,8 C 25,0 C 49 % 1018,3 hPa 0,0 l/m 5,5 km/h (1 Bft) W-NW 299 2 min 0,000 mm 1,3 UV-I 374 W/m 10,6 C 21,8 C 16,1 km/h (3 Bft) 92,68 %
10.06.2017 17:56 21,7 C 25,0 C 48 % 1018,3 hPa 0,0 l/m 5,6 km/h (1 Bft) S-SW 194 2 min 0,000 mm 1,3 UV-I 348 W/m 10,2 C 21,7 C 17,7 km/h (3 Bft) 98,00 %
10.06.2017 17:58 21,8 C 25,0 C 49 % 1018,3 hPa 0,0 l/m 4,0 km/h (1 Bft) W 266 2 min 0,000 mm 1,2 UV-I 298 W/m 10,6 C 21,8 C 6,4 km/h (2 Bft) 97,56 %
10.06.2017 18:00 21,8 C 25,0 C 49 % 1018,3 hPa 0,0 l/m 2,7 km/h (1 Bft) NW 325 2 min 0,305 mm 1,1 UV-I 269 W/m 10,6 C 21,8 C 8,0 km/h (2 Bft) 100,00 %
10.06.2017 18:02 21,8 C 25,0 C 51 % 1018,3 hPa 0,0 l/m 3,3 km/h (1 Bft) W-NW 298 2 min 0,000 mm 1,2 UV-I 288 W/m 11,2 C 21,8 C 6,4 km/h (2 Bft) 100,00 %
10.06.2017 18:04 21,8 C 25,0 C 48 % 1018,3 hPa 0,0 l/m 2,9 km/h (1 Bft) N-NW 348 2 min 0,000 mm 1,2 UV-I 364 W/m 10,3 C 21,8 C 4,8 km/h (1 Bft) 95,12 %
10.06.2017 18:06 21,8 C 25,0 C 48 % 1018,3 hPa 0,0 l/m 2,9 km/h (1 Bft) NW 322 2 min 0,000 mm 1,1 UV-I 319 W/m 10,3 C 21,8 C 6,4 km/h (2 Bft) 96,23 %
10.06.2017 18:08 21,8 C 25,0 C 50 % 1018,3 hPa 0,0 l/m 1,7 km/h (1 Bft) N-NW 328 2 min 0,000 mm 1,1 UV-I 302 W/m 10,9 C 21,8 C 4,8 km/h (1 Bft) 95,12 %
10.06.2017 18:10 21,9 C 25,0 C 49 % 1018,3 hPa 0,0 l/m 4,2 km/h (1 Bft) W-NW 294 2 min 0,000 mm 1,1 UV-I 263 W/m 10,7 C 21,9 C 9,7 km/h (2 Bft) 96,00 %
10.06.2017 18:12 21,8 C 25,0 C 48 % 1018,3 hPa 0,0 l/m 5,5 km/h (1 Bft) W-SW 244 2 min 0,000 mm 1,0 UV-I 271 W/m 10,3 C 21,8 C 12,9 km/h (3 Bft) 92,86 %
10.06.2017 18:14 21,8 C 25,0 C 50 % 1018,4 hPa 0,0 l/m 4,0 km/h (1 Bft) N 10 2 min 0,000 mm 1,0 UV-I 261 W/m 10,9 C 21,8 C 11,3 km/h (2 Bft) 90,00 %
10.06.2017 18:16 21,6 C 25,0 C 50 % 1018,4 hPa 0,0 l/m 3,1 km/h (1 Bft) N-NW 336 2 min 0,000 mm 1,0 UV-I 272 W/m 10,7 C 21,6 C 6,4 km/h (2 Bft) 93,62 %
10.06.2017 18:18 21,4 C 25,0 C 49 % 1018,4 hPa 0,0 l/m 2,1 km/h (1 Bft) W-NW 296 2 min 0,000 mm 1,0 UV-I 348 W/m 10,2 C 21,4 C 4,8 km/h (1 Bft) 97,87 %
10.06.2017 18:20 21,6 C 25,0 C 50 % 1018,4 hPa 0,0 l/m 4,1 km/h (1 Bft) N-NW 329 2 min 0,000 mm 1,0 UV-I 355 W/m 10,7 C 21,6 C 11,3 km/h (2 Bft) 96,15 %
10.06.2017 18:22 21,6 C 25,0 C 52 % 1018,4 hPa 0,0 l/m 4,2 km/h (1 Bft) N-NW 348 2 min 0,000 mm 1,0 UV-I 357 W/m 11,3 C 21,6 C 6,4 km/h (2 Bft) 97,14 %
10.06.2017 18:24 21,6 C 25,0 C 51 % 1018,5 hPa 0,0 l/m 4,7 km/h (1 Bft) NW 313 2 min 0,000 mm 1,0 UV-I 352 W/m 11,0 C 21,6 C 14,5 km/h (3 Bft) 96,43 %
10.06.2017 18:26 21,5 C 25,0 C 49 % 1018,5 hPa 0,0 l/m 4,7 km/h (1 Bft) W-NW 285 2 min 0,000 mm 0,9 UV-I 348 W/m 10,3 C 21,5 C 11,3 km/h (2 Bft) 98,00 %
10.06.2017 18:28 21,6 C 25,0 C 51 % 1018,5 hPa 0,0 l/m 3,6 km/h (1 Bft) W 271 2 min 0,000 mm 0,9 UV-I 316 W/m 11,0 C 21,6 C 8,0 km/h (2 Bft) 97,56 %
10.06.2017 18:30 21,7 C 25,0 C 50 % 1018,5 hPa 0,0 l/m 5,5 km/h (1 Bft) W-NW 293 2 min 0,000 mm 0,9 UV-I 333 W/m 10,8 C 21,7 C 12,9 km/h (3 Bft) 96,15 %
10.06.2017 18:32 21,7 C 25,0 C 49 % 1018,5 hPa 0,0 l/m 4,4 km/h (1 Bft) NW 313 2 min 0,000 mm 0,8 UV-I 260 W/m 10,5 C 21,7 C 8,0 km/h (2 Bft) 89,47 %
10.06.2017 18:34 21,6 C 25,0 C 52 % 1018,6 hPa 0,0 l/m 4,2 km/h (1 Bft) W 274 2 min 0,000 mm 0,8 UV-I 255 W/m 11,3 C 21,6 C 9,7 km/h (2 Bft) 92,45 %
10.06.2017 18:36 21,6 C 25,6 C 52 % 1018,6 hPa 0,0 l/m 2,8 km/h (1 Bft) W-NW 300 2 min 0,000 mm 0,8 UV-I 276 W/m 11,3 C 21,6 C 6,4 km/h (2 Bft) 97,56 %
10.06.2017 18:38 21,6 C 25,6 C 51 % 1018,6 hPa 0,0 l/m 3,6 km/h (1 Bft) N-NO 22 2 min 0,000 mm 0,8 UV-I 328 W/m 11,0 C 21,6 C 9,7 km/h (2 Bft) 98,00 %
10.06.2017 18:40 21,7 C 25,6 C 52 % 1018,6 hPa 0,0 l/m 4,5 km/h (1 Bft) W-NW 303 2 min 0,000 mm 0,8 UV-I 314 W/m 11,4 C 21,7 C 11,3 km/h (2 Bft) 95,12 %
10.06.2017 18:42 21,6 C 25,6 C 50 % 1018,6 hPa 0,0 l/m 3,2 km/h (1 Bft) N 350 2 min 0,000 mm 0,7 UV-I 282 W/m 10,7 C 21,6 C 8,0 km/h (2 Bft) 97,62 %
10.06.2017 18:44 21,4 C 25,6 C 50 % 1018,6 hPa 0,0 l/m 1,8 km/h (1 Bft) W 261 2 min 0,000 mm 0,7 UV-I 193 W/m 10,5 C 21,4 C 6,4 km/h (2 Bft) 90,91 %
10.06.2017 18:46 21,4 C 25,6 C 48 % 1018,6 hPa 0,0 l/m 4,2 km/h (1 Bft) N-NW 340 0 min 0,000 mm 0,6 UV-I 163 W/m 9,9 C 21,4 C 11,3 km/h (2 Bft) 87,23 %
10.06.2017 18:48 21,4 C 25,6 C 48 % 1018,6 hPa 0,0 l/m 3,8 km/h (1 Bft) N-NW 331 0 min 0,000 mm 0,6 UV-I 175 W/m 9,9 C 21,4 C 8,0 km/h (2 Bft) 88,68 %
10.06.2017 18:50 21,3 C 25,6 C 52 % 1018,5 hPa 0,0 l/m 2,4 km/h (1 Bft) N 351 0 min 0,000 mm 0,6 UV-I 143 W/m 11,0 C 21,3 C 4,8 km/h (1 Bft) 92,86 %
10.06.2017 18:52 21,1 C 25,6 C 51 % 1018,6 hPa 0,0 l/m 2,2 km/h (1 Bft) W-SW 257 0 min 0,000 mm 0,5 UV-I 134 W/m 10,6 C 21,1 C 4,8 km/h (1 Bft) 92,31 %
10.06.2017 18:54 21,0 C 25,6 C 52 % 1018,5 hPa 0,0 l/m 2,8 km/h (1 Bft) N 5 0 min 0,000 mm 0,5 UV-I 129 W/m 10,8 C 21,0 C 6,4 km/h (2 Bft) 88,89 %
10.06.2017 18:56 20,9 C 25,6 C 51 % 1018,6 hPa 0,0 l/m 2,8 km/h (1 Bft) N-NW 336 0 min 0,000 mm 0,5 UV-I 134 W/m 10,4 C 20,9 C 8,0 km/h (2 Bft) 89,83 %
10.06.2017 18:58 20,7 C 25,6 C 53 % 1018,6 hPa 0,0 l/m 2,1 km/h (1 Bft) N-NW 348 0 min 0,000 mm 0,3 UV-I 135 W/m 10,8 C 20,7 C 9,7 km/h (2 Bft) 95,12 %
10.06.2017 19:00 20,6 C 25,6 C 52 % 1018,6 hPa 0,0 l/m 2,6 km/h (1 Bft) W 271 0 min 0,177 mm 0,0 UV-I 127 W/m 10,4 C 20,6 C 9,7 km/h (2 Bft) 95,74 %
10.06.2017 19:02 20,6 C 25,6 C 53 % 1018,6 hPa 0,0 l/m 1,0 km/h (0 Bft) N 355 0 min 0,000 mm 0,0 UV-I 126 W/m 10,7 C 20,6 C 3,2 km/h (1 Bft) 94,00 %
10.06.2017 19:04 20,5 C 25,6 C 55 % 1018,6 hPa 0,0 l/m 1,3 km/h (1 Bft) N 360 0 min 0,000 mm 0,0 UV-I 132 W/m 11,1 C 20,5 C 4,8 km/h (1 Bft) 91,49 %
10.06.2017 19:06 20,3 C 25,6 C 56 % 1018,6 hPa 0,0 l/m 2,8 km/h (1 Bft) W-NW 284 0 min 0,000 mm 0,0 UV-I 137 W/m 11,2 C 20,3 C 8,0 km/h (2 Bft) 92,68 %
10.06.2017 19:08 20,3 C 25,6 C 55 % 1018,6 hPa 0,0 l/m 2,3 km/h (1 Bft) W 269 0 min 0,000 mm 0,0 UV-I 135 W/m 11,0 C 20,3 C 8,0 km/h (2 Bft) 88,68 %
10.06.2017 19:10 20,4 C 25,6 C 53 % 1018,6 hPa 0,0 l/m 2,8 km/h (1 Bft) W-NW 285 0 min 0,000 mm 0,0 UV-I 134 W/m 10,5 C 20,4 C 9,7 km/h (2 Bft) 95,74 %
10.06.2017 19:12 20,5 C 25,6 C 54 % 1018,7 hPa 0,0 l/m 2,8 km/h (1 Bft) NW 307 0 min 0,000 mm 0,0 UV-I 135 W/m 10,9 C 20,5 C 9,7 km/h (2 Bft) 92,68 %
10.06.2017 19:14 20,5 C 25,6 C 53 % 1018,7 hPa 0,0 l/m 4,1 km/h (1 Bft) W-NW 295 0 min 0,000 mm 0,0 UV-I 132 W/m 10,6 C 20,5 C 6,4 km/h (2 Bft) 95,74 %
10.06.2017 19:16 20,4 C 25,6 C 53 % 1018,7 hPa 0,0 l/m 3,5 km/h (1 Bft) W-SW 248 0 min 0,000 mm 0,0 UV-I 130 W/m 10,5 C 20,4 C 9,7 km/h (2 Bft) 95,74 %
10.06.2017 19:18 20,4 C 25,6 C 53 % 1018,7 hPa 0,0 l/m 3,0 km/h (1 Bft) W-NW 298 0 min 0,000 mm 0,0 UV-I 123 W/m 10,5 C 20,4 C 6,4 km/h (2 Bft) 94,00 %
10.06.2017 19:20 20,5 C 25,6 C 53 % 1018,7 hPa 0,0 l/m 3,5 km/h (1 Bft) W 271 0 min 0,000 mm 0,0 UV-I 116 W/m 10,6 C 20,5 C 11,3 km/h (2 Bft) 96,00 %
10.06.2017 19:22 20,4 C 25,6 C 54 % 1018,7 hPa 0,0 l/m 1,7 km/h (1 Bft) NW 304 0 min 0,000 mm 0,0 UV-I 111 W/m 10,8 C 20,4 C 4,8 km/h (1 Bft) 94,74 %
10.06.2017 19:24 20,4 C 25,6 C 53 % 1018,7 hPa 0,0 l/m 4,3 km/h (1 Bft) W-SW 240 0 min 0,000 mm 0,0 UV-I 115 W/m 10,5 C 20,4 C 9,7 km/h (2 Bft) 92,45 %
10.06.2017 19:26 20,5 C 25,6 C 51 % 1018,7 hPa 0,0 l/m 5,3 km/h (1 Bft) W 263 0 min 0,000 mm 0,0 UV-I 120 W/m 10,0 C 20,5 C 9,7 km/h (2 Bft) 98,00 %
10.06.2017 19:28 20,6 C 25,6 C 52 % 1018,7 hPa 0,0 l/m 4,9 km/h (1 Bft) W 274 0 min 0,000 mm 0,0 UV-I 113 W/m 10,4 C 20,6 C 11,3 km/h (2 Bft) 100,00 %
10.06.2017 19:30 20,6 C 25,6 C 52 % 1018,7 hPa 0,0 l/m 2,4 km/h (1 Bft) W 263 0 min 0,000 mm 0,0 UV-I 98 W/m 10,4 C 20,6 C 4,8 km/h (1 Bft) 97,22 %
10.06.2017 19:32 20,5 C 25,6 C 50 % 1018,7 hPa 0,0 l/m 2,5 km/h (1 Bft) W-NW 283 0 min 0,000 mm 0,0 UV-I 86 W/m 9,7 C 20,5 C 4,8 km/h (1 Bft) 98,00 %
10.06.2017 19:34 20,5 C 25,6 C 51 % 1018,7 hPa 0,0 l/m 4,2 km/h (1 Bft) W-NW 285 0 min 0,000 mm 0,0 UV-I 80 W/m 10,0 C 20,5 C 9,7 km/h (2 Bft) 98,11 %
10.06.2017 19:36 20,4 C 25,6 C 52 % 1018,7 hPa 0,0 l/m 3,5 km/h (1 Bft) W 274 0 min 0,000 mm 0,0 UV-I 78 W/m 10,2 C 20,4 C 6,4 km/h (2 Bft) 95,12 %
10.06.2017 19:38 20,3 C 25,6 C 51 % 1018,7 hPa 0,0 l/m 2,7 km/h (1 Bft) W-NW 296 0 min 0,000 mm 0,0 UV-I 78 W/m 9,8 C 20,3 C 6,4 km/h (2 Bft) 98,11 %
10.06.2017 19:40 20,3 C 25,6 C 52 % 1018,7 hPa 0,0 l/m 2,0 km/h (1 Bft) W-NW 296 0 min 0,000 mm 0,0 UV-I 82 W/m 10,1 C 20,3 C 3,2 km/h (1 Bft) 97,87 %
10.06.2017 19:42 20,3 C 25,6 C 52 % 1018,7 hPa 0,0 l/m 2,0 km/h (1 Bft) W-NW 296 0 min 0,000 mm 0,0 UV-I 82 W/m 10,1 C 20,3 C 4,8 km/h (1 Bft) 96,00 %
10.06.2017 19:44 20,3 C 25,6 C 51 % 1018,7 hPa 0,0 l/m 1,5 km/h (1 Bft) W 273 0 min 0,000 mm 0,0 UV-I 76 W/m 9,8 C 20,3 C 6,4 km/h (2 Bft) 94,74 %
10.06.2017 19:46 20,3 C 25,6 C 53 % 1018,7 hPa 0,0 l/m 0,9 km/h (0 Bft) W 273 0 min 0,000 mm 0,0 UV-I 69 W/m 10,4 C 20,3 C 3,2 km/h (1 Bft) 100,00 %
10.06.2017 19:48 20,2 C 25,6 C 53 % 1018,7 hPa 0,0 l/m 1,2 km/h (1 Bft) W 273 0 min 0,000 mm 0,0 UV-I 66 W/m 10,3 C 20,2 C 4,8 km/h (1 Bft) 98,00 %
10.06.2017 19:50 20,2 C 25,6 C 54 % 1018,7 hPa 0,0 l/m 0,5 km/h (0 Bft) W 273 0 min 0,000 mm 0,0 UV-I 65 W/m 10,6 C 20,2 C 1,6 km/h (1 Bft) 100,00 %
10.06.2017 19:52 20,1 C 25,6 C 54 % 1018,7 hPa 0,0 l/m 0,8 km/h (0 Bft) W 274 0 min 0,000 mm 0,0 UV-I 66 W/m 10,5 C 20,1 C 3,2 km/h (1 Bft) 96,43 %
10.06.2017 19:54 20,1 C 25,6 C 52 % 1018,7 hPa 0,0 l/m 0,0 km/h (0 Bft) W 274 0 min 0,000 mm 0,0 UV-I 65 W/m 9,9 C 20,1 C 1,6 km/h (1 Bft) 100,00 %
10.06.2017 19:56 20,1 C 25,0 C 52 % 1018,7 hPa 0,0 l/m 2,0 km/h (1 Bft) W 274 0 min 0,000 mm 0,0 UV-I 63 W/m 9,9 C 20,1 C 4,8 km/h (1 Bft) 97,37 %
10.06.2017 19:58 20,2 C 25,6 C 52 % 1018,6 hPa 0,0 l/m 1,4 km/h (1 Bft) W 273 0 min 0,000 mm 0,0 UV-I 63 W/m 10,0 C 20,2 C 3,2 km/h (1 Bft) 100,00 %
10.06.2017 20:00 20,2 C 25,0 C 51 % 1018,7 hPa 0,0 l/m 5,3 km/h (1 Bft) W 267 0 min 0,000 mm 0,0 UV-I 63 W/m 9,7 C 20,2 C 9,7 km/h (2 Bft) 97,87 %
10.06.2017 20:02 20,3 C 25,0 C 51 % 1018,7 hPa 0,0 l/m 7,7 km/h (2 Bft) W-SW 244 0 min 0,077 mm 0,0 UV-I 61 W/m 9,8 C 19,8 C 12,9 km/h (3 Bft) 94,34 %
10.06.2017 20:04 20,3 C 25,0 C 50 % 1018,7 hPa 0,0 l/m 5,7 km/h (1 Bft) W-SW 248 0 min 0,000 mm 0,0 UV-I 56 W/m 9,5 C 20,3 C 9,7 km/h (2 Bft) 100,00 %
10.06.2017 20:06 20,3 C 25,0 C 51 % 1018,7 hPa 0,0 l/m 5,0 km/h (1 Bft) W-SW 245 0 min 0,000 mm 0,0 UV-I 53 W/m 9,8 C 20,3 C 6,4 km/h (2 Bft) 98,00 %
10.06.2017 20:08 20,3 C 25,0 C 50 % 1018,7 hPa 0,0 l/m 5,0 km/h (1 Bft) W 277 0 min 0,000 mm 0,0 UV-I 51 W/m 9,5 C 20,3 C 9,7 km/h (2 Bft) 98,00 %
10.06.2017 20:10 20,3 C 25,0 C 51 % 1018,7 hPa 0,0 l/m 4,0 km/h (1 Bft) W-SW 255 0 min 0,000 mm 0,0 UV-I 51 W/m 9,8 C 20,3 C 6,4 km/h (2 Bft) 95,83 %
10.06.2017 20:13 20,3 C 25,0 C 51 % 1018,7 hPa 0,0 l/m 4,3 km/h (1 Bft) W-SW 246 0 min 0,000 mm 0,0 UV-I 48 W/m 9,8 C 20,3 C 6,4 km/h (2 Bft) 95,88 %
10.06.2017 20:14 20,3 C 25,0 C 52 % 1018,7 hPa 0,0 l/m 5,6 km/h (1 Bft) W-SW 248 0 min 0,000 mm 0,0 UV-I 42 W/m 10,1 C 20,3 C 8,0 km/h (2 Bft) 100,00 %
10.06.2017 20:16 20,3 C 25,0 C 52 % 1018,7 hPa 0,0 l/m 6,2 km/h (2 Bft) W-SW 240 0 min 0,000 mm 0,0 UV-I 38 W/m 10,1 C 20,3 C 14,5 km/h (3 Bft) 95,12 %
10.06.2017 20:18 20,3 C 25,0 C 51 % 1018,7 hPa 0,0 l/m 6,4 km/h (2 Bft) W-SW 244 0 min 0,000 mm 0,0 UV-I 38 W/m 9,8 C 20,3 C 12,9 km/h (3 Bft) 100,00 %
10.06.2017 20:20 20,3 C 25,0 C 51 % 1018,7 hPa 0,0 l/m 5,0 km/h (1 Bft) W 271 0 min 0,000 mm 0,0 UV-I 37 W/m 9,8 C 20,3 C 9,7 km/h (2 Bft) 95,45 %
10.06.2017 20:22 20,2 C 25,0 C 51 % 1018,8 hPa 0,0 l/m 5,0 km/h (1 Bft) W 265 0 min 0,000 mm 0,0 UV-I 35 W/m 9,7 C 20,2 C 9,7 km/h (2 Bft) 100,00 %
10.06.2017 20:24 20,2 C 25,0 C 52 % 1018,8 hPa 0,0 l/m 4,5 km/h (1 Bft) W 265 0 min 0,000 mm 0,0 UV-I 35 W/m 10,0 C 20,2 C 6,4 km/h (2 Bft) 97,37 %
10.06.2017 20:26 20,2 C 25,0 C 53 % 1018,8 hPa 0,0 l/m 3,0 km/h (1 Bft) W 269 0 min 0,000 mm 0,0 UV-I 35 W/m 10,3 C 20,2 C 4,8 km/h (1 Bft) 100,00 %
10.06.2017 20:28 20,1 C 25,0 C 52 % 1018,8 hPa 0,0 l/m 5,0 km/h (1 Bft) W-SW 252 2 min 0,000 mm 0,0 UV-I 42 W/m 9,9 C 20,1 C 8,0 km/h (2 Bft) 96,00 %
10.06.2017 20:30 20,0 C 25,0 C 52 % 1018,7 hPa 0,0 l/m 3,4 km/h (1 Bft) W-SW 251 0 min 0,000 mm 0,0 UV-I 34 W/m 9,8 C 20,0 C 8,0 km/h (2 Bft) 100,00 %
10.06.2017 20:32 20,0 C 25,0 C 53 % 1018,8 hPa 0,0 l/m 3,7 km/h (1 Bft) W-SW 251 0 min 0,000 mm 0,0 UV-I 31 W/m 10,1 C 20,0 C 6,4 km/h (2 Bft) 98,00 %
10.06.2017 20:34 20,0 C 25,0 C 53 % 1018,8 hPa 0,0 l/m 3,7 km/h (1 Bft) W-SW 251 2 min 0,000 mm 0,0 UV-I 30 W/m 10,1 C 20,0 C 4,8 km/h (1 Bft) 98,00 %
10.06.2017 20:36 19,9 C 25,0 C 52 % 1018,8 hPa 0,0 l/m 3,9 km/h (1 Bft) W-SW 251 2 min 0,000 mm 0,0 UV-I 28 W/m 9,7 C 19,9 C 6,4 km/h (2 Bft) 100,00 %
10.06.2017 20:38 19,9 C 25,0 C 53 % 1018,9 hPa 0,0 l/m 3,2 km/h (1 Bft) W-SW 251 2 min 0,000 mm 0,0 UV-I 26 W/m 10,0 C 19,9 C 4,8 km/h (1 Bft) 95,74 %
10.06.2017 20:40 19,9 C 25,0 C 54 % 1018,9 hPa 0,0 l/m 1,9 km/h (1 Bft) W-SW 251 2 min 0,000 mm 0,0 UV-I 24 W/m 10,3 C 19,9 C 3,2 km/h (1 Bft) 100,00 %
10.06.2017 20:42 19,8 C 25,0 C 54 % 1018,9 hPa 0,0 l/m 1,4 km/h (1 Bft) W-SW 251 2 min 0,000 mm 0,0 UV-I 21 W/m 10,2 C 19,8 C 3,2 km/h (1 Bft) 97,87 %
10.06.2017 20:44 19,7 C 25,0 C 54 % 1019,0 hPa 0,0 l/m 1,3 km/h (1 Bft) W-SW 251 2 min 0,000 mm 0,0 UV-I 19 W/m 10,1 C 19,7 C 3,2 km/h (1 Bft) 97,22 %
10.06.2017 20:46 19,6 C 25,0 C 54 % 1019,0 hPa 0,0 l/m 1,4 km/h (1 Bft) W-SW 251 2 min 0,000 mm 0,0 UV-I 17 W/m 10,0 C 19,6 C 3,2 km/h (1 Bft) 100,00 %
10.06.2017 20:48 19,5 C 25,0 C 54 % 1019,0 hPa 0,0 l/m 0,2 km/h (0 Bft) W-SW 251 2 min 0,000 mm 0,0 UV-I 14 W/m 9,9 C 19,5 C 1,6 km/h (1 Bft) 98,00 %
10.06.2017 20:50 19,4 C 25,0 C 54 % 1019,0 hPa 0,0 l/m 0,1 km/h (0 Bft) W-SW 251 2 min 0,000 mm 0,0 UV-I 14 W/m 9,8 C 19,4 C 1,6 km/h (1 Bft) 100,00 %
10.06.2017 20:52 19,3 C 25,0 C 55 % 1019,0 hPa 0,0 l/m 0,0 km/h (0 Bft) W-SW 251 0 min 0,000 mm 0,0 UV-I 12 W/m 10,0 C 19,3 C 0,0 km/h (0 Bft) 97,73 %
10.06.2017 20:54 19,3 C 25,0 C 55 % 1019,0 hPa 0,0 l/m 0,1 km/h (0 Bft) W-SW 251 0 min 0,000 mm 0,0 UV-I 12 W/m 10,0 C 19,3 C 1,6 km/h (1 Bft) 95,38 %
10.06.2017 20:56 19,2 C 25,0 C 54 % 1019,0 hPa 0,0 l/m 0,8 km/h (0 Bft) W-SW 251 0 min 0,000 mm 0,0 UV-I 11 W/m 9,7 C 19,2 C 3,2 km/h (1 Bft) 97,37 %
10.06.2017 20:58 19,2 C 25,0 C 56 % 1019,0 hPa 0,0 l/m 0,3 km/h (0 Bft) W-SW 251 0 min 0,000 mm 0,0 UV-I 10 W/m 10,2 C 19,2 C 1,6 km/h (1 Bft) 98,00 %
10.06.2017 21:00 19,1 C 25,0 C 56 % 1019,0 hPa 0,0 l/m 1,1 km/h (1 Bft) W-SW 251 0 min 0,050 mm 0,0 UV-I 9 W/m 10,1 C 19,1 C 3,2 km/h (1 Bft) 98,00 %
10.06.2017 21:02 19,0 C 25,0 C 57 % 1019,1 hPa 0,0 l/m 0,3 km/h (0 Bft) W-SW 251 0 min 0,000 mm 0,0 UV-I 9 W/m 10,3 C 19,0 C 1,6 km/h (1 Bft) 93,62 %
10.06.2017 21:04 18,9 C 25,0 C 57 % 1019,1 hPa 0,0 l/m 0,3 km/h (0 Bft) W-SW 251 0 min 0,000 mm 0,0 UV-I 7 W/m 10,2 C 18,9 C 3,2 km/h (1 Bft) 94,00 %
10.06.2017 21:06 18,9 C 25,0 C 57 % 1019,1 hPa 0,0 l/m 0,4 km/h (0 Bft) W-SW 251 0 min 0,000 mm 0,0 UV-I 7 W/m 10,2 C 18,9 C 1,6 km/h (1 Bft) 97,37 %
10.06.2017 21:08 18,9 C 25,0 C 58 % 1019,2 hPa 0,0 l/m 0,0 km/h (0 Bft) W-SW 251 0 min 0,000 mm 0,0 UV-I 7 W/m 10,5 C 18,9 C 0,0 km/h (0 Bft) 94,00 %
10.06.2017 21:10 18,8 C 25,0 C 59 % 1019,2 hPa 0,0 l/m 0,8 km/h (0 Bft) W-SW 251 0 min 0,000 mm 0,0 UV-I 7 W/m 10,6 C 18,8 C 3,2 km/h (1 Bft) 98,08 %
10.06.2017 21:12 18,8 C 25,0 C 56 % 1019,2 hPa 0,0 l/m 1,5 km/h (1 Bft) W-SW 252 0 min 0,000 mm 0,0 UV-I 7 W/m 9,8 C 18,8 C 4,8 km/h (1 Bft) 92,11 %
10.06.2017 21:14 18,8 C 25,0 C 56 % 1019,2 hPa 0,0 l/m 2,3 km/h (1 Bft) W-SW 252 0 min 0,000 mm 0,0 UV-I 7 W/m 9,8 C 18,8 C 3,2 km/h (1 Bft) 98,00 %
10.06.2017 21:16 18,8 C 25,0 C 55 % 1019,3 hPa 0,0 l/m 1,4 km/h (1 Bft) W-SW 252 0 min 0,000 mm 0,0 UV-I 7 W/m 9,6 C 18,8 C 4,8 km/h (1 Bft) 95,12 %
10.06.2017 21:18 18,9 C 25,0 C 56 % 1019,3 hPa 0,0 l/m 1,1 km/h (1 Bft) W-SW 252 0 min 0,000 mm 0,0 UV-I 5 W/m 9,9 C 18,9 C 4,8 km/h (1 Bft) 96,23 %
10.06.2017 21:20 18,8 C 25,0 C 56 % 1019,3 hPa 0,0 l/m 0,6 km/h (0 Bft) W-SW 252 0 min 0,000 mm 0,0 UV-I 5 W/m 9,8 C 18,8 C 1,6 km/h (1 Bft) 93,18 %
10.06.2017 21:22 18,8 C 25,0 C 57 % 1019,3 hPa 0,0 l/m 1,0 km/h (0 Bft) W-SW 252 0 min 0,000 mm 0,0 UV-I 4 W/m 10,1 C 18,8 C 3,2 km/h (1 Bft) 94,00 %
10.06.2017 21:24 18,7 C 25,0 C 57 % 1019,4 hPa 0,0 l/m 2,5 km/h (1 Bft) W-SW 252 0 min 0,000 mm 0,0 UV-I 0 W/m 10,0 C 18,7 C 4,8 km/h (1 Bft) 96,00 %
10.06.2017 21:26 18,8 C 25,0 C 56 % 1019,4 hPa 0,0 l/m 2,4 km/h (1 Bft) W-SW 252 0 min 0,000 mm 0,0 UV-I 0 W/m 9,8 C 18,8 C 6,4 km/h (2 Bft) 97,44 %
10.06.2017 21:28 18,8 C 25,0 C 55 % 1019,4 hPa 0,0 l/m 0,7 km/h (0 Bft) W-SW 252 0 min 0,000 mm 0,0 UV-I 0 W/m 9,6 C 18,8 C 3,2 km/h (1 Bft) 100,00 %
10.06.2017 21:30 18,8 C 25,0 C 55 % 1019,4 hPa 0,0 l/m 2,8 km/h (1 Bft) W 271 0 min 0,000 mm 0,0 UV-I 0 W/m 9,6 C 18,8 C 6,4 km/h (2 Bft) 97,87 %
10.06.2017 21:32 18,8 C 25,0 C 55 % 1019,4 hPa 0,0 l/m 1,2 km/h (1 Bft) W 271 0 min 0,000 mm 0,0 UV-I 0 W/m 9,6 C 18,8 C 3,2 km/h (1 Bft) 97,73 %
10.06.2017 21:34 18,9 C 25,0 C 56 % 1019,4 hPa 0,0 l/m 1,3 km/h (1 Bft) W 272 0 min 0,000 mm 0,0 UV-I 0 W/m 9,9 C 18,9 C 4,8 km/h (1 Bft) 97,87 %
10.06.2017 21:36 18,9 C 25,0 C 54 % 1019,4 hPa 0,0 l/m 2,3 km/h (1 Bft) W 272 0 min 0,000 mm 0,0 UV-I 0 W/m 9,4 C 18,9 C 4,8 km/h (1 Bft) 98,11 %
10.06.2017 21:38 18,9 C 25,0 C 54 % 1019,4 hPa 0,0 l/m 2,1 km/h (1 Bft) W 272 0 min 0,000 mm 0,0 UV-I 0 W/m 9,4 C 18,9 C 3,2 km/h (1 Bft) 100,00 %
10.06.2017 21:40 18,9 C 25,0 C 55 % 1019,4 hPa 0,0 l/m 1,6 km/h (1 Bft) W 272 0 min 0,000 mm 0,0 UV-I 0 W/m 9,7 C 18,9 C 3,2 km/h (1 Bft) 98,11 %
10.06.2017 21:42 18,9 C 25,0 C 54 % 1019,4 hPa 0,0 l/m 3,2 km/h (1 Bft) W 272 0 min 0,000 mm 0,0 UV-I 0 W/m 9,4 C 18,9 C 6,4 km/h (2 Bft) 97,87 %
10.06.2017 21:44 18,9 C 25,0 C 54 % 1019,4 hPa 0,0 l/m 1,6 km/h (1 Bft) W 272 0 min 0,000 mm 0,0 UV-I 0 W/m 9,4 C 18,9 C 3,2 km/h (1 Bft) 98,00 %
10.06.2017 21:46 18,9 C 25,0 C 53 % 1019,4 hPa 0,0 l/m 1,1 km/h (1 Bft) W 272 0 min 0,000 mm 0,0 UV-I 0 W/m 9,1 C 18,9 C 3,2 km/h (1 Bft) 100,00 %
10.06.2017 21:48 18,9 C 25,0 C 53 % 1019,5 hPa 0,0 l/m 1,2 km/h (1 Bft) W 272 0 min 0,000 mm 0,0 UV-I 0 W/m 9,1 C 18,9 C 3,2 km/h (1 Bft) 100,00 %
10.06.2017 21:50 18,9 C 25,0 C 55 % 1019,5 hPa 0,0 l/m 1,2 km/h (1 Bft) W 272 0 min 0,000 mm 0,0 UV-I 0 W/m 9,7 C 18,9 C 3,2 km/h (1 Bft) 100,00 %
10.06.2017 21:52 18,9 C 25,0 C 55 % 1019,5 hPa 0,0 l/m 1,4 km/h (1 Bft) W 272 0 min 0,000 mm 0,0 UV-I 0 W/m 9,7 C 18,9 C 3,2 km/h (1 Bft) 98,00 %
10.06.2017 21:54 18,9 C 25,0 C 55 % 1019,6 hPa 0,0 l/m 1,1 km/h (1 Bft) W 272 0 min 0,000 mm 0,0 UV-I 0 W/m 9,7 C 18,9 C 3,2 km/h (1 Bft) 100,00 %
10.06.2017 21:56 18,8 C 25,0 C 56 % 1019,6 hPa 0,0 l/m 0,5 km/h (0 Bft) W 272 0 min 0,000 mm 0,0 UV-I 0 W/m 9,8 C 18,8 C 1,6 km/h (1 Bft) 96,00 %
10.06.2017 21:58 18,7 C 25,0 C 56 % 1019,6 hPa 0,0 l/m 1,7 km/h (1 Bft) W 272 0 min 0,000 mm 0,0 UV-I 0 W/m 9,7 C 18,7 C 3,2 km/h (1 Bft) 97,87 %
10.06.2017 22:00 18,6 C 25,0 C 56 % 1019,5 hPa 0,0 l/m 1,2 km/h (1 Bft) W 272 0 min 0,000 mm 0,0 UV-I 0 W/m 9,6 C 18,6 C 3,2 km/h (1 Bft) 100,00 %
10.06.2017 22:02 18,6 C 25,0 C 60 % 1019,5 hPa 0,0 l/m 0,0 km/h (0 Bft) W 272 0 min 0,026 mm 0,0 UV-I 0 W/m 10,7 C 18,6 C 0,0 km/h (0 Bft) 97,22 %
10.06.2017 22:04 18,4 C 25,0 C 63 % 1019,6 hPa 0,0 l/m 0,5 km/h (0 Bft) W 272 0 min 0,000 mm 0,0 UV-I 0 W/m 11,2 C 18,4 C 1,6 km/h (1 Bft) 98,18 %
10.06.2017 22:06 18,2 C 25,0 C 64 % 1019,5 hPa 0,0 l/m 0,8 km/h (0 Bft) W 272 0 min 0,000 mm 0,0 UV-I 0 W/m 11,3 C 18,2 C 3,2 km/h (1 Bft) 97,62 %
10.06.2017 22:08 18,1 C 25,0 C 65 % 1019,6 hPa 0,0 l/m 0,2 km/h (0 Bft) W 272 0 min 0,000 mm 0,0 UV-I 0 W/m 11,4 C 18,1 C 1,6 km/h (1 Bft) 98,11 %
10.06.2017 22:10 17,9 C 25,0 C 64 % 1019,6 hPa 0,0 l/m 0,3 km/h (0 Bft) W 272 0 min 0,000 mm 0,0 UV-I 0 W/m 11,0 C 17,9 C 1,6 km/h (1 Bft) 100,00 %
10.06.2017 22:12 17,8 C 25,0 C 66 % 1019,6 hPa 0,0 l/m 0,3 km/h (0 Bft) W 272 0 min 0,000 mm 0,0 UV-I 0 W/m 11,4 C 17,8 C 1,6 km/h (1 Bft) 97,37 %
10.06.2017 22:14 17,6 C 25,0 C 67 % 1019,7 hPa 0,0 l/m 0,3 km/h (0 Bft) W 272 0 min 0,000 mm 0,0 UV-I 0 W/m 11,4 C 17,6 C 1,6 km/h (1 Bft) 100,00 %
10.06.2017 22:16 17,4 C 25,0 C 67 % 1019,7 hPa 0,0 l/m 0,6 km/h (0 Bft) W 272 0 min 0,000 mm 0,0 UV-I 0 W/m 11,2 C 17,4 C 3,2 km/h (1 Bft) 100,00 %
10.06.2017 22:18 17,2 C 25,0 C 68 % 1019,7 hPa 0,0 l/m 1,2 km/h (1 Bft) W 272 0 min 0,000 mm 0,0 UV-I 0 W/m 11,2 C 17,2 C 3,2 km/h (1 Bft) 94,00 %
10.06.2017 22:20 17,1 C 25,0 C 69 % 1019,7 hPa 0,0 l/m 0,9 km/h (0 Bft) W 271 0 min 0,000 mm 0,0 UV-I 0 W/m 11,4 C 17,1 C 3,2 km/h (1 Bft) 100,00 %
10.06.2017 22:22 16,9 C 25,0 C 69 % 1019,7 hPa 0,0 l/m 1,5 km/h (1 Bft) W 271 0 min 0,000 mm 0,0 UV-I 0 W/m 11,2 C 16,9 C 3,2 km/h (1 Bft) 94,34 %
10.06.2017 22:24 16,8 C 25,0 C 69 % 1019,7 hPa 0,0 l/m 1,5 km/h (1 Bft) W 271 0 min 0,000 mm 0,0 UV-I 0 W/m 11,1 C 16,8 C 3,2 km/h (1 Bft) 96,23 %
10.06.2017 22:26 16,8 C 25,0 C 69 % 1019,7 hPa 0,0 l/m 1,5 km/h (1 Bft) W 271 0 min 0,000 mm 0,0 UV-I 0 W/m 11,1 C 16,8 C 3,2 km/h (1 Bft) 94,74 %
10.06.2017 22:28 16,7 C 25,0 C 69 % 1019,8 hPa 0,0 l/m 2,5 km/h (1 Bft) W 271 0 min 0,000 mm 0,0 UV-I 0 W/m 11,0 C 16,7 C 4,8 km/h (1 Bft) 94,34 %
10.06.2017 22:30 16,6 C 25,0 C 70 % 1019,8 hPa 0,0 l/m 2,4 km/h (1 Bft) W 271 0 min 0,000 mm 0,0 UV-I 0 W/m 11,1 C 16,6 C 4,8 km/h (1 Bft) 97,37 %
10.06.2017 22:32 16,6 C 25,0 C 69 % 1019,8 hPa 0,0 l/m 1,5 km/h (1 Bft) W 271 0 min 0,000 mm 0,0 UV-I 0 W/m 10,9 C 16,6 C 3,2 km/h (1 Bft) 96,23 %
10.06.2017 22:34 16,5 C 25,0 C 69 % 1019,9 hPa 0,0 l/m 1,0 km/h (0 Bft) W 271 0 min 0,000 mm 0,0 UV-I 0 W/m 10,8 C 16,5 C 3,2 km/h (1 Bft) 96,23 %
10.06.2017 22:36 16,4 C 25,0 C 70 % 1019,9 hPa 0,0 l/m 1,9 km/h (1 Bft) W 271 0 min 0,000 mm 0,0 UV-I 0 W/m 10,9 C 16,4 C 3,2 km/h (1 Bft) 94,74 %
10.06.2017 22:38 16,4 C 25,0 C 69 % 1019,9 hPa 0,0 l/m 1,9 km/h (1 Bft) W 271 0 min 0,000 mm 0,0 UV-I 0 W/m 10,7 C 16,4 C 3,2 km/h (1 Bft) 93,62 %
10.06.2017 22:40 16,5 C 25,0 C 68 % 1019,9 hPa 0,0 l/m 1,4 km/h (1 Bft) W 271 0 min 0,000 mm 0,0 UV-I 0 W/m 10,6 C 16,5 C 3,2 km/h (1 Bft) 95,74 %
10.06.2017 22:42 16,6 C 25,0 C 68 % 1020,0 hPa 0,0 l/m 1,6 km/h (1 Bft) W 271 0 min 0,000 mm 0,0 UV-I 0 W/m 10,7 C 16,6 C 3,2 km/h (1 Bft) 92,00 %
10.06.2017 22:44 16,6 C 25,0 C 68 % 1020,0 hPa 0,0 l/m 2,1 km/h (1 Bft) W 271 0 min 0,000 mm 0,0 UV-I 0 W/m 10,7 C 16,6 C 4,8 km/h (1 Bft) 96,15 %
10.06.2017 22:46 16,6 C 25,0 C 67 % 1020,0 hPa 0,0 l/m 2,7 km/h (1 Bft) W 270 0 min 0,000 mm 0,0 UV-I 0 W/m 10,4 C 16,6 C 6,4 km/h (2 Bft) 97,44 %
10.06.2017 22:48 16,6 C 25,0 C 67 % 1020,0 hPa 0,0 l/m 1,9 km/h (1 Bft) W 269 0 min 0,000 mm 0,0 UV-I 0 W/m 10,4 C 16,6 C 4,8 km/h (1 Bft) 95,74 %
10.06.2017 22:50 16,6 C 25,0 C 67 % 1020,0 hPa 0,0 l/m 2,0 km/h (1 Bft) W 269 0 min 0,000 mm 0,0 UV-I 0 W/m 10,4 C 16,6 C 4,8 km/h (1 Bft) 97,87 %
10.06.2017 22:52 16,6 C 25,0 C 67 % 1020,0 hPa 0,0 l/m 2,7 km/h (1 Bft) W 269 0 min 0,000 mm 0,0 UV-I 0 W/m 10,4 C 16,6 C 6,4 km/h (2 Bft) 97,87 %
10.06.2017 22:54 16,6 C 25,0 C 67 % 1020,1 hPa 0,0 l/m 1,7 km/h (1 Bft) W 269 0 min 0,000 mm 0,0 UV-I 0 W/m 10,4 C 16,6 C 4,8 km/h (1 Bft) 95,74 %
10.06.2017 22:56 16,5 C 25,0 C 67 % 1020,1 hPa 0,0 l/m 1,8 km/h (1 Bft) W 269 0 min 0,000 mm 0,0 UV-I 0 W/m 10,4 C 16,5 C 3,2 km/h (1 Bft) 96,00 %
10.06.2017 22:58 16,5 C 25,0 C 69 % 1020,1 hPa 0,0 l/m 1,6 km/h (1 Bft) W 269 0 min 0,000 mm 0,0 UV-I 0 W/m 10,8 C 16,5 C 4,8 km/h (1 Bft) 95,12 %
10.06.2017 23:00 16,4 C 25,0 C 68 % 1020,1 hPa 0,0 l/m 2,2 km/h (1 Bft) W 269 0 min 0,000 mm 0,0 UV-I 0 W/m 10,5 C 16,4 C 4,8 km/h (1 Bft) 90,00 %
10.06.2017 23:02 16,4 C 25,0 C 69 % 1020,3 hPa 0,0 l/m 2,0 km/h (1 Bft) W 269 0 min 0,025 mm 0,0 UV-I 0 W/m 10,7 C 16,4 C 4,8 km/h (1 Bft) 94,00 %
10.06.2017 23:04 16,3 C 25,0 C 69 % 1020,3 hPa 0,0 l/m 1,4 km/h (1 Bft) W 269 0 min 0,000 mm 0,0 UV-I 0 W/m 10,6 C 16,3 C 3,2 km/h (1 Bft) 94,00 %
10.06.2017 23:06 16,3 C 25,0 C 69 % 1020,2 hPa 0,0 l/m 1,1 km/h (1 Bft) W 269 0 min 0,000 mm 0,0 UV-I 0 W/m 10,6 C 16,3 C 3,2 km/h (1 Bft) 94,74 %
10.06.2017 23:08 16,3 C 25,0 C 69 % 1020,2 hPa 0,0 l/m 0,7 km/h (0 Bft) W 269 0 min 0,000 mm 0,0 UV-I 0 W/m 10,6 C 16,3 C 1,6 km/h (1 Bft) 92,00 %
10.06.2017 23:10 16,3 C 25,0 C 69 % 1020,3 hPa 0,0 l/m 0,5 km/h (0 Bft) W 269 0 min 0,000 mm 0,0 UV-I 0 W/m 10,6 C 16,3 C 1,6 km/h (1 Bft) 97,56 %
10.06.2017 23:12 16,2 C 25,0 C 69 % 1020,2 hPa 0,0 l/m 0,5 km/h (0 Bft) W 269 0 min 0,000 mm 0,0 UV-I 0 W/m 10,5 C 16,2 C 1,6 km/h (1 Bft) 92,00 %
10.06.2017 23:14 16,2 C 25,0 C 69 % 1020,2 hPa 0,0 l/m 0,1 km/h (0 Bft) W 269 0 min 0,000 mm 0,0 UV-I 0 W/m 10,5 C 16,2 C 1,6 km/h (1 Bft) 92,00 %
10.06.2017 23:16 16,2 C 25,0 C 71 % 1020,3 hPa 0,0 l/m 0,7 km/h (0 Bft) W 269 0 min 0,000 mm 0,0 UV-I 0 W/m 10,9 C 16,2 C 1,6 km/h (1 Bft) 95,74 %
10.06.2017 23:18 16,1 C 25,0 C 70 % 1020,2 hPa 0,0 l/m 0,2 km/h (0 Bft) W 269 0 min 0,000 mm 0,0 UV-I 0 W/m 10,6 C 16,1 C 1,6 km/h (1 Bft) 95,74 %
10.06.2017 23:20 16,0 C 25,0 C 70 % 1020,3 hPa 0,0 l/m 0,4 km/h (0 Bft) W 269 0 min 0,000 mm 0,0 UV-I 0 W/m 10,5 C 16,0 C 1,6 km/h (1 Bft) 96,00 %
10.06.2017 23:22 16,0 C 25,0 C 70 % 1020,2 hPa 0,0 l/m 1,2 km/h (1 Bft) W 268 0 min 0,000 mm 0,0 UV-I 0 W/m 10,5 C 16,0 C 3,2 km/h (1 Bft) 94,87 %
10.06.2017 23:24 16,1 C 25,0 C 69 % 1020,2 hPa 0,0 l/m 1,4 km/h (1 Bft) W 264 0 min 0,000 mm 0,0 UV-I 0 W/m 10,4 C 16,1 C 3,2 km/h (1 Bft) 95,74 %
10.06.2017 23:26 16,1 C 25,0 C 69 % 1020,3 hPa 0,0 l/m 1,2 km/h (1 Bft) W-SW 244 0 min 0,000 mm 0,0 UV-I 0 W/m 10,4 C 16,1 C 3,2 km/h (1 Bft) 96,00 %
10.06.2017 23:28 16,2 C 25,0 C 69 % 1020,3 hPa 0,0 l/m 1,3 km/h (1 Bft) W-SW 244 0 min 0,000 mm 0,0 UV-I 0 W/m 10,5 C 16,2 C 3,2 km/h (1 Bft) 98,11 %
10.06.2017 23:30 16,2 C 25,0 C 69 % 1020,4 hPa 0,0 l/m 1,1 km/h (1 Bft) W-SW 244 0 min 0,000 mm 0,0 UV-I 0 W/m 10,5 C 16,2 C 4,8 km/h (1 Bft) 97,14 %
10.06.2017 23:32 16,2 C 25,0 C 69 % 1020,3 hPa 0,0 l/m 1,7 km/h (1 Bft) W-SW 239 0 min 0,000 mm 0,0 UV-I 0 W/m 10,5 C 16,2 C 3,2 km/h (1 Bft) 98,11 %
10.06.2017 23:34 16,1 C 25,0 C 69 % 1020,3 hPa 0,0 l/m 3,1 km/h (1 Bft) SW 235 0 min 0,000 mm 0,0 UV-I 0 W/m 10,4 C 16,1 C 4,8 km/h (1 Bft) 98,11 %
10.06.2017 23:36 16,1 C 25,0 C 69 % 1020,4 hPa 0,0 l/m 2,4 km/h (1 Bft) SW 234 0 min 0,000 mm 0,0 UV-I 0 W/m 10,4 C 16,1 C 4,8 km/h (1 Bft) 95,74 %
10.06.2017 23:38 16,1 C 25,0 C 69 % 1020,3 hPa 0,0 l/m 2,2 km/h (1 Bft) SW 232 0 min 0,000 mm 0,0 UV-I 0 W/m 10,4 C 16,1 C 4,8 km/h (1 Bft) 100,00 %
10.06.2017 23:40 16,1 C 25,0 C 69 % 1020,3 hPa 0,0 l/m 1,3 km/h (1 Bft) SW 232 0 min 0,000 mm 0,0 UV-I 0 W/m 10,4 C 16,1 C 3,2 km/h (1 Bft) 98,11 %
10.06.2017 23:42 16,1 C 25,0 C 70 % 1020,3 hPa 0,0 l/m 1,2 km/h (1 Bft) SW 232 0 min 0,000 mm 0,0 UV-I 0 W/m 10,6 C 16,1 C 3,2 km/h (1 Bft) 100,00 %
10.06.2017 23:44 16,1 C 25,0 C 70 % 1020,3 hPa 0,0 l/m 2,2 km/h (1 Bft) SW 229 0 min 0,000 mm 0,0 UV-I 0 W/m 10,6 C 16,1 C 3,2 km/h (1 Bft) 98,00 %
10.06.2017 23:46 16,0 C 25,0 C 70 % 1020,4 hPa 0,0 l/m 1,9 km/h (1 Bft) SW 229 0 min 0,000 mm 0,0 UV-I 0 W/m 10,5 C 16,0 C 4,8 km/h (1 Bft) 100,00 %
10.06.2017 23:48 16,0 C 24,4 C 70 % 1020,4 hPa 0,0 l/m 1,2 km/h (1 Bft) SW 229 0 min 0,000 mm 0,0 UV-I 0 W/m 10,5 C 16,0 C 3,2 km/h (1 Bft) 94,64 %
10.06.2017 23:50 15,9 C 24,4 C 70 % 1020,4 hPa 0,0 l/m 2,4 km/h (1 Bft) SW 229 0 min 0,000 mm 0,0 UV-I 0 W/m 10,4 C 15,9 C 4,8 km/h (1 Bft) 98,00 %
10.06.2017 23:52 15,9 C 24,4 C 71 % 1020,4 hPa 0,0 l/m 2,1 km/h (1 Bft) SW 228 0 min 0,000 mm 0,0 UV-I 0 W/m 10,6 C 15,9 C 4,8 km/h (1 Bft) 100,00 %
10.06.2017 23:54 15,8 C 24,4 C 71 % 1020,4 hPa 0,0 l/m 2,1 km/h (1 Bft) SW 228 0 min 0,000 mm 0,0 UV-I 0 W/m 10,6 C 15,8 C 4,8 km/h (1 Bft) 97,56 %
10.06.2017 23:56 15,8 C 24,4 C 72 % 1020,4 hPa 0,0 l/m 2,9 km/h (1 Bft) SW 227 0 min 0,000 mm 0,0 UV-I 0 W/m 10,8 C 15,8 C 4,8 km/h (1 Bft) 98,11 %
10.06.2017 23:58 15,7 C 24,4 C 72 % 1020,4 hPa 0,0 l/m 2,1 km/h (1 Bft) SW 227 0 min 0,000 mm 0,0 UV-I 0 W/m 10,7 C 15,7 C 4,8 km/h (1 Bft) 97,37 %
_ Min-Zeit 04:30 07:18 14:56 00:36 - 02:54 - - - - - - 21:46 06:42 02:54 18:46
Minimum _ 14,6 C 21,7 C 44 % 1014,8 hPa - 0,0 km/h (0 Bft) - - - - - - 9,1 C 12,7 C 0,0 km/h (0 Bft) 87,23 %
_ Max-Zeit 14:52 18:36 05:22 23:30 02:06 13:04 - - 13:23 14:02 12:48 11:44 07:10 16:00 13:04 00:34
Maximum _ 22,8 C 25,6 C 95 % 1020,4 hPa 0,2 l/m 18,8 km/h
W (3 Bft)
- - 3 min 0,609 mm 6,9 UV-I 1133 W/m 14,9 C 22,8 C 30,6 km/h
W-SW (5 Bft)
100,00 %
Durchschnitt _ 18,6 C 23,8 C 68 % 1018,4 hPa #4,0 l/m 4,8 km/h (1 Bft) W - #10:58 h #5,029 mm 3,6 UV-I 489 W/m 12,2 C 18,4 C 9,9 km/h (2 Bft) 96,83 %